<?xml version="1.0" encoding="UTF-8" standalone="no" ?>
<gpx xmlns="http://www.topografix.com/GPX/1/1" xmlns:xsi="http://www.w3.org/2001/XMLSchema-instance" xsi:schemaLocation="http://www.topografix.com/GPX/1/1 http://www.topografix.com/GPX/1/1/gpx.xsd" version="1.1" creator="VisuGPX - https://www.visugpx.com">
  <metadata>
    <name>2009 LAGAHL</name>
    <desc><![CDATA[Lozère-Aveyron-Gard-Ardèche-Haute Loire]]></desc>
  </metadata>
  <trk>
    <name><![CDATA[D02]]></name>
    <trkseg>
      <trkpt lat="44.16586" lon="3.54786">
        <ele>1202</ele>
        <time>2009-07-09T11:24:11Z</time>
      </trkpt>
      <trkpt lat="44.16576" lon="3.54801">
        <ele>1200</ele>
        <time>2009-07-09T11:24:28Z</time>
      </trkpt>
      <trkpt lat="44.16577" lon="3.54801">
        <ele>1200</ele>
        <time>2009-07-09T11:25:33Z</time>
      </trkpt>
      <trkpt lat="44.16578" lon="3.54802">
        <ele>1200</ele>
        <time>2009-07-09T11:25:59Z</time>
      </trkpt>
      <trkpt lat="44.1659" lon="3.54796">
        <ele>1201</ele>
        <time>2009-07-09T11:27:20Z</time>
      </trkpt>
      <trkpt lat="44.16609" lon="3.54768">
        <ele>1199</ele>
        <time>2009-07-09T11:27:31Z</time>
      </trkpt>
      <trkpt lat="44.16644" lon="3.54734">
        <ele>1202</ele>
        <time>2009-07-09T11:27:45Z</time>
      </trkpt>
      <trkpt lat="44.16703" lon="3.54723">
        <ele>1199</ele>
        <time>2009-07-09T11:28:05Z</time>
      </trkpt>
      <trkpt lat="44.16729" lon="3.54712">
        <ele>1202</ele>
        <time>2009-07-09T11:28:15Z</time>
      </trkpt>
      <trkpt lat="44.16733" lon="3.54709">
        <ele>1198</ele>
        <time>2009-07-09T11:28:17Z</time>
      </trkpt>
      <trkpt lat="44.16737" lon="3.54707">
        <ele>1204</ele>
        <time>2009-07-09T11:28:19Z</time>
      </trkpt>
      <trkpt lat="44.16738" lon="3.54706">
        <ele>1201</ele>
        <time>2009-07-09T11:28:20Z</time>
      </trkpt>
      <trkpt lat="44.16758" lon="3.54688">
        <ele>1201</ele>
        <time>2009-07-09T11:28:33Z</time>
      </trkpt>
      <trkpt lat="44.16781" lon="3.54655">
        <ele>1200</ele>
        <time>2009-07-09T11:28:47Z</time>
      </trkpt>
      <trkpt lat="44.16791" lon="3.54627">
        <ele>1202</ele>
        <time>2009-07-09T11:28:56Z</time>
      </trkpt>
      <trkpt lat="44.16795" lon="3.54619">
        <ele>1203</ele>
        <time>2009-07-09T11:28:59Z</time>
      </trkpt>
      <trkpt lat="44.16798" lon="3.54614">
        <ele>1198</ele>
        <time>2009-07-09T11:29:01Z</time>
      </trkpt>
      <trkpt lat="44.16799" lon="3.54611">
        <ele>1202</ele>
        <time>2009-07-09T11:29:02Z</time>
      </trkpt>
      <trkpt lat="44.1682" lon="3.54581">
        <ele>1199</ele>
        <time>2009-07-09T11:29:14Z</time>
      </trkpt>
      <trkpt lat="44.16822" lon="3.54579">
        <ele>1206</ele>
        <time>2009-07-09T11:29:15Z</time>
      </trkpt>
      <trkpt lat="44.16823" lon="3.54577">
        <ele>1203</ele>
        <time>2009-07-09T11:29:16Z</time>
      </trkpt>
      <trkpt lat="44.16853" lon="3.54557">
        <ele>1205</ele>
        <time>2009-07-09T11:29:31Z</time>
      </trkpt>
      <trkpt lat="44.16874" lon="3.54549">
        <ele>1206</ele>
        <time>2009-07-09T11:29:41Z</time>
      </trkpt>
      <trkpt lat="44.16896" lon="3.54541">
        <ele>1209</ele>
        <time>2009-07-09T11:29:51Z</time>
      </trkpt>
      <trkpt lat="44.16929" lon="3.54529">
        <ele>1209</ele>
        <time>2009-07-09T11:30:06Z</time>
      </trkpt>
      <trkpt lat="44.16968" lon="3.54502">
        <ele>1212</ele>
        <time>2009-07-09T11:30:22Z</time>
      </trkpt>
      <trkpt lat="44.17017" lon="3.54458">
        <ele>1213</ele>
        <time>2009-07-09T11:30:41Z</time>
      </trkpt>
      <trkpt lat="44.17074" lon="3.54402">
        <ele>1213</ele>
        <time>2009-07-09T11:31:01Z</time>
      </trkpt>
      <trkpt lat="44.17146" lon="3.54337">
        <ele>1214</ele>
        <time>2009-07-09T11:31:25Z</time>
      </trkpt>
      <trkpt lat="44.17185" lon="3.54305">
        <ele>1213</ele>
        <time>2009-07-09T11:31:38Z</time>
      </trkpt>
      <trkpt lat="44.17231" lon="3.54263">
        <ele>1216</ele>
        <time>2009-07-09T11:31:55Z</time>
      </trkpt>
      <trkpt lat="44.17282" lon="3.54222">
        <ele>1220</ele>
        <time>2009-07-09T11:32:14Z</time>
      </trkpt>
      <trkpt lat="44.17342" lon="3.54182">
        <ele>1221</ele>
        <time>2009-07-09T11:32:35Z</time>
      </trkpt>
      <trkpt lat="44.17395" lon="3.54144">
        <ele>1225</ele>
        <time>2009-07-09T11:32:54Z</time>
      </trkpt>
      <trkpt lat="44.17431" lon="3.54122">
        <ele>1226</ele>
        <time>2009-07-09T11:33:07Z</time>
      </trkpt>
      <trkpt lat="44.17457" lon="3.54124">
        <ele>1229</ele>
        <time>2009-07-09T11:33:18Z</time>
      </trkpt>
      <trkpt lat="44.17471" lon="3.54123">
        <ele>1230</ele>
        <time>2009-07-09T11:33:30Z</time>
      </trkpt>
      <trkpt lat="44.17472" lon="3.54123">
        <ele>1231</ele>
        <time>2009-07-09T11:33:31Z</time>
      </trkpt>
      <trkpt lat="44.17488" lon="3.54112">
        <ele>1232</ele>
        <time>2009-07-09T11:33:43Z</time>
      </trkpt>
      <trkpt lat="44.17508" lon="3.54105">
        <ele>1234</ele>
        <time>2009-07-09T11:33:57Z</time>
      </trkpt>
      <trkpt lat="44.17523" lon="3.54109">
        <ele>1237</ele>
        <time>2009-07-09T11:34:08Z</time>
      </trkpt>
      <trkpt lat="44.17543" lon="3.54106">
        <ele>1239</ele>
        <time>2009-07-09T11:34:24Z</time>
      </trkpt>
      <trkpt lat="44.17567" lon="3.54086">
        <ele>1242</ele>
        <time>2009-07-09T11:34:42Z</time>
      </trkpt>
      <trkpt lat="44.17586" lon="3.5407">
        <ele>1245</ele>
        <time>2009-07-09T11:35:00Z</time>
      </trkpt>
      <trkpt lat="44.17604" lon="3.54041">
        <ele>1245</ele>
        <time>2009-07-09T11:35:14Z</time>
      </trkpt>
      <trkpt lat="44.17606" lon="3.54029">
        <ele>1245</ele>
        <time>2009-07-09T11:35:18Z</time>
      </trkpt>
      <trkpt lat="44.17607" lon="3.54016">
        <ele>1245</ele>
        <time>2009-07-09T11:35:22Z</time>
      </trkpt>
      <trkpt lat="44.17615" lon="3.53963">
        <ele>1247</ele>
        <time>2009-07-09T11:35:39Z</time>
      </trkpt>
      <trkpt lat="44.1762" lon="3.53945">
        <ele>1250</ele>
        <time>2009-07-09T11:35:45Z</time>
      </trkpt>
      <trkpt lat="44.1762" lon="3.53942">
        <ele>1250</ele>
        <time>2009-07-09T11:35:46Z</time>
      </trkpt>
      <trkpt lat="44.17632" lon="3.53906">
        <ele>1251</ele>
        <time>2009-07-09T11:36:00Z</time>
      </trkpt>
      <trkpt lat="44.17651" lon="3.53869">
        <ele>1253</ele>
        <time>2009-07-09T11:36:15Z</time>
      </trkpt>
      <trkpt lat="44.17665" lon="3.53843">
        <ele>1256</ele>
        <time>2009-07-09T11:36:26Z</time>
      </trkpt>
      <trkpt lat="44.17669" lon="3.53836">
        <ele>1256</ele>
        <time>2009-07-09T11:36:29Z</time>
      </trkpt>
      <trkpt lat="44.1769" lon="3.538">
        <ele>1258</ele>
        <time>2009-07-09T11:36:44Z</time>
      </trkpt>
      <trkpt lat="44.17709" lon="3.53771">
        <ele>1259</ele>
        <time>2009-07-09T11:36:58Z</time>
      </trkpt>
      <trkpt lat="44.17726" lon="3.53736">
        <ele>1259</ele>
        <time>2009-07-09T11:37:11Z</time>
      </trkpt>
      <trkpt lat="44.17751" lon="3.53685">
        <ele>1259</ele>
        <time>2009-07-09T11:37:25Z</time>
      </trkpt>
      <trkpt lat="44.17772" lon="3.53638">
        <ele>1260</ele>
        <time>2009-07-09T11:37:39Z</time>
      </trkpt>
      <trkpt lat="44.17779" lon="3.5361">
        <ele>1263</ele>
        <time>2009-07-09T11:37:47Z</time>
      </trkpt>
      <trkpt lat="44.17781" lon="3.53599">
        <ele>1265</ele>
        <time>2009-07-09T11:37:50Z</time>
      </trkpt>
      <trkpt lat="44.17781" lon="3.53571">
        <ele>1268</ele>
        <time>2009-07-09T11:37:59Z</time>
      </trkpt>
      <trkpt lat="44.1778" lon="3.53518">
        <ele>1269</ele>
        <time>2009-07-09T11:38:17Z</time>
      </trkpt>
      <trkpt lat="44.17781" lon="3.53515">
        <ele>1269</ele>
        <time>2009-07-09T11:38:18Z</time>
      </trkpt>
      <trkpt lat="44.17784" lon="3.53496">
        <ele>1269</ele>
        <time>2009-07-09T11:38:24Z</time>
      </trkpt>
      <trkpt lat="44.17805" lon="3.53446">
        <ele>1270</ele>
        <time>2009-07-09T11:38:39Z</time>
      </trkpt>
      <trkpt lat="44.17834" lon="3.53402">
        <ele>1268</ele>
        <time>2009-07-09T11:38:50Z</time>
      </trkpt>
      <trkpt lat="44.17854" lon="3.53375">
        <ele>1265</ele>
        <time>2009-07-09T11:38:55Z</time>
      </trkpt>
      <trkpt lat="44.17878" lon="3.53351">
        <ele>1261</ele>
        <time>2009-07-09T11:39:00Z</time>
      </trkpt>
      <trkpt lat="44.17884" lon="3.53348">
        <ele>1261</ele>
        <time>2009-07-09T11:39:01Z</time>
      </trkpt>
      <trkpt lat="44.17908" lon="3.53333">
        <ele>1260</ele>
        <time>2009-07-09T11:39:05Z</time>
      </trkpt>
      <trkpt lat="44.17929" lon="3.53311">
        <ele>1261</ele>
        <time>2009-07-09T11:39:10Z</time>
      </trkpt>
      <trkpt lat="44.17938" lon="3.53303">
        <ele>1259</ele>
        <time>2009-07-09T11:39:12Z</time>
      </trkpt>
      <trkpt lat="44.17999" lon="3.53242">
        <ele>1257</ele>
        <time>2009-07-09T11:39:25Z</time>
      </trkpt>
      <trkpt lat="44.18004" lon="3.53239">
        <ele>1257</ele>
        <time>2009-07-09T11:39:26Z</time>
      </trkpt>
      <trkpt lat="44.18023" lon="3.53223">
        <ele>1257</ele>
        <time>2009-07-09T11:39:30Z</time>
      </trkpt>
      <trkpt lat="44.1804" lon="3.53199">
        <ele>1253</ele>
        <time>2009-07-09T11:39:35Z</time>
      </trkpt>
      <trkpt lat="44.18055" lon="3.53181">
        <ele>1251</ele>
        <time>2009-07-09T11:39:38Z</time>
      </trkpt>
      <trkpt lat="44.18062" lon="3.53175">
        <ele>1251</ele>
        <time>2009-07-09T11:39:39Z</time>
      </trkpt>
      <trkpt lat="44.1811" lon="3.53133">
        <ele>1251</ele>
        <time>2009-07-09T11:39:49Z</time>
      </trkpt>
      <trkpt lat="44.18129" lon="3.53092">
        <ele>1249</ele>
        <time>2009-07-09T11:39:56Z</time>
      </trkpt>
      <trkpt lat="44.18136" lon="3.53078">
        <ele>1249</ele>
        <time>2009-07-09T11:39:58Z</time>
      </trkpt>
      <trkpt lat="44.18183" lon="3.5301">
        <ele>1249</ele>
        <time>2009-07-09T11:40:10Z</time>
      </trkpt>
      <trkpt lat="44.18193" lon="3.52994">
        <ele>1247</ele>
        <time>2009-07-09T11:40:13Z</time>
      </trkpt>
      <trkpt lat="44.18207" lon="3.52971">
        <ele>1246</ele>
        <time>2009-07-09T11:40:17Z</time>
      </trkpt>
      <trkpt lat="44.18224" lon="3.52945">
        <ele>1243</ele>
        <time>2009-07-09T11:40:21Z</time>
      </trkpt>
      <trkpt lat="44.18229" lon="3.52938">
        <ele>1242</ele>
        <time>2009-07-09T11:40:22Z</time>
      </trkpt>
      <trkpt lat="44.18253" lon="3.52896">
        <ele>1239</ele>
        <time>2009-07-09T11:40:27Z</time>
      </trkpt>
      <trkpt lat="44.18267" lon="3.52873">
        <ele>1237</ele>
        <time>2009-07-09T11:40:30Z</time>
      </trkpt>
      <trkpt lat="44.18279" lon="3.52846">
        <ele>1235</ele>
        <time>2009-07-09T11:40:33Z</time>
      </trkpt>
      <trkpt lat="44.18282" lon="3.52835">
        <ele>1235</ele>
        <time>2009-07-09T11:40:34Z</time>
      </trkpt>
      <trkpt lat="44.18307" lon="3.52784">
        <ele>1230</ele>
        <time>2009-07-09T11:40:39Z</time>
      </trkpt>
      <trkpt lat="44.18314" lon="3.52774">
        <ele>1230</ele>
        <time>2009-07-09T11:40:40Z</time>
      </trkpt>
      <trkpt lat="44.18325" lon="3.52752">
        <ele>1227</ele>
        <time>2009-07-09T11:40:42Z</time>
      </trkpt>
      <trkpt lat="44.18343" lon="3.52718">
        <ele>1225</ele>
        <time>2009-07-09T11:40:45Z</time>
      </trkpt>
      <trkpt lat="44.18372" lon="3.52661">
        <ele>1222</ele>
        <time>2009-07-09T11:40:50Z</time>
      </trkpt>
      <trkpt lat="44.18384" lon="3.52637">
        <ele>1221</ele>
        <time>2009-07-09T11:40:52Z</time>
      </trkpt>
      <trkpt lat="44.18401" lon="3.526">
        <ele>1218</ele>
        <time>2009-07-09T11:40:55Z</time>
      </trkpt>
      <trkpt lat="44.18429" lon="3.52561">
        <ele>1217</ele>
        <time>2009-07-09T11:40:59Z</time>
      </trkpt>
      <trkpt lat="44.18453" lon="3.52514">
        <ele>1214</ele>
        <time>2009-07-09T11:41:04Z</time>
      </trkpt>
      <trkpt lat="44.18471" lon="3.52485">
        <ele>1208</ele>
        <time>2009-07-09T11:41:07Z</time>
      </trkpt>
      <trkpt lat="44.18501" lon="3.52456">
        <ele>1204</ele>
        <time>2009-07-09T11:41:11Z</time>
      </trkpt>
      <trkpt lat="44.18533" lon="3.52442">
        <ele>1200</ele>
        <time>2009-07-09T11:41:14Z</time>
      </trkpt>
      <trkpt lat="44.18574" lon="3.52431">
        <ele>1194</ele>
        <time>2009-07-09T11:41:18Z</time>
      </trkpt>
      <trkpt lat="44.18595" lon="3.52424">
        <ele>1190</ele>
        <time>2009-07-09T11:41:20Z</time>
      </trkpt>
      <trkpt lat="44.18618" lon="3.52417">
        <ele>1187</ele>
        <time>2009-07-09T11:41:22Z</time>
      </trkpt>
      <trkpt lat="44.18639" lon="3.52408">
        <ele>1179</ele>
        <time>2009-07-09T11:41:24Z</time>
      </trkpt>
      <trkpt lat="44.1867" lon="3.52397">
        <ele>1174</ele>
        <time>2009-07-09T11:41:27Z</time>
      </trkpt>
      <trkpt lat="44.18688" lon="3.5239">
        <ele>1170</ele>
        <time>2009-07-09T11:41:29Z</time>
      </trkpt>
      <trkpt lat="44.18706" lon="3.52382">
        <ele>1169</ele>
        <time>2009-07-09T11:41:31Z</time>
      </trkpt>
      <trkpt lat="44.18726" lon="3.52374">
        <ele>1164</ele>
        <time>2009-07-09T11:41:33Z</time>
      </trkpt>
      <trkpt lat="44.18737" lon="3.52371">
        <ele>1160</ele>
        <time>2009-07-09T11:41:34Z</time>
      </trkpt>
      <trkpt lat="44.18757" lon="3.52363">
        <ele>1159</ele>
        <time>2009-07-09T11:41:36Z</time>
      </trkpt>
      <trkpt lat="44.18784" lon="3.52353">
        <ele>1155</ele>
        <time>2009-07-09T11:41:39Z</time>
      </trkpt>
      <trkpt lat="44.18803" lon="3.52349">
        <ele>1152</ele>
        <time>2009-07-09T11:41:41Z</time>
      </trkpt>
      <trkpt lat="44.18828" lon="3.52341">
        <ele>1148</ele>
        <time>2009-07-09T11:41:44Z</time>
      </trkpt>
      <trkpt lat="44.18845" lon="3.52335">
        <ele>1144</ele>
        <time>2009-07-09T11:41:46Z</time>
      </trkpt>
      <trkpt lat="44.18869" lon="3.52325">
        <ele>1141</ele>
        <time>2009-07-09T11:41:49Z</time>
      </trkpt>
      <trkpt lat="44.18886" lon="3.52318">
        <ele>1137</ele>
        <time>2009-07-09T11:41:51Z</time>
      </trkpt>
      <trkpt lat="44.18905" lon="3.5231">
        <ele>1132</ele>
        <time>2009-07-09T11:41:53Z</time>
      </trkpt>
      <trkpt lat="44.18924" lon="3.52303">
        <ele>1128</ele>
        <time>2009-07-09T11:41:55Z</time>
      </trkpt>
      <trkpt lat="44.18933" lon="3.52298">
        <ele>1125</ele>
        <time>2009-07-09T11:41:56Z</time>
      </trkpt>
      <trkpt lat="44.18952" lon="3.52288">
        <ele>1121</ele>
        <time>2009-07-09T11:41:58Z</time>
      </trkpt>
      <trkpt lat="44.18971" lon="3.52275">
        <ele>1118</ele>
        <time>2009-07-09T11:42:00Z</time>
      </trkpt>
      <trkpt lat="44.18979" lon="3.52269">
        <ele>1118</ele>
        <time>2009-07-09T11:42:01Z</time>
      </trkpt>
      <trkpt lat="44.18996" lon="3.52253">
        <ele>1113</ele>
        <time>2009-07-09T11:42:03Z</time>
      </trkpt>
      <trkpt lat="44.19012" lon="3.52236">
        <ele>1110</ele>
        <time>2009-07-09T11:42:05Z</time>
      </trkpt>
      <trkpt lat="44.19036" lon="3.52218">
        <ele>1109</ele>
        <time>2009-07-09T11:42:08Z</time>
      </trkpt>
      <trkpt lat="44.19052" lon="3.52206">
        <ele>1105</ele>
        <time>2009-07-09T11:42:13Z</time>
      </trkpt>
      <trkpt lat="44.19061" lon="3.52196">
        <ele>1103</ele>
        <time>2009-07-09T11:42:21Z</time>
      </trkpt>
      <trkpt lat="44.19063" lon="3.52198">
        <ele>1103</ele>
        <time>2009-07-09T11:42:34Z</time>
      </trkpt>
      <trkpt lat="44.19061" lon="3.522">
        <ele>1103</ele>
        <time>2009-07-09T11:43:17Z</time>
      </trkpt>
      <trkpt lat="44.19062" lon="3.52195">
        <ele>1103</ele>
        <time>2009-07-09T11:44:08Z</time>
      </trkpt>
      <trkpt lat="44.19062" lon="3.52196">
        <ele>1103</ele>
        <time>2009-07-09T11:45:07Z</time>
      </trkpt>
      <trkpt lat="44.19059" lon="3.52196">
        <ele>1105</ele>
        <time>2009-07-09T11:45:32Z</time>
      </trkpt>
      <trkpt lat="44.19061" lon="3.52197">
        <ele>1105</ele>
        <time>2009-07-09T11:45:54Z</time>
      </trkpt>
      <trkpt lat="44.19067" lon="3.52189">
        <ele>1104</ele>
        <time>2009-07-09T11:46:12Z</time>
      </trkpt>
      <trkpt lat="44.19075" lon="3.5218">
        <ele>1101</ele>
        <time>2009-07-09T11:46:15Z</time>
      </trkpt>
      <trkpt lat="44.19111" lon="3.5215">
        <ele>1093</ele>
        <time>2009-07-09T11:46:21Z</time>
      </trkpt>
      <trkpt lat="44.19118" lon="3.52145">
        <ele>1088</ele>
        <time>2009-07-09T11:46:22Z</time>
      </trkpt>
      <trkpt lat="44.19125" lon="3.52139">
        <ele>1088</ele>
        <time>2009-07-09T11:46:23Z</time>
      </trkpt>
      <trkpt lat="44.19171" lon="3.52118">
        <ele>1079</ele>
        <time>2009-07-09T11:46:29Z</time>
      </trkpt>
      <trkpt lat="44.19191" lon="3.52108">
        <ele>1076</ele>
        <time>2009-07-09T11:46:32Z</time>
      </trkpt>
      <trkpt lat="44.1921" lon="3.52088">
        <ele>1071</ele>
        <time>2009-07-09T11:46:35Z</time>
      </trkpt>
      <trkpt lat="44.19223" lon="3.52071">
        <ele>1069</ele>
        <time>2009-07-09T11:46:37Z</time>
      </trkpt>
      <trkpt lat="44.19249" lon="3.52059">
        <ele>1064</ele>
        <time>2009-07-09T11:46:41Z</time>
      </trkpt>
      <trkpt lat="44.19256" lon="3.52057">
        <ele>1063</ele>
        <time>2009-07-09T11:46:42Z</time>
      </trkpt>
      <trkpt lat="44.19281" lon="3.52046">
        <ele>1060</ele>
        <time>2009-07-09T11:46:46Z</time>
      </trkpt>
      <trkpt lat="44.19285" lon="3.52044">
        <ele>1059</ele>
        <time>2009-07-09T11:46:47Z</time>
      </trkpt>
      <trkpt lat="44.19304" lon="3.52034">
        <ele>1056</ele>
        <time>2009-07-09T11:46:54Z</time>
      </trkpt>
      <trkpt lat="44.19315" lon="3.52032">
        <ele>1053</ele>
        <time>2009-07-09T11:46:56Z</time>
      </trkpt>
      <trkpt lat="44.19322" lon="3.52031">
        <ele>1052</ele>
        <time>2009-07-09T11:46:57Z</time>
      </trkpt>
      <trkpt lat="44.19344" lon="3.52022">
        <ele>1053</ele>
        <time>2009-07-09T11:47:01Z</time>
      </trkpt>
      <trkpt lat="44.19371" lon="3.5202">
        <ele>1052</ele>
        <time>2009-07-09T11:47:06Z</time>
      </trkpt>
      <trkpt lat="44.19383" lon="3.5202">
        <ele>1051</ele>
        <time>2009-07-09T11:47:08Z</time>
      </trkpt>
      <trkpt lat="44.19405" lon="3.52022">
        <ele>1050</ele>
        <time>2009-07-09T11:47:12Z</time>
      </trkpt>
      <trkpt lat="44.19422" lon="3.52021">
        <ele>1050</ele>
        <time>2009-07-09T11:47:16Z</time>
      </trkpt>
      <trkpt lat="44.19438" lon="3.52023">
        <ele>1051</ele>
        <time>2009-07-09T11:47:29Z</time>
      </trkpt>
      <trkpt lat="44.19445" lon="3.52022">
        <ele>1051</ele>
        <time>2009-07-09T11:48:05Z</time>
      </trkpt>
      <trkpt lat="44.1949" lon="3.52014">
        <ele>1052</ele>
        <time>2009-07-09T11:48:18Z</time>
      </trkpt>
      <trkpt lat="44.19538" lon="3.52001">
        <ele>1053</ele>
        <time>2009-07-09T11:48:32Z</time>
      </trkpt>
      <trkpt lat="44.19557" lon="3.51994">
        <ele>1055</ele>
        <time>2009-07-09T11:48:38Z</time>
      </trkpt>
      <trkpt lat="44.196" lon="3.5197">
        <ele>1058</ele>
        <time>2009-07-09T11:48:52Z</time>
      </trkpt>
      <trkpt lat="44.19603" lon="3.51968">
        <ele>1058</ele>
        <time>2009-07-09T11:48:53Z</time>
      </trkpt>
      <trkpt lat="44.19644" lon="3.51923">
        <ele>1061</ele>
        <time>2009-07-09T11:49:11Z</time>
      </trkpt>
      <trkpt lat="44.19682" lon="3.5186">
        <ele>1063</ele>
        <time>2009-07-09T11:49:32Z</time>
      </trkpt>
      <trkpt lat="44.19694" lon="3.51822">
        <ele>1066</ele>
        <time>2009-07-09T11:49:43Z</time>
      </trkpt>
      <trkpt lat="44.19708" lon="3.5177">
        <ele>1069</ele>
        <time>2009-07-09T11:49:57Z</time>
      </trkpt>
      <trkpt lat="44.19738" lon="3.51717">
        <ele>1071</ele>
        <time>2009-07-09T11:50:14Z</time>
      </trkpt>
      <trkpt lat="44.19795" lon="3.5169">
        <ele>1071</ele>
        <time>2009-07-09T11:50:32Z</time>
      </trkpt>
      <trkpt lat="44.19831" lon="3.51676">
        <ele>1067</ele>
        <time>2009-07-09T11:50:39Z</time>
      </trkpt>
      <trkpt lat="44.19843" lon="3.51671">
        <ele>1066</ele>
        <time>2009-07-09T11:50:41Z</time>
      </trkpt>
      <trkpt lat="44.1987" lon="3.5166">
        <ele>1063</ele>
        <time>2009-07-09T11:50:45Z</time>
      </trkpt>
      <trkpt lat="44.19898" lon="3.51647">
        <ele>1060</ele>
        <time>2009-07-09T11:50:49Z</time>
      </trkpt>
      <trkpt lat="44.19913" lon="3.51641">
        <ele>1060</ele>
        <time>2009-07-09T11:50:51Z</time>
      </trkpt>
      <trkpt lat="44.1992" lon="3.51638">
        <ele>1059</ele>
        <time>2009-07-09T11:50:52Z</time>
      </trkpt>
      <trkpt lat="44.19935" lon="3.51639">
        <ele>1059</ele>
        <time>2009-07-09T11:50:54Z</time>
      </trkpt>
      <trkpt lat="44.19961" lon="3.51634">
        <ele>1058</ele>
        <time>2009-07-09T11:50:58Z</time>
      </trkpt>
      <trkpt lat="44.20018" lon="3.51613">
        <ele>1059</ele>
        <time>2009-07-09T11:51:11Z</time>
      </trkpt>
      <trkpt lat="44.20063" lon="3.51606">
        <ele>1060</ele>
        <time>2009-07-09T11:51:25Z</time>
      </trkpt>
      <trkpt lat="44.20063" lon="3.51606">
        <ele>1060</ele>
        <time>2009-07-09T11:51:44Z</time>
      </trkpt>
      <trkpt lat="44.20062" lon="3.51607">
        <ele>1060</ele>
        <time>2009-07-09T11:52:32Z</time>
      </trkpt>
      <trkpt lat="44.20079" lon="3.51609">
        <ele>1061</ele>
        <time>2009-07-09T11:52:46Z</time>
      </trkpt>
      <trkpt lat="44.20127" lon="3.51606">
        <ele>1061</ele>
        <time>2009-07-09T11:53:02Z</time>
      </trkpt>
      <trkpt lat="44.20176" lon="3.51595">
        <ele>1057</ele>
        <time>2009-07-09T11:53:18Z</time>
      </trkpt>
      <trkpt lat="44.20208" lon="3.51576">
        <ele>1057</ele>
        <time>2009-07-09T11:53:30Z</time>
      </trkpt>
      <trkpt lat="44.20213" lon="3.51575">
        <ele>1057</ele>
        <time>2009-07-09T11:53:36Z</time>
      </trkpt>
      <trkpt lat="44.20252" lon="3.51558">
        <ele>1054</ele>
        <time>2009-07-09T11:53:50Z</time>
      </trkpt>
      <trkpt lat="44.2027" lon="3.51549">
        <ele>1052</ele>
        <time>2009-07-09T11:53:54Z</time>
      </trkpt>
      <trkpt lat="44.20286" lon="3.51541">
        <ele>1051</ele>
        <time>2009-07-09T11:53:57Z</time>
      </trkpt>
      <trkpt lat="44.20312" lon="3.51533">
        <ele>1050</ele>
        <time>2009-07-09T11:54:02Z</time>
      </trkpt>
      <trkpt lat="44.20341" lon="3.51534">
        <ele>1047</ele>
        <time>2009-07-09T11:54:09Z</time>
      </trkpt>
      <trkpt lat="44.20365" lon="3.5153">
        <ele>1044</ele>
        <time>2009-07-09T11:54:15Z</time>
      </trkpt>
      <trkpt lat="44.20369" lon="3.51529">
        <ele>1043</ele>
        <time>2009-07-09T11:54:16Z</time>
      </trkpt>
      <trkpt lat="44.20378" lon="3.51525">
        <ele>1043</ele>
        <time>2009-07-09T11:54:18Z</time>
      </trkpt>
      <trkpt lat="44.20397" lon="3.51516">
        <ele>1042</ele>
        <time>2009-07-09T11:54:27Z</time>
      </trkpt>
      <trkpt lat="44.20398" lon="3.51515">
        <ele>1042</ele>
        <time>2009-07-09T11:54:33Z</time>
      </trkpt>
      <trkpt lat="44.20403" lon="3.51512">
        <ele>1041</ele>
        <time>2009-07-09T11:54:37Z</time>
      </trkpt>
      <trkpt lat="44.20406" lon="3.51507">
        <ele>1041</ele>
        <time>2009-07-09T11:54:39Z</time>
      </trkpt>
      <trkpt lat="44.20437" lon="3.51474">
        <ele>1040</ele>
        <time>2009-07-09T11:54:52Z</time>
      </trkpt>
      <trkpt lat="44.20463" lon="3.51442">
        <ele>1042</ele>
        <time>2009-07-09T11:55:06Z</time>
      </trkpt>
      <trkpt lat="44.20487" lon="3.51418">
        <ele>1045</ele>
        <time>2009-07-09T11:55:20Z</time>
      </trkpt>
      <trkpt lat="44.20492" lon="3.5141">
        <ele>1046</ele>
        <time>2009-07-09T11:55:24Z</time>
      </trkpt>
      <trkpt lat="44.20512" lon="3.51368">
        <ele>1049</ele>
        <time>2009-07-09T11:55:42Z</time>
      </trkpt>
      <trkpt lat="44.20525" lon="3.51325">
        <ele>1051</ele>
        <time>2009-07-09T11:56:00Z</time>
      </trkpt>
      <trkpt lat="44.20529" lon="3.51313">
        <ele>1053</ele>
        <time>2009-07-09T11:56:05Z</time>
      </trkpt>
      <trkpt lat="44.20534" lon="3.51288">
        <ele>1056</ele>
        <time>2009-07-09T11:56:15Z</time>
      </trkpt>
      <trkpt lat="44.20546" lon="3.51238">
        <ele>1058</ele>
        <time>2009-07-09T11:56:34Z</time>
      </trkpt>
      <trkpt lat="44.20562" lon="3.51191">
        <ele>1058</ele>
        <time>2009-07-09T11:56:53Z</time>
      </trkpt>
      <trkpt lat="44.20577" lon="3.51149">
        <ele>1062</ele>
        <time>2009-07-09T11:57:10Z</time>
      </trkpt>
      <trkpt lat="44.206" lon="3.51099">
        <ele>1063</ele>
        <time>2009-07-09T11:57:30Z</time>
      </trkpt>
      <trkpt lat="44.20618" lon="3.51074">
        <ele>1067</ele>
        <time>2009-07-09T11:57:42Z</time>
      </trkpt>
      <trkpt lat="44.20621" lon="3.5107">
        <ele>1068</ele>
        <time>2009-07-09T11:57:44Z</time>
      </trkpt>
      <trkpt lat="44.20651" lon="3.51048">
        <ele>1071</ele>
        <time>2009-07-09T11:58:00Z</time>
      </trkpt>
      <trkpt lat="44.20699" lon="3.5104">
        <ele>1072</ele>
        <time>2009-07-09T11:58:21Z</time>
      </trkpt>
      <trkpt lat="44.20728" lon="3.51034">
        <ele>1073</ele>
        <time>2009-07-09T11:58:33Z</time>
      </trkpt>
      <trkpt lat="44.20763" lon="3.51018">
        <ele>1076</ele>
        <time>2009-07-09T11:58:48Z</time>
      </trkpt>
      <trkpt lat="44.2079" lon="3.50993">
        <ele>1079</ele>
        <time>2009-07-09T11:59:01Z</time>
      </trkpt>
      <trkpt lat="44.20842" lon="3.50961">
        <ele>1078</ele>
        <time>2009-07-09T11:59:23Z</time>
      </trkpt>
      <trkpt lat="44.20854" lon="3.50951">
        <ele>1078</ele>
        <time>2009-07-09T11:59:28Z</time>
      </trkpt>
      <trkpt lat="44.20848" lon="3.50952">
        <ele>1080</ele>
        <time>2009-07-09T11:59:34Z</time>
      </trkpt>
      <trkpt lat="44.20817" lon="3.50968">
        <ele>1081</ele>
        <time>2009-07-09T11:59:49Z</time>
      </trkpt>
      <trkpt lat="44.20822" lon="3.51002">
        <ele>1080</ele>
        <time>2009-07-09T12:00:01Z</time>
      </trkpt>
      <trkpt lat="44.20838" lon="3.5103">
        <ele>1078</ele>
        <time>2009-07-09T12:00:09Z</time>
      </trkpt>
      <trkpt lat="44.20864" lon="3.51041">
        <ele>1075</ele>
        <time>2009-07-09T12:00:15Z</time>
      </trkpt>
      <trkpt lat="44.2091" lon="3.51053">
        <ele>1073</ele>
        <time>2009-07-09T12:00:25Z</time>
      </trkpt>
      <trkpt lat="44.2092" lon="3.51055">
        <ele>1072</ele>
        <time>2009-07-09T12:00:27Z</time>
      </trkpt>
      <trkpt lat="44.20929" lon="3.51058">
        <ele>1072</ele>
        <time>2009-07-09T12:00:29Z</time>
      </trkpt>
      <trkpt lat="44.20989" lon="3.51068">
        <ele>1067</ele>
        <time>2009-07-09T12:00:40Z</time>
      </trkpt>
      <trkpt lat="44.21" lon="3.51071">
        <ele>1066</ele>
        <time>2009-07-09T12:00:42Z</time>
      </trkpt>
      <trkpt lat="44.21016" lon="3.51075">
        <ele>1067</ele>
        <time>2009-07-09T12:00:45Z</time>
      </trkpt>
      <trkpt lat="44.21026" lon="3.5108">
        <ele>1067</ele>
        <time>2009-07-09T12:00:47Z</time>
      </trkpt>
      <trkpt lat="44.21055" lon="3.51084">
        <ele>1064</ele>
        <time>2009-07-09T12:00:53Z</time>
      </trkpt>
      <trkpt lat="44.2112" lon="3.5111">
        <ele>1066</ele>
        <time>2009-07-09T12:01:09Z</time>
      </trkpt>
      <trkpt lat="44.21171" lon="3.51126">
        <ele>1067</ele>
        <time>2009-07-09T12:01:23Z</time>
      </trkpt>
      <trkpt lat="44.21198" lon="3.51139">
        <ele>1064</ele>
        <time>2009-07-09T12:01:31Z</time>
      </trkpt>
      <trkpt lat="44.21201" lon="3.51141">
        <ele>1068</ele>
        <time>2009-07-09T12:01:32Z</time>
      </trkpt>
      <trkpt lat="44.21223" lon="3.51157">
        <ele>1064</ele>
        <time>2009-07-09T12:01:39Z</time>
      </trkpt>
      <trkpt lat="44.21248" lon="3.51174">
        <ele>1064</ele>
        <time>2009-07-09T12:01:46Z</time>
      </trkpt>
      <trkpt lat="44.21299" lon="3.51221">
        <ele>1064</ele>
        <time>2009-07-09T12:02:03Z</time>
      </trkpt>
      <trkpt lat="44.21326" lon="3.5124">
        <ele>1064</ele>
        <time>2009-07-09T12:02:16Z</time>
      </trkpt>
      <trkpt lat="44.21326" lon="3.51241">
        <ele>1065</ele>
        <time>2009-07-09T12:02:27Z</time>
      </trkpt>
      <trkpt lat="44.21325" lon="3.51238">
        <ele>1065</ele>
        <time>2009-07-09T12:02:30Z</time>
      </trkpt>
      <trkpt lat="44.21325" lon="3.51234">
        <ele>1064</ele>
        <time>2009-07-09T12:02:34Z</time>
      </trkpt>
      <trkpt lat="44.21327" lon="3.51232">
        <ele>1064</ele>
        <time>2009-07-09T12:02:49Z</time>
      </trkpt>
      <trkpt lat="44.21346" lon="3.51226">
        <ele>1064</ele>
        <time>2009-07-09T12:03:10Z</time>
      </trkpt>
      <trkpt lat="44.2136" lon="3.51222">
        <ele>1065</ele>
        <time>2009-07-09T12:03:21Z</time>
      </trkpt>
      <trkpt lat="44.21365" lon="3.51223">
        <ele>1066</ele>
        <time>2009-07-09T12:03:26Z</time>
      </trkpt>
      <trkpt lat="44.21381" lon="3.51226">
        <ele>1069</ele>
        <time>2009-07-09T12:03:44Z</time>
      </trkpt>
      <trkpt lat="44.21389" lon="3.51225">
        <ele>1071</ele>
        <time>2009-07-09T12:03:53Z</time>
      </trkpt>
      <trkpt lat="44.21402" lon="3.51226">
        <ele>1072</ele>
        <time>2009-07-09T12:04:10Z</time>
      </trkpt>
      <trkpt lat="44.21404" lon="3.51229">
        <ele>1072</ele>
        <time>2009-07-09T12:04:19Z</time>
      </trkpt>
      <trkpt lat="44.21406" lon="3.51232">
        <ele>1074</ele>
        <time>2009-07-09T12:04:22Z</time>
      </trkpt>
      <trkpt lat="44.21415" lon="3.51256">
        <ele>1075</ele>
        <time>2009-07-09T12:04:39Z</time>
      </trkpt>
      <trkpt lat="44.21419" lon="3.51257">
        <ele>1075</ele>
        <time>2009-07-09T12:04:53Z</time>
      </trkpt>
      <trkpt lat="44.2142" lon="3.51257">
        <ele>1074</ele>
        <time>2009-07-09T12:04:57Z</time>
      </trkpt>
      <trkpt lat="44.2145" lon="3.51254">
        <ele>1078</ele>
        <time>2009-07-09T12:05:15Z</time>
      </trkpt>
      <trkpt lat="44.21474" lon="3.51257">
        <ele>1081</ele>
        <time>2009-07-09T12:05:29Z</time>
      </trkpt>
      <trkpt lat="44.21494" lon="3.51247">
        <ele>1080</ele>
        <time>2009-07-09T12:05:43Z</time>
      </trkpt>
      <trkpt lat="44.21507" lon="3.51248">
        <ele>1082</ele>
        <time>2009-07-09T12:05:52Z</time>
      </trkpt>
      <trkpt lat="44.21523" lon="3.51249">
        <ele>1086</ele>
        <time>2009-07-09T12:06:03Z</time>
      </trkpt>
      <trkpt lat="44.21542" lon="3.5125">
        <ele>1089</ele>
        <time>2009-07-09T12:06:16Z</time>
      </trkpt>
      <trkpt lat="44.21544" lon="3.51251">
        <ele>1089</ele>
        <time>2009-07-09T12:06:17Z</time>
      </trkpt>
      <trkpt lat="44.21566" lon="3.51254">
        <ele>1093</ele>
        <time>2009-07-09T12:06:32Z</time>
      </trkpt>
      <trkpt lat="44.21594" lon="3.51256">
        <ele>1093</ele>
        <time>2009-07-09T12:06:49Z</time>
      </trkpt>
      <trkpt lat="44.21632" lon="3.51256">
        <ele>1094</ele>
        <time>2009-07-09T12:07:06Z</time>
      </trkpt>
      <trkpt lat="44.21648" lon="3.51255">
        <ele>1094</ele>
        <time>2009-07-09T12:07:13Z</time>
      </trkpt>
      <trkpt lat="44.21657" lon="3.51261">
        <ele>1094</ele>
        <time>2009-07-09T12:07:24Z</time>
      </trkpt>
      <trkpt lat="44.21656" lon="3.51261">
        <ele>1094</ele>
        <time>2009-07-09T12:07:48Z</time>
      </trkpt>
      <trkpt lat="44.21656" lon="3.51264">
        <ele>1094</ele>
        <time>2009-07-09T12:08:11Z</time>
      </trkpt>
      <trkpt lat="44.21655" lon="3.51261">
        <ele>1094</ele>
        <time>2009-07-09T12:12:24Z</time>
      </trkpt>
      <trkpt lat="44.21661" lon="3.51265">
        <ele>1093</ele>
        <time>2009-07-09T12:12:28Z</time>
      </trkpt>
      <trkpt lat="44.21696" lon="3.51294">
        <ele>1094</ele>
        <time>2009-07-09T12:12:43Z</time>
      </trkpt>
      <trkpt lat="44.21745" lon="3.51328">
        <ele>1094</ele>
        <time>2009-07-09T12:13:00Z</time>
      </trkpt>
      <trkpt lat="44.21802" lon="3.51384">
        <ele>1093</ele>
        <time>2009-07-09T12:13:19Z</time>
      </trkpt>
      <trkpt lat="44.21858" lon="3.51437">
        <ele>1093</ele>
        <time>2009-07-09T12:13:34Z</time>
      </trkpt>
      <trkpt lat="44.21871" lon="3.51442">
        <ele>1092</ele>
        <time>2009-07-09T12:13:37Z</time>
      </trkpt>
      <trkpt lat="44.21949" lon="3.51446">
        <ele>1092</ele>
        <time>2009-07-09T12:13:56Z</time>
      </trkpt>
      <trkpt lat="44.22038" lon="3.51467">
        <ele>1091</ele>
        <time>2009-07-09T12:14:16Z</time>
      </trkpt>
      <trkpt lat="44.2207" lon="3.51474">
        <ele>1091</ele>
        <time>2009-07-09T12:14:23Z</time>
      </trkpt>
      <trkpt lat="44.2211" lon="3.51503">
        <ele>1090</ele>
        <time>2009-07-09T12:14:33Z</time>
      </trkpt>
      <trkpt lat="44.22128" lon="3.51509">
        <ele>1090</ele>
        <time>2009-07-09T12:14:37Z</time>
      </trkpt>
      <trkpt lat="44.22144" lon="3.51517">
        <ele>1089</ele>
        <time>2009-07-09T12:14:41Z</time>
      </trkpt>
      <trkpt lat="44.22209" lon="3.51579">
        <ele>1088</ele>
        <time>2009-07-09T12:14:58Z</time>
      </trkpt>
      <trkpt lat="44.22279" lon="3.51659">
        <ele>1087</ele>
        <time>2009-07-09T12:15:16Z</time>
      </trkpt>
      <trkpt lat="44.2231" lon="3.517">
        <ele>1085</ele>
        <time>2009-07-09T12:15:23Z</time>
      </trkpt>
      <trkpt lat="44.22374" lon="3.51823">
        <ele>1084</ele>
        <time>2009-07-09T12:15:41Z</time>
      </trkpt>
      <trkpt lat="44.22435" lon="3.51917">
        <ele>1083</ele>
        <time>2009-07-09T12:15:58Z</time>
      </trkpt>
      <trkpt lat="44.22526" lon="3.52051">
        <ele>1083</ele>
        <time>2009-07-09T12:16:21Z</time>
      </trkpt>
      <trkpt lat="44.22605" lon="3.52166">
        <ele>1082</ele>
        <time>2009-07-09T12:16:40Z</time>
      </trkpt>
      <trkpt lat="44.22666" lon="3.52267">
        <ele>1082</ele>
        <time>2009-07-09T12:16:57Z</time>
      </trkpt>
      <trkpt lat="44.22716" lon="3.52348">
        <ele>1085</ele>
        <time>2009-07-09T12:17:13Z</time>
      </trkpt>
      <trkpt lat="44.22733" lon="3.52377">
        <ele>1088</ele>
        <time>2009-07-09T12:17:21Z</time>
      </trkpt>
      <trkpt lat="44.22769" lon="3.52434">
        <ele>1091</ele>
        <time>2009-07-09T12:17:40Z</time>
      </trkpt>
      <trkpt lat="44.22783" lon="3.52464">
        <ele>1093</ele>
        <time>2009-07-09T12:17:54Z</time>
      </trkpt>
      <trkpt lat="44.22783" lon="3.52496">
        <ele>1096</ele>
        <time>2009-07-09T12:18:08Z</time>
      </trkpt>
      <trkpt lat="44.22803" lon="3.52517">
        <ele>1098</ele>
        <time>2009-07-09T12:18:21Z</time>
      </trkpt>
      <trkpt lat="44.22805" lon="3.52516">
        <ele>1097</ele>
        <time>2009-07-09T12:18:25Z</time>
      </trkpt>
      <trkpt lat="44.22797" lon="3.52507">
        <ele>1096</ele>
        <time>2009-07-09T12:18:37Z</time>
      </trkpt>
      <trkpt lat="44.22785" lon="3.52495">
        <ele>1095</ele>
        <time>2009-07-09T12:18:52Z</time>
      </trkpt>
      <trkpt lat="44.22769" lon="3.52502">
        <ele>1095</ele>
        <time>2009-07-09T12:18:58Z</time>
      </trkpt>
      <trkpt lat="44.22761" lon="3.52518">
        <ele>1099</ele>
        <time>2009-07-09T12:19:04Z</time>
      </trkpt>
      <trkpt lat="44.22744" lon="3.5257">
        <ele>1102</ele>
        <time>2009-07-09T12:19:22Z</time>
      </trkpt>
      <trkpt lat="44.22749" lon="3.52596">
        <ele>1104</ele>
        <time>2009-07-09T12:19:32Z</time>
      </trkpt>
      <trkpt lat="44.22763" lon="3.52619">
        <ele>1108</ele>
        <time>2009-07-09T12:19:43Z</time>
      </trkpt>
      <trkpt lat="44.22765" lon="3.52623">
        <ele>1108</ele>
        <time>2009-07-09T12:19:45Z</time>
      </trkpt>
      <trkpt lat="44.22795" lon="3.52636">
        <ele>1108</ele>
        <time>2009-07-09T12:20:01Z</time>
      </trkpt>
      <trkpt lat="44.22809" lon="3.52633">
        <ele>1110</ele>
        <time>2009-07-09T12:20:08Z</time>
      </trkpt>
      <trkpt lat="44.22844" lon="3.52635">
        <ele>1112</ele>
        <time>2009-07-09T12:20:25Z</time>
      </trkpt>
      <trkpt lat="44.22859" lon="3.5265">
        <ele>1113</ele>
        <time>2009-07-09T12:20:33Z</time>
      </trkpt>
      <trkpt lat="44.22884" lon="3.52686">
        <ele>1114</ele>
        <time>2009-07-09T12:20:49Z</time>
      </trkpt>
      <trkpt lat="44.22894" lon="3.52698">
        <ele>1116</ele>
        <time>2009-07-09T12:20:55Z</time>
      </trkpt>
      <trkpt lat="44.2291" lon="3.52701">
        <ele>1118</ele>
        <time>2009-07-09T12:21:03Z</time>
      </trkpt>
      <trkpt lat="44.2293" lon="3.52702">
        <ele>1120</ele>
        <time>2009-07-09T12:21:17Z</time>
      </trkpt>
      <trkpt lat="44.2293" lon="3.52704">
        <ele>1120</ele>
        <time>2009-07-09T12:21:39Z</time>
      </trkpt>
      <trkpt lat="44.2293" lon="3.52704">
        <ele>1119</ele>
        <time>2009-07-09T12:22:17Z</time>
      </trkpt>
      <trkpt lat="44.22929" lon="3.52705">
        <ele>1119</ele>
        <time>2009-07-09T12:23:07Z</time>
      </trkpt>
      <trkpt lat="44.2293" lon="3.52705">
        <ele>1120</ele>
        <time>2009-07-09T12:23:27Z</time>
      </trkpt>
      <trkpt lat="44.2293" lon="3.52705">
        <ele>1119</ele>
        <time>2009-07-09T12:23:48Z</time>
      </trkpt>
      <trkpt lat="44.22936" lon="3.52707">
        <ele>1118</ele>
        <time>2009-07-09T12:23:53Z</time>
      </trkpt>
      <trkpt lat="44.22944" lon="3.52702">
        <ele>1118</ele>
        <time>2009-07-09T12:23:58Z</time>
      </trkpt>
      <trkpt lat="44.22974" lon="3.52665">
        <ele>1118</ele>
        <time>2009-07-09T12:24:15Z</time>
      </trkpt>
      <trkpt lat="44.22963" lon="3.52631">
        <ele>1119</ele>
        <time>2009-07-09T12:24:26Z</time>
      </trkpt>
      <trkpt lat="44.22944" lon="3.52607">
        <ele>1122</ele>
        <time>2009-07-09T12:24:36Z</time>
      </trkpt>
      <trkpt lat="44.22943" lon="3.52572">
        <ele>1121</ele>
        <time>2009-07-09T12:24:47Z</time>
      </trkpt>
      <trkpt lat="44.22944" lon="3.5257">
        <ele>1121</ele>
        <time>2009-07-09T12:24:48Z</time>
      </trkpt>
      <trkpt lat="44.22952" lon="3.52557">
        <ele>1122</ele>
        <time>2009-07-09T12:24:55Z</time>
      </trkpt>
      <trkpt lat="44.22952" lon="3.52557">
        <ele>1124</ele>
        <time>2009-07-09T12:25:52Z</time>
      </trkpt>
      <trkpt lat="44.22952" lon="3.52556">
        <ele>1125</ele>
        <time>2009-07-09T12:26:18Z</time>
      </trkpt>
      <trkpt lat="44.22952" lon="3.52556">
        <ele>1125</ele>
        <time>2009-07-09T12:26:20Z</time>
      </trkpt>
      <trkpt lat="44.22956" lon="3.52552">
        <ele>1125</ele>
        <time>2009-07-09T12:26:24Z</time>
      </trkpt>
      <trkpt lat="44.22997" lon="3.52524">
        <ele>1127</ele>
        <time>2009-07-09T12:26:42Z</time>
      </trkpt>
      <trkpt lat="44.23032" lon="3.52496">
        <ele>1129</ele>
        <time>2009-07-09T12:26:58Z</time>
      </trkpt>
      <trkpt lat="44.23056" lon="3.5248">
        <ele>1130</ele>
        <time>2009-07-09T12:27:08Z</time>
      </trkpt>
      <trkpt lat="44.231" lon="3.52455">
        <ele>1132</ele>
        <time>2009-07-09T12:27:27Z</time>
      </trkpt>
      <trkpt lat="44.23143" lon="3.52427">
        <ele>1133</ele>
        <time>2009-07-09T12:27:45Z</time>
      </trkpt>
      <trkpt lat="44.23182" lon="3.52402">
        <ele>1137</ele>
        <time>2009-07-09T12:28:01Z</time>
      </trkpt>
      <trkpt lat="44.23185" lon="3.524">
        <ele>1137</ele>
        <time>2009-07-09T12:28:02Z</time>
      </trkpt>
      <trkpt lat="44.2324" lon="3.52383">
        <ele>1139</ele>
        <time>2009-07-09T12:28:23Z</time>
      </trkpt>
      <trkpt lat="44.23299" lon="3.52358">
        <ele>1138</ele>
        <time>2009-07-09T12:28:42Z</time>
      </trkpt>
      <trkpt lat="44.23344" lon="3.52327">
        <ele>1142</ele>
        <time>2009-07-09T12:28:58Z</time>
      </trkpt>
      <trkpt lat="44.23397" lon="3.52303">
        <ele>1144</ele>
        <time>2009-07-09T12:29:17Z</time>
      </trkpt>
      <trkpt lat="44.23441" lon="3.52274">
        <ele>1145</ele>
        <time>2009-07-09T12:29:34Z</time>
      </trkpt>
      <trkpt lat="44.23477" lon="3.52227">
        <ele>1145</ele>
        <time>2009-07-09T12:29:50Z</time>
      </trkpt>
      <trkpt lat="44.23482" lon="3.52188">
        <ele>1145</ele>
        <time>2009-07-09T12:30:02Z</time>
      </trkpt>
      <trkpt lat="44.23481" lon="3.52188">
        <ele>1145</ele>
        <time>2009-07-09T12:30:25Z</time>
      </trkpt>
      <trkpt lat="44.23475" lon="3.52142">
        <ele>1146</ele>
        <time>2009-07-09T12:30:38Z</time>
      </trkpt>
      <trkpt lat="44.23453" lon="3.52081">
        <ele>1150</ele>
        <time>2009-07-09T12:30:54Z</time>
      </trkpt>
      <trkpt lat="44.23453" lon="3.52077">
        <ele>1150</ele>
        <time>2009-07-09T12:30:55Z</time>
      </trkpt>
      <trkpt lat="44.23459" lon="3.52064">
        <ele>1150</ele>
        <time>2009-07-09T12:31:00Z</time>
      </trkpt>
      <trkpt lat="44.23463" lon="3.52065">
        <ele>1152</ele>
        <time>2009-07-09T12:31:02Z</time>
      </trkpt>
      <trkpt lat="44.23467" lon="3.52068">
        <ele>1152</ele>
        <time>2009-07-09T12:31:04Z</time>
      </trkpt>
      <trkpt lat="44.23482" lon="3.52081">
        <ele>1154</ele>
        <time>2009-07-09T12:31:11Z</time>
      </trkpt>
      <trkpt lat="44.23521" lon="3.52087">
        <ele>1157</ele>
        <time>2009-07-09T12:31:27Z</time>
      </trkpt>
      <trkpt lat="44.2354" lon="3.52091">
        <ele>1160</ele>
        <time>2009-07-09T12:31:35Z</time>
      </trkpt>
      <trkpt lat="44.23584" lon="3.52096">
        <ele>1160</ele>
        <time>2009-07-09T12:31:52Z</time>
      </trkpt>
      <trkpt lat="44.23631" lon="3.52068">
        <ele>1160</ele>
        <time>2009-07-09T12:32:09Z</time>
      </trkpt>
      <trkpt lat="44.23677" lon="3.52025">
        <ele>1161</ele>
        <time>2009-07-09T12:32:26Z</time>
      </trkpt>
      <trkpt lat="44.23726" lon="3.51995">
        <ele>1162</ele>
        <time>2009-07-09T12:32:41Z</time>
      </trkpt>
      <trkpt lat="44.23775" lon="3.52023">
        <ele>1163</ele>
        <time>2009-07-09T12:32:55Z</time>
      </trkpt>
      <trkpt lat="44.2383" lon="3.52051">
        <ele>1161</ele>
        <time>2009-07-09T12:33:09Z</time>
      </trkpt>
      <trkpt lat="44.23839" lon="3.52054">
        <ele>1162</ele>
        <time>2009-07-09T12:33:11Z</time>
      </trkpt>
      <trkpt lat="44.23894" lon="3.52088">
        <ele>1163</ele>
        <time>2009-07-09T12:33:26Z</time>
      </trkpt>
      <trkpt lat="44.23915" lon="3.52124">
        <ele>1163</ele>
        <time>2009-07-09T12:33:35Z</time>
      </trkpt>
      <trkpt lat="44.23959" lon="3.52153">
        <ele>1164</ele>
        <time>2009-07-09T12:33:49Z</time>
      </trkpt>
      <trkpt lat="44.23976" lon="3.52151">
        <ele>1164</ele>
        <time>2009-07-09T12:34:01Z</time>
      </trkpt>
      <trkpt lat="44.23976" lon="3.52151">
        <ele>1165</ele>
        <time>2009-07-09T12:34:25Z</time>
      </trkpt>
      <trkpt lat="44.23976" lon="3.52151">
        <ele>1165</ele>
        <time>2009-07-09T12:34:47Z</time>
      </trkpt>
      <trkpt lat="44.2399" lon="3.52147">
        <ele>1164</ele>
        <time>2009-07-09T12:35:13Z</time>
      </trkpt>
      <trkpt lat="44.24059" lon="3.52137">
        <ele>1161</ele>
        <time>2009-07-09T12:35:30Z</time>
      </trkpt>
      <trkpt lat="44.24112" lon="3.52144">
        <ele>1161</ele>
        <time>2009-07-09T12:35:46Z</time>
      </trkpt>
      <trkpt lat="44.24131" lon="3.52148">
        <ele>1158</ele>
        <time>2009-07-09T12:35:51Z</time>
      </trkpt>
      <trkpt lat="44.24141" lon="3.5215">
        <ele>1157</ele>
        <time>2009-07-09T12:35:53Z</time>
      </trkpt>
      <trkpt lat="44.24215" lon="3.52164">
        <ele>1154</ele>
        <time>2009-07-09T12:36:08Z</time>
      </trkpt>
      <trkpt lat="44.24301" lon="3.52187">
        <ele>1151</ele>
        <time>2009-07-09T12:36:25Z</time>
      </trkpt>
      <trkpt lat="44.24307" lon="3.52188">
        <ele>1151</ele>
        <time>2009-07-09T12:36:26Z</time>
      </trkpt>
      <trkpt lat="44.24335" lon="3.52197">
        <ele>1149</ele>
        <time>2009-07-09T12:36:31Z</time>
      </trkpt>
      <trkpt lat="44.24351" lon="3.52204">
        <ele>1146</ele>
        <time>2009-07-09T12:36:34Z</time>
      </trkpt>
      <trkpt lat="44.24356" lon="3.52206">
        <ele>1146</ele>
        <time>2009-07-09T12:36:35Z</time>
      </trkpt>
      <trkpt lat="44.2438" lon="3.52216">
        <ele>1143</ele>
        <time>2009-07-09T12:36:39Z</time>
      </trkpt>
      <trkpt lat="44.24401" lon="3.52224">
        <ele>1138</ele>
        <time>2009-07-09T12:36:42Z</time>
      </trkpt>
      <trkpt lat="44.24409" lon="3.52227">
        <ele>1138</ele>
        <time>2009-07-09T12:36:43Z</time>
      </trkpt>
      <trkpt lat="44.24484" lon="3.52251">
        <ele>1137</ele>
        <time>2009-07-09T12:36:53Z</time>
      </trkpt>
      <trkpt lat="44.24574" lon="3.52251">
        <ele>1134</ele>
        <time>2009-07-09T12:37:06Z</time>
      </trkpt>
      <trkpt lat="44.2458" lon="3.5225">
        <ele>1134</ele>
        <time>2009-07-09T12:37:07Z</time>
      </trkpt>
      <trkpt lat="44.24594" lon="3.52249">
        <ele>1132</ele>
        <time>2009-07-09T12:37:09Z</time>
      </trkpt>
      <trkpt lat="44.24623" lon="3.52258">
        <ele>1130</ele>
        <time>2009-07-09T12:37:13Z</time>
      </trkpt>
      <trkpt lat="44.24644" lon="3.52274">
        <ele>1129</ele>
        <time>2009-07-09T12:37:16Z</time>
      </trkpt>
      <trkpt lat="44.24718" lon="3.52296">
        <ele>1127</ele>
        <time>2009-07-09T12:37:26Z</time>
      </trkpt>
      <trkpt lat="44.24742" lon="3.52299">
        <ele>1126</ele>
        <time>2009-07-09T12:37:30Z</time>
      </trkpt>
      <trkpt lat="44.24771" lon="3.52303">
        <ele>1122</ele>
        <time>2009-07-09T12:37:34Z</time>
      </trkpt>
      <trkpt lat="44.2487" lon="3.5235">
        <ele>1120</ele>
        <time>2009-07-09T12:37:47Z</time>
      </trkpt>
      <trkpt lat="44.24877" lon="3.52354">
        <ele>1119</ele>
        <time>2009-07-09T12:37:48Z</time>
      </trkpt>
      <trkpt lat="44.24905" lon="3.52352">
        <ele>1116</ele>
        <time>2009-07-09T12:37:52Z</time>
      </trkpt>
      <trkpt lat="44.2491" lon="3.52348">
        <ele>1117</ele>
        <time>2009-07-09T12:37:53Z</time>
      </trkpt>
      <trkpt lat="44.24938" lon="3.52325">
        <ele>1121</ele>
        <time>2009-07-09T12:37:59Z</time>
      </trkpt>
      <trkpt lat="44.24961" lon="3.52325">
        <ele>1123</ele>
        <time>2009-07-09T12:38:05Z</time>
      </trkpt>
      <trkpt lat="44.25004" lon="3.52333">
        <ele>1126</ele>
        <time>2009-07-09T12:38:17Z</time>
      </trkpt>
      <trkpt lat="44.25024" lon="3.52334">
        <ele>1128</ele>
        <time>2009-07-09T12:38:24Z</time>
      </trkpt>
      <trkpt lat="44.25057" lon="3.52322">
        <ele>1130</ele>
        <time>2009-07-09T12:38:37Z</time>
      </trkpt>
      <trkpt lat="44.25067" lon="3.5232">
        <ele>1130</ele>
        <time>2009-07-09T12:38:41Z</time>
      </trkpt>
      <trkpt lat="44.25092" lon="3.52322">
        <ele>1132</ele>
        <time>2009-07-09T12:38:56Z</time>
      </trkpt>
      <trkpt lat="44.25123" lon="3.5234">
        <ele>1131</ele>
        <time>2009-07-09T12:39:11Z</time>
      </trkpt>
      <trkpt lat="44.25161" lon="3.52367">
        <ele>1129</ele>
        <time>2009-07-09T12:39:27Z</time>
      </trkpt>
      <trkpt lat="44.25218" lon="3.524">
        <ele>1128</ele>
        <time>2009-07-09T12:39:39Z</time>
      </trkpt>
      <trkpt lat="44.25265" lon="3.52426">
        <ele>1128</ele>
        <time>2009-07-09T12:39:53Z</time>
      </trkpt>
      <trkpt lat="44.25278" lon="3.5244">
        <ele>1130</ele>
        <time>2009-07-09T12:39:58Z</time>
      </trkpt>
      <trkpt lat="44.25327" lon="3.52494">
        <ele>1131</ele>
        <time>2009-07-09T12:40:15Z</time>
      </trkpt>
      <trkpt lat="44.25372" lon="3.52533">
        <ele>1132</ele>
        <time>2009-07-09T12:40:30Z</time>
      </trkpt>
      <trkpt lat="44.2539" lon="3.52541">
        <ele>1129</ele>
        <time>2009-07-09T12:40:34Z</time>
      </trkpt>
      <trkpt lat="44.25395" lon="3.52544">
        <ele>1129</ele>
        <time>2009-07-09T12:40:35Z</time>
      </trkpt>
      <trkpt lat="44.25404" lon="3.52551">
        <ele>1129</ele>
        <time>2009-07-09T12:40:37Z</time>
      </trkpt>
      <trkpt lat="44.25429" lon="3.52582">
        <ele>1131</ele>
        <time>2009-07-09T12:40:45Z</time>
      </trkpt>
      <trkpt lat="44.2548" lon="3.5263">
        <ele>1132</ele>
        <time>2009-07-09T12:41:02Z</time>
      </trkpt>
      <trkpt lat="44.25499" lon="3.5264">
        <ele>1132</ele>
        <time>2009-07-09T12:41:08Z</time>
      </trkpt>
      <trkpt lat="44.25508" lon="3.52652">
        <ele>1131</ele>
        <time>2009-07-09T12:41:11Z</time>
      </trkpt>
      <trkpt lat="44.25512" lon="3.52656">
        <ele>1130</ele>
        <time>2009-07-09T12:41:12Z</time>
      </trkpt>
      <trkpt lat="44.25547" lon="3.5269">
        <ele>1128</ele>
        <time>2009-07-09T12:41:20Z</time>
      </trkpt>
      <trkpt lat="44.25559" lon="3.52709">
        <ele>1126</ele>
        <time>2009-07-09T12:41:23Z</time>
      </trkpt>
      <trkpt lat="44.25567" lon="3.52732">
        <ele>1125</ele>
        <time>2009-07-09T12:41:26Z</time>
      </trkpt>
      <trkpt lat="44.25576" lon="3.52774">
        <ele>1124</ele>
        <time>2009-07-09T12:41:31Z</time>
      </trkpt>
      <trkpt lat="44.2558" lon="3.52796">
        <ele>1125</ele>
        <time>2009-07-09T12:41:34Z</time>
      </trkpt>
      <trkpt lat="44.25584" lon="3.52809">
        <ele>1124</ele>
        <time>2009-07-09T12:41:38Z</time>
      </trkpt>
      <trkpt lat="44.256" lon="3.52804">
        <ele>1125</ele>
        <time>2009-07-09T12:41:47Z</time>
      </trkpt>
      <trkpt lat="44.256" lon="3.52802">
        <ele>1124</ele>
        <time>2009-07-09T12:42:27Z</time>
      </trkpt>
      <trkpt lat="44.25614" lon="3.52793">
        <ele>1123</ele>
        <time>2009-07-09T12:42:55Z</time>
      </trkpt>
      <trkpt lat="44.25626" lon="3.52781">
        <ele>1119</ele>
        <time>2009-07-09T12:42:58Z</time>
      </trkpt>
      <trkpt lat="44.25641" lon="3.52765">
        <ele>1116</ele>
        <time>2009-07-09T12:43:01Z</time>
      </trkpt>
      <trkpt lat="44.25662" lon="3.52752">
        <ele>1114</ele>
        <time>2009-07-09T12:43:04Z</time>
      </trkpt>
      <trkpt lat="44.25692" lon="3.52742">
        <ele>1112</ele>
        <time>2009-07-09T12:43:08Z</time>
      </trkpt>
      <trkpt lat="44.25714" lon="3.52741">
        <ele>1109</ele>
        <time>2009-07-09T12:43:11Z</time>
      </trkpt>
      <trkpt lat="44.25758" lon="3.52734">
        <ele>1109</ele>
        <time>2009-07-09T12:43:17Z</time>
      </trkpt>
      <trkpt lat="44.25817" lon="3.52732">
        <ele>1108</ele>
        <time>2009-07-09T12:43:26Z</time>
      </trkpt>
      <trkpt lat="44.25828" lon="3.52732">
        <ele>1109</ele>
        <time>2009-07-09T12:43:28Z</time>
      </trkpt>
      <trkpt lat="44.25839" lon="3.52734">
        <ele>1109</ele>
        <time>2009-07-09T12:43:30Z</time>
      </trkpt>
      <trkpt lat="44.25906" lon="3.52764">
        <ele>1108</ele>
        <time>2009-07-09T12:43:45Z</time>
      </trkpt>
      <trkpt lat="44.2591" lon="3.52764">
        <ele>1108</ele>
        <time>2009-07-09T12:43:46Z</time>
      </trkpt>
      <trkpt lat="44.25932" lon="3.5276">
        <ele>1107</ele>
        <time>2009-07-09T12:43:51Z</time>
      </trkpt>
      <trkpt lat="44.25963" lon="3.52758">
        <ele>1107</ele>
        <time>2009-07-09T12:43:58Z</time>
      </trkpt>
      <trkpt lat="44.25994" lon="3.52759">
        <ele>1103</ele>
        <time>2009-07-09T12:44:05Z</time>
      </trkpt>
      <trkpt lat="44.26021" lon="3.52754">
        <ele>1100</ele>
        <time>2009-07-09T12:44:10Z</time>
      </trkpt>
      <trkpt lat="44.26051" lon="3.52741">
        <ele>1098</ele>
        <time>2009-07-09T12:44:14Z</time>
      </trkpt>
      <trkpt lat="44.26091" lon="3.52741">
        <ele>1097</ele>
        <time>2009-07-09T12:44:19Z</time>
      </trkpt>
      <trkpt lat="44.26111" lon="3.52747">
        <ele>1096</ele>
        <time>2009-07-09T12:44:22Z</time>
      </trkpt>
      <trkpt lat="44.26136" lon="3.52766">
        <ele>1096</ele>
        <time>2009-07-09T12:44:27Z</time>
      </trkpt>
      <trkpt lat="44.26149" lon="3.52796">
        <ele>1096</ele>
        <time>2009-07-09T12:44:32Z</time>
      </trkpt>
      <trkpt lat="44.26218" lon="3.52886">
        <ele>1095</ele>
        <time>2009-07-09T12:44:50Z</time>
      </trkpt>
      <trkpt lat="44.26239" lon="3.52912">
        <ele>1093</ele>
        <time>2009-07-09T12:44:55Z</time>
      </trkpt>
      <trkpt lat="44.2626" lon="3.52929">
        <ele>1093</ele>
        <time>2009-07-09T12:44:59Z</time>
      </trkpt>
      <trkpt lat="44.26318" lon="3.52959">
        <ele>1090</ele>
        <time>2009-07-09T12:45:11Z</time>
      </trkpt>
      <trkpt lat="44.26347" lon="3.52983">
        <ele>1089</ele>
        <time>2009-07-09T12:45:17Z</time>
      </trkpt>
      <trkpt lat="44.26366" lon="3.5301">
        <ele>1090</ele>
        <time>2009-07-09T12:45:22Z</time>
      </trkpt>
      <trkpt lat="44.26408" lon="3.53056">
        <ele>1089</ele>
        <time>2009-07-09T12:45:32Z</time>
      </trkpt>
      <trkpt lat="44.26441" lon="3.53045">
        <ele>1087</ele>
        <time>2009-07-09T12:45:40Z</time>
      </trkpt>
      <trkpt lat="44.26453" lon="3.53031">
        <ele>1087</ele>
        <time>2009-07-09T12:45:43Z</time>
      </trkpt>
      <trkpt lat="44.26475" lon="3.53021">
        <ele>1087</ele>
        <time>2009-07-09T12:45:48Z</time>
      </trkpt>
      <trkpt lat="44.2651" lon="3.53027">
        <ele>1089</ele>
        <time>2009-07-09T12:46:00Z</time>
      </trkpt>
      <trkpt lat="44.26511" lon="3.53025">
        <ele>1087</ele>
        <time>2009-07-09T12:46:20Z</time>
      </trkpt>
      <trkpt lat="44.26511" lon="3.53026">
        <ele>1087</ele>
        <time>2009-07-09T12:47:23Z</time>
      </trkpt>
      <trkpt lat="44.2651" lon="3.53026">
        <ele>1088</ele>
        <time>2009-07-09T12:47:57Z</time>
      </trkpt>
      <trkpt lat="44.26525" lon="3.53038">
        <ele>1087</ele>
        <time>2009-07-09T12:48:09Z</time>
      </trkpt>
      <trkpt lat="44.26563" lon="3.53083">
        <ele>1087</ele>
        <time>2009-07-09T12:48:23Z</time>
      </trkpt>
      <trkpt lat="44.26618" lon="3.53143">
        <ele>1087</ele>
        <time>2009-07-09T12:48:41Z</time>
      </trkpt>
      <trkpt lat="44.26647" lon="3.53193">
        <ele>1089</ele>
        <time>2009-07-09T12:48:57Z</time>
      </trkpt>
      <trkpt lat="44.26654" lon="3.53212">
        <ele>1089</ele>
        <time>2009-07-09T12:49:04Z</time>
      </trkpt>
      <trkpt lat="44.26659" lon="3.53207">
        <ele>1090</ele>
        <time>2009-07-09T12:49:09Z</time>
      </trkpt>
      <trkpt lat="44.26669" lon="3.53129">
        <ele>1087</ele>
        <time>2009-07-09T12:49:25Z</time>
      </trkpt>
      <trkpt lat="44.26694" lon="3.53038">
        <ele>1088</ele>
        <time>2009-07-09T12:49:42Z</time>
      </trkpt>
      <trkpt lat="44.26701" lon="3.53">
        <ele>1090</ele>
        <time>2009-07-09T12:49:50Z</time>
      </trkpt>
      <trkpt lat="44.26713" lon="3.52931">
        <ele>1090</ele>
        <time>2009-07-09T12:50:07Z</time>
      </trkpt>
      <trkpt lat="44.26742" lon="3.52846">
        <ele>1091</ele>
        <time>2009-07-09T12:50:28Z</time>
      </trkpt>
      <trkpt lat="44.26772" lon="3.52752">
        <ele>1092</ele>
        <time>2009-07-09T12:50:48Z</time>
      </trkpt>
      <trkpt lat="44.268" lon="3.52663">
        <ele>1091</ele>
        <time>2009-07-09T12:51:05Z</time>
      </trkpt>
      <trkpt lat="44.26804" lon="3.52641">
        <ele>1093</ele>
        <time>2009-07-09T12:51:12Z</time>
      </trkpt>
      <trkpt lat="44.26812" lon="3.52639">
        <ele>1093</ele>
        <time>2009-07-09T12:51:29Z</time>
      </trkpt>
      <trkpt lat="44.26831" lon="3.52597">
        <ele>1094</ele>
        <time>2009-07-09T12:51:45Z</time>
      </trkpt>
      <trkpt lat="44.26858" lon="3.52528">
        <ele>1096</ele>
        <time>2009-07-09T12:52:04Z</time>
      </trkpt>
      <trkpt lat="44.26896" lon="3.52465">
        <ele>1098</ele>
        <time>2009-07-09T12:52:24Z</time>
      </trkpt>
      <trkpt lat="44.26898" lon="3.5245">
        <ele>1100</ele>
        <time>2009-07-09T12:52:28Z</time>
      </trkpt>
      <trkpt lat="44.26898" lon="3.52392">
        <ele>1101</ele>
        <time>2009-07-09T12:52:42Z</time>
      </trkpt>
      <trkpt lat="44.269" lon="3.52375">
        <ele>1101</ele>
        <time>2009-07-09T12:52:46Z</time>
      </trkpt>
      <trkpt lat="44.26899" lon="3.52314">
        <ele>1098</ele>
        <time>2009-07-09T12:52:59Z</time>
      </trkpt>
      <trkpt lat="44.26908" lon="3.52305">
        <ele>1098</ele>
        <time>2009-07-09T12:53:02Z</time>
      </trkpt>
      <trkpt lat="44.26917" lon="3.52272">
        <ele>1096</ele>
        <time>2009-07-09T12:53:09Z</time>
      </trkpt>
      <trkpt lat="44.26916" lon="3.52253">
        <ele>1094</ele>
        <time>2009-07-09T12:53:12Z</time>
      </trkpt>
      <trkpt lat="44.26912" lon="3.52225">
        <ele>1092</ele>
        <time>2009-07-09T12:53:16Z</time>
      </trkpt>
      <trkpt lat="44.26902" lon="3.5218">
        <ele>1088</ele>
        <time>2009-07-09T12:53:21Z</time>
      </trkpt>
      <trkpt lat="44.26898" lon="3.52159">
        <ele>1087</ele>
        <time>2009-07-09T12:53:23Z</time>
      </trkpt>
      <trkpt lat="44.26892" lon="3.52126">
        <ele>1084</ele>
        <time>2009-07-09T12:53:26Z</time>
      </trkpt>
      <trkpt lat="44.26888" lon="3.52102">
        <ele>1080</ele>
        <time>2009-07-09T12:53:28Z</time>
      </trkpt>
      <trkpt lat="44.2689" lon="3.5206">
        <ele>1077</ele>
        <time>2009-07-09T12:53:32Z</time>
      </trkpt>
      <trkpt lat="44.26909" lon="3.5207">
        <ele>1077</ele>
        <time>2009-07-09T12:53:36Z</time>
      </trkpt>
      <trkpt lat="44.26937" lon="3.52117">
        <ele>1077</ele>
        <time>2009-07-09T12:53:50Z</time>
      </trkpt>
      <trkpt lat="44.26943" lon="3.52128">
        <ele>1077</ele>
        <time>2009-07-09T12:54:02Z</time>
      </trkpt>
      <trkpt lat="44.26941" lon="3.52128">
        <ele>1078</ele>
        <time>2009-07-09T12:54:27Z</time>
      </trkpt>
      <trkpt lat="44.26939" lon="3.52128">
        <ele>1078</ele>
        <time>2009-07-09T12:54:39Z</time>
      </trkpt>
      <trkpt lat="44.26923" lon="3.52097">
        <ele>1078</ele>
        <time>2009-07-09T12:54:51Z</time>
      </trkpt>
      <trkpt lat="44.26903" lon="3.52066">
        <ele>1078</ele>
        <time>2009-07-09T12:55:04Z</time>
      </trkpt>
      <trkpt lat="44.26916" lon="3.52036">
        <ele>1077</ele>
        <time>2009-07-09T12:55:14Z</time>
      </trkpt>
      <trkpt lat="44.26931" lon="3.51988">
        <ele>1073</ele>
        <time>2009-07-09T12:55:24Z</time>
      </trkpt>
      <trkpt lat="44.26941" lon="3.51958">
        <ele>1071</ele>
        <time>2009-07-09T12:55:32Z</time>
      </trkpt>
      <trkpt lat="44.26943" lon="3.51955">
        <ele>1070</ele>
        <time>2009-07-09T12:55:33Z</time>
      </trkpt>
      <trkpt lat="44.26947" lon="3.51946">
        <ele>1069</ele>
        <time>2009-07-09T12:55:35Z</time>
      </trkpt>
      <trkpt lat="44.26956" lon="3.51922">
        <ele>1066</ele>
        <time>2009-07-09T12:55:39Z</time>
      </trkpt>
      <trkpt lat="44.26961" lon="3.51908">
        <ele>1065</ele>
        <time>2009-07-09T12:55:41Z</time>
      </trkpt>
      <trkpt lat="44.26967" lon="3.51863">
        <ele>1063</ele>
        <time>2009-07-09T12:55:48Z</time>
      </trkpt>
      <trkpt lat="44.26974" lon="3.51834">
        <ele>1059</ele>
        <time>2009-07-09T12:55:52Z</time>
      </trkpt>
      <trkpt lat="44.26978" lon="3.5182">
        <ele>1058</ele>
        <time>2009-07-09T12:55:54Z</time>
      </trkpt>
      <trkpt lat="44.26983" lon="3.51812">
        <ele>1060</ele>
        <time>2009-07-09T12:55:56Z</time>
      </trkpt>
      <trkpt lat="44.26987" lon="3.51799">
        <ele>1056</ele>
        <time>2009-07-09T12:55:59Z</time>
      </trkpt>
      <trkpt lat="44.27001" lon="3.51781">
        <ele>1056</ele>
        <time>2009-07-09T12:56:04Z</time>
      </trkpt>
      <trkpt lat="44.27034" lon="3.51769">
        <ele>1052</ele>
        <time>2009-07-09T12:56:16Z</time>
      </trkpt>
      <trkpt lat="44.27036" lon="3.51768">
        <ele>1052</ele>
        <time>2009-07-09T12:56:17Z</time>
      </trkpt>
      <trkpt lat="44.27072" lon="3.51761">
        <ele>1052</ele>
        <time>2009-07-09T12:56:30Z</time>
      </trkpt>
      <trkpt lat="44.27078" lon="3.51762">
        <ele>1052</ele>
        <time>2009-07-09T12:56:41Z</time>
      </trkpt>
      <trkpt lat="44.27078" lon="3.51761">
        <ele>1052</ele>
        <time>2009-07-09T12:56:42Z</time>
      </trkpt>
      <trkpt lat="44.27085" lon="3.51756">
        <ele>1053</ele>
        <time>2009-07-09T12:56:51Z</time>
      </trkpt>
      <trkpt lat="44.27099" lon="3.51766">
        <ele>1054</ele>
        <time>2009-07-09T12:57:06Z</time>
      </trkpt>
      <trkpt lat="44.27099" lon="3.51767">
        <ele>1053</ele>
        <time>2009-07-09T12:57:36Z</time>
      </trkpt>
      <trkpt lat="44.271" lon="3.51765">
        <ele>1054</ele>
        <time>2009-07-09T12:57:49Z</time>
      </trkpt>
      <trkpt lat="44.271" lon="3.51765">
        <ele>1054</ele>
        <time>2009-07-09T12:58:10Z</time>
      </trkpt>
      <trkpt lat="44.271" lon="3.51766">
        <ele>1054</ele>
        <time>2009-07-09T12:58:12Z</time>
      </trkpt>
      <trkpt lat="44.27102" lon="3.51775">
        <ele>1053</ele>
        <time>2009-07-09T12:58:16Z</time>
      </trkpt>
      <trkpt lat="44.27103" lon="3.51779">
        <ele>1053</ele>
        <time>2009-07-09T12:58:18Z</time>
      </trkpt>
      <trkpt lat="44.27109" lon="3.51801">
        <ele>1050</ele>
        <time>2009-07-09T12:58:26Z</time>
      </trkpt>
      <trkpt lat="44.2711" lon="3.51804">
        <ele>1050</ele>
        <time>2009-07-09T12:58:27Z</time>
      </trkpt>
      <trkpt lat="44.27117" lon="3.51813">
        <ele>1048</ele>
        <time>2009-07-09T12:58:31Z</time>
      </trkpt>
      <trkpt lat="44.27135" lon="3.51815">
        <ele>1046</ele>
        <time>2009-07-09T12:58:37Z</time>
      </trkpt>
      <trkpt lat="44.27147" lon="3.51815">
        <ele>1044</ele>
        <time>2009-07-09T12:58:40Z</time>
      </trkpt>
      <trkpt lat="44.27175" lon="3.51821">
        <ele>1041</ele>
        <time>2009-07-09T12:58:46Z</time>
      </trkpt>
      <trkpt lat="44.27184" lon="3.51825">
        <ele>1038</ele>
        <time>2009-07-09T12:58:48Z</time>
      </trkpt>
      <trkpt lat="44.27199" lon="3.51836">
        <ele>1036</ele>
        <time>2009-07-09T12:58:51Z</time>
      </trkpt>
      <trkpt lat="44.27243" lon="3.51861">
        <ele>1032</ele>
        <time>2009-07-09T12:58:58Z</time>
      </trkpt>
      <trkpt lat="44.2727" lon="3.51858">
        <ele>1031</ele>
        <time>2009-07-09T12:59:04Z</time>
      </trkpt>
      <trkpt lat="44.27274" lon="3.51857">
        <ele>1030</ele>
        <time>2009-07-09T12:59:05Z</time>
      </trkpt>
      <trkpt lat="44.27289" lon="3.51858">
        <ele>1030</ele>
        <time>2009-07-09T12:59:08Z</time>
      </trkpt>
      <trkpt lat="44.27306" lon="3.51867">
        <ele>1025</ele>
        <time>2009-07-09T12:59:11Z</time>
      </trkpt>
      <trkpt lat="44.2732" lon="3.51874">
        <ele>1025</ele>
        <time>2009-07-09T12:59:13Z</time>
      </trkpt>
      <trkpt lat="44.27372" lon="3.51904">
        <ele>1022</ele>
        <time>2009-07-09T12:59:20Z</time>
      </trkpt>
      <trkpt lat="44.27423" lon="3.51931">
        <ele>1023</ele>
        <time>2009-07-09T12:59:31Z</time>
      </trkpt>
      <trkpt lat="44.27472" lon="3.51925">
        <ele>1021</ele>
        <time>2009-07-09T12:59:45Z</time>
      </trkpt>
      <trkpt lat="44.27491" lon="3.51911">
        <ele>1020</ele>
        <time>2009-07-09T12:59:50Z</time>
      </trkpt>
      <trkpt lat="44.27511" lon="3.51896">
        <ele>1019</ele>
        <time>2009-07-09T12:59:55Z</time>
      </trkpt>
      <trkpt lat="44.2759" lon="3.51869">
        <ele>1016</ele>
        <time>2009-07-09T13:00:10Z</time>
      </trkpt>
      <trkpt lat="44.27596" lon="3.51867">
        <ele>1016</ele>
        <time>2009-07-09T13:00:11Z</time>
      </trkpt>
      <trkpt lat="44.27669" lon="3.51844">
        <ele>1008</ele>
        <time>2009-07-09T13:00:23Z</time>
      </trkpt>
      <trkpt lat="44.27675" lon="3.51843">
        <ele>1009</ele>
        <time>2009-07-09T13:00:24Z</time>
      </trkpt>
      <trkpt lat="44.27714" lon="3.51832">
        <ele>1005</ele>
        <time>2009-07-09T13:00:30Z</time>
      </trkpt>
      <trkpt lat="44.2775" lon="3.51809">
        <ele>1004</ele>
        <time>2009-07-09T13:00:36Z</time>
      </trkpt>
      <trkpt lat="44.27768" lon="3.51802">
        <ele>1003</ele>
        <time>2009-07-09T13:00:39Z</time>
      </trkpt>
      <trkpt lat="44.27846" lon="3.51792">
        <ele>1001</ele>
        <time>2009-07-09T13:00:51Z</time>
      </trkpt>
      <trkpt lat="44.27913" lon="3.51791">
        <ele>999</ele>
        <time>2009-07-09T13:01:02Z</time>
      </trkpt>
      <trkpt lat="44.27994" lon="3.51815">
        <ele>995</ele>
        <time>2009-07-09T13:01:16Z</time>
      </trkpt>
      <trkpt lat="44.28024" lon="3.51822">
        <ele>994</ele>
        <time>2009-07-09T13:01:21Z</time>
      </trkpt>
      <trkpt lat="44.28047" lon="3.51832">
        <ele>994</ele>
        <time>2009-07-09T13:01:25Z</time>
      </trkpt>
      <trkpt lat="44.28119" lon="3.51848">
        <ele>993</ele>
        <time>2009-07-09T13:01:38Z</time>
      </trkpt>
      <trkpt lat="44.28168" lon="3.51862">
        <ele>991</ele>
        <time>2009-07-09T13:01:47Z</time>
      </trkpt>
      <trkpt lat="44.28217" lon="3.51875">
        <ele>988</ele>
        <time>2009-07-09T13:01:56Z</time>
      </trkpt>
      <trkpt lat="44.28283" lon="3.51903">
        <ele>985</ele>
        <time>2009-07-09T13:02:07Z</time>
      </trkpt>
      <trkpt lat="44.28289" lon="3.51905">
        <ele>986</ele>
        <time>2009-07-09T13:02:08Z</time>
      </trkpt>
      <trkpt lat="44.28364" lon="3.51929">
        <ele>981</ele>
        <time>2009-07-09T13:02:18Z</time>
      </trkpt>
      <trkpt lat="44.28383" lon="3.51933">
        <ele>981</ele>
        <time>2009-07-09T13:02:20Z</time>
      </trkpt>
      <trkpt lat="44.28424" lon="3.51941">
        <ele>979</ele>
        <time>2009-07-09T13:02:24Z</time>
      </trkpt>
      <trkpt lat="44.28508" lon="3.51959">
        <ele>979</ele>
        <time>2009-07-09T13:02:33Z</time>
      </trkpt>
      <trkpt lat="44.28515" lon="3.51963">
        <ele>981</ele>
        <time>2009-07-09T13:02:41Z</time>
      </trkpt>
      <trkpt lat="44.28512" lon="3.51963">
        <ele>981</ele>
        <time>2009-07-09T13:03:16Z</time>
      </trkpt>
      <trkpt lat="44.28511" lon="3.51963">
        <ele>981</ele>
        <time>2009-07-09T13:03:50Z</time>
      </trkpt>
      <trkpt lat="44.28511" lon="3.51963">
        <ele>981</ele>
        <time>2009-07-09T13:03:52Z</time>
      </trkpt>
      <trkpt lat="44.28539" lon="3.51986">
        <ele>979</ele>
        <time>2009-07-09T13:04:05Z</time>
      </trkpt>
      <trkpt lat="44.2861" lon="3.51996">
        <ele>977</ele>
        <time>2009-07-09T13:04:21Z</time>
      </trkpt>
      <trkpt lat="44.28699" lon="3.52017">
        <ele>975</ele>
        <time>2009-07-09T13:04:38Z</time>
      </trkpt>
      <trkpt lat="44.28789" lon="3.52037">
        <ele>974</ele>
        <time>2009-07-09T13:04:55Z</time>
      </trkpt>
      <trkpt lat="44.28805" lon="3.52041">
        <ele>973</ele>
        <time>2009-07-09T13:04:58Z</time>
      </trkpt>
      <trkpt lat="44.28811" lon="3.52042">
        <ele>972</ele>
        <time>2009-07-09T13:04:59Z</time>
      </trkpt>
      <trkpt lat="44.28847" lon="3.52012">
        <ele>972</ele>
        <time>2009-07-09T13:05:07Z</time>
      </trkpt>
      <trkpt lat="44.28865" lon="3.51971">
        <ele>973</ele>
        <time>2009-07-09T13:05:13Z</time>
      </trkpt>
      <trkpt lat="44.28904" lon="3.51947">
        <ele>973</ele>
        <time>2009-07-09T13:05:22Z</time>
      </trkpt>
      <trkpt lat="44.29002" lon="3.51989">
        <ele>971</ele>
        <time>2009-07-09T13:05:41Z</time>
      </trkpt>
      <trkpt lat="44.29015" lon="3.51995">
        <ele>971</ele>
        <time>2009-07-09T13:05:44Z</time>
      </trkpt>
      <trkpt lat="44.29055" lon="3.52013">
        <ele>969</ele>
        <time>2009-07-09T13:05:52Z</time>
      </trkpt>
      <trkpt lat="44.29169" lon="3.52058">
        <ele>968</ele>
        <time>2009-07-09T13:06:13Z</time>
      </trkpt>
      <trkpt lat="44.2929" lon="3.52094">
        <ele>967</ele>
        <time>2009-07-09T13:06:34Z</time>
      </trkpt>
      <trkpt lat="44.29323" lon="3.52103">
        <ele>967</ele>
        <time>2009-07-09T13:06:40Z</time>
      </trkpt>
      <trkpt lat="44.29345" lon="3.52108">
        <ele>967</ele>
        <time>2009-07-09T13:06:44Z</time>
      </trkpt>
      <trkpt lat="44.29391" lon="3.52118">
        <ele>969</ele>
        <time>2009-07-09T13:06:53Z</time>
      </trkpt>
      <trkpt lat="44.29404" lon="3.52121">
        <ele>970</ele>
        <time>2009-07-09T13:06:56Z</time>
      </trkpt>
      <trkpt lat="44.29433" lon="3.52127">
        <ele>973</ele>
        <time>2009-07-09T13:07:03Z</time>
      </trkpt>
      <trkpt lat="44.29476" lon="3.52126">
        <ele>975</ele>
        <time>2009-07-09T13:07:13Z</time>
      </trkpt>
      <trkpt lat="44.29499" lon="3.52138">
        <ele>975</ele>
        <time>2009-07-09T13:07:19Z</time>
      </trkpt>
      <trkpt lat="44.2956" lon="3.52205">
        <ele>978</ele>
        <time>2009-07-09T13:07:37Z</time>
      </trkpt>
      <trkpt lat="44.29618" lon="3.52266">
        <ele>979</ele>
        <time>2009-07-09T13:07:54Z</time>
      </trkpt>
      <trkpt lat="44.29667" lon="3.52328">
        <ele>980</ele>
        <time>2009-07-09T13:08:09Z</time>
      </trkpt>
      <trkpt lat="44.29741" lon="3.5237">
        <ele>979</ele>
        <time>2009-07-09T13:08:25Z</time>
      </trkpt>
      <trkpt lat="44.29773" lon="3.52388">
        <ele>976</ele>
        <time>2009-07-09T13:08:31Z</time>
      </trkpt>
      <trkpt lat="44.29842" lon="3.52423">
        <ele>973</ele>
        <time>2009-07-09T13:08:44Z</time>
      </trkpt>
      <trkpt lat="44.29912" lon="3.5246">
        <ele>974</ele>
        <time>2009-07-09T13:09:00Z</time>
      </trkpt>
      <trkpt lat="44.29934" lon="3.52486">
        <ele>973</ele>
        <time>2009-07-09T13:09:07Z</time>
      </trkpt>
      <trkpt lat="44.29941" lon="3.52505">
        <ele>972</ele>
        <time>2009-07-09T13:09:10Z</time>
      </trkpt>
      <trkpt lat="44.29944" lon="3.52521">
        <ele>970</ele>
        <time>2009-07-09T13:09:12Z</time>
      </trkpt>
      <trkpt lat="44.29953" lon="3.52552">
        <ele>970</ele>
        <time>2009-07-09T13:09:16Z</time>
      </trkpt>
      <trkpt lat="44.2996" lon="3.52597">
        <ele>971</ele>
        <time>2009-07-09T13:09:22Z</time>
      </trkpt>
      <trkpt lat="44.29961" lon="3.52627">
        <ele>973</ele>
        <time>2009-07-09T13:09:27Z</time>
      </trkpt>
      <trkpt lat="44.29972" lon="3.52669">
        <ele>974</ele>
        <time>2009-07-09T13:09:37Z</time>
      </trkpt>
      <trkpt lat="44.29978" lon="3.52697">
        <ele>978</ele>
        <time>2009-07-09T13:09:46Z</time>
      </trkpt>
      <trkpt lat="44.29983" lon="3.52729">
        <ele>981</ele>
        <time>2009-07-09T13:09:56Z</time>
      </trkpt>
      <trkpt lat="44.29995" lon="3.52755">
        <ele>983</ele>
        <time>2009-07-09T13:10:05Z</time>
      </trkpt>
      <trkpt lat="44.30009" lon="3.52776">
        <ele>982</ele>
        <time>2009-07-09T13:10:18Z</time>
      </trkpt>
      <trkpt lat="44.30008" lon="3.52787">
        <ele>983</ele>
        <time>2009-07-09T13:10:29Z</time>
      </trkpt>
      <trkpt lat="44.30007" lon="3.52786">
        <ele>983</ele>
        <time>2009-07-09T13:10:56Z</time>
      </trkpt>
      <trkpt lat="44.30005" lon="3.52798">
        <ele>982</ele>
        <time>2009-07-09T13:11:27Z</time>
      </trkpt>
      <trkpt lat="44.29997" lon="3.52815">
        <ele>984</ele>
        <time>2009-07-09T13:11:35Z</time>
      </trkpt>
      <trkpt lat="44.29993" lon="3.52824">
        <ele>985</ele>
        <time>2009-07-09T13:11:39Z</time>
      </trkpt>
      <trkpt lat="44.29987" lon="3.52834">
        <ele>985</ele>
        <time>2009-07-09T13:11:51Z</time>
      </trkpt>
      <trkpt lat="44.29989" lon="3.52836">
        <ele>985</ele>
        <time>2009-07-09T13:12:26Z</time>
      </trkpt>
      <trkpt lat="44.29986" lon="3.52843">
        <ele>985</ele>
        <time>2009-07-09T13:12:30Z</time>
      </trkpt>
      <trkpt lat="44.29971" lon="3.52877">
        <ele>983</ele>
        <time>2009-07-09T13:12:43Z</time>
      </trkpt>
      <trkpt lat="44.29955" lon="3.52904">
        <ele>983</ele>
        <time>2009-07-09T13:12:55Z</time>
      </trkpt>
      <trkpt lat="44.29938" lon="3.52938">
        <ele>985</ele>
        <time>2009-07-09T13:13:08Z</time>
      </trkpt>
      <trkpt lat="44.29931" lon="3.53014">
        <ele>987</ele>
        <time>2009-07-09T13:13:27Z</time>
      </trkpt>
      <trkpt lat="44.29934" lon="3.53086">
        <ele>987</ele>
        <time>2009-07-09T13:13:44Z</time>
      </trkpt>
      <trkpt lat="44.29937" lon="3.5311">
        <ele>985</ele>
        <time>2009-07-09T13:13:47Z</time>
      </trkpt>
      <trkpt lat="44.29937" lon="3.53119">
        <ele>985</ele>
        <time>2009-07-09T13:13:48Z</time>
      </trkpt>
      <trkpt lat="44.29929" lon="3.53158">
        <ele>984</ele>
        <time>2009-07-09T13:13:52Z</time>
      </trkpt>
      <trkpt lat="44.29931" lon="3.53247">
        <ele>980</ele>
        <time>2009-07-09T13:14:00Z</time>
      </trkpt>
      <trkpt lat="44.29987" lon="3.53384">
        <ele>979</ele>
        <time>2009-07-09T13:14:15Z</time>
      </trkpt>
      <trkpt lat="44.30021" lon="3.53434">
        <ele>982</ele>
        <time>2009-07-09T13:14:25Z</time>
      </trkpt>
      <trkpt lat="44.30023" lon="3.53437">
        <ele>982</ele>
        <time>2009-07-09T13:14:26Z</time>
      </trkpt>
      <trkpt lat="44.30042" lon="3.5346">
        <ele>982</ele>
        <time>2009-07-09T13:14:34Z</time>
      </trkpt>
      <trkpt lat="44.30047" lon="3.53471">
        <ele>980</ele>
        <time>2009-07-09T13:14:36Z</time>
      </trkpt>
      <trkpt lat="44.30061" lon="3.53518">
        <ele>980</ele>
        <time>2009-07-09T13:14:43Z</time>
      </trkpt>
      <trkpt lat="44.30087" lon="3.53697">
        <ele>978</ele>
        <time>2009-07-09T13:15:06Z</time>
      </trkpt>
      <trkpt lat="44.30091" lon="3.53753">
        <ele>979</ele>
        <time>2009-07-09T13:15:13Z</time>
      </trkpt>
      <trkpt lat="44.3008" lon="3.53853">
        <ele>978</ele>
        <time>2009-07-09T13:15:25Z</time>
      </trkpt>
      <trkpt lat="44.30069" lon="3.53891">
        <ele>978</ele>
        <time>2009-07-09T13:15:30Z</time>
      </trkpt>
      <trkpt lat="44.3008" lon="3.5394">
        <ele>978</ele>
        <time>2009-07-09T13:15:37Z</time>
      </trkpt>
      <trkpt lat="44.30166" lon="3.54035">
        <ele>979</ele>
        <time>2009-07-09T13:15:56Z</time>
      </trkpt>
      <trkpt lat="44.30225" lon="3.54137">
        <ele>980</ele>
        <time>2009-07-09T13:16:16Z</time>
      </trkpt>
      <trkpt lat="44.30253" lon="3.54191">
        <ele>983</ele>
        <time>2009-07-09T13:16:27Z</time>
      </trkpt>
      <trkpt lat="44.30263" lon="3.54211">
        <ele>984</ele>
        <time>2009-07-09T13:16:31Z</time>
      </trkpt>
      <trkpt lat="44.30264" lon="3.54244">
        <ele>986</ele>
        <time>2009-07-09T13:16:37Z</time>
      </trkpt>
      <trkpt lat="44.30238" lon="3.54322">
        <ele>990</ele>
        <time>2009-07-09T13:16:55Z</time>
      </trkpt>
      <trkpt lat="44.30216" lon="3.54359">
        <ele>990</ele>
        <time>2009-07-09T13:17:07Z</time>
      </trkpt>
      <trkpt lat="44.30205" lon="3.54413">
        <ele>991</ele>
        <time>2009-07-09T13:17:19Z</time>
      </trkpt>
      <trkpt lat="44.30196" lon="3.54501">
        <ele>993</ele>
        <time>2009-07-09T13:17:37Z</time>
      </trkpt>
      <trkpt lat="44.30187" lon="3.54577">
        <ele>993</ele>
        <time>2009-07-09T13:17:53Z</time>
      </trkpt>
      <trkpt lat="44.30193" lon="3.54605">
        <ele>995</ele>
        <time>2009-07-09T13:17:59Z</time>
      </trkpt>
      <trkpt lat="44.3022" lon="3.54654">
        <ele>998</ele>
        <time>2009-07-09T13:18:14Z</time>
      </trkpt>
      <trkpt lat="44.30223" lon="3.54659">
        <ele>998</ele>
        <time>2009-07-09T13:18:28Z</time>
      </trkpt>
      <trkpt lat="44.30246" lon="3.54688">
        <ele>999</ele>
        <time>2009-07-09T13:18:42Z</time>
      </trkpt>
      <trkpt lat="44.30252" lon="3.54699">
        <ele>999</ele>
        <time>2009-07-09T13:18:48Z</time>
      </trkpt>
      <trkpt lat="44.30258" lon="3.547">
        <ele>1000</ele>
        <time>2009-07-09T13:18:52Z</time>
      </trkpt>
      <trkpt lat="44.30278" lon="3.54701">
        <ele>1001</ele>
        <time>2009-07-09T13:19:00Z</time>
      </trkpt>
      <trkpt lat="44.30296" lon="3.54725">
        <ele>1002</ele>
        <time>2009-07-09T13:19:14Z</time>
      </trkpt>
      <trkpt lat="44.30292" lon="3.5473">
        <ele>1003</ele>
        <time>2009-07-09T13:19:17Z</time>
      </trkpt>
      <trkpt lat="44.30284" lon="3.54733">
        <ele>1003</ele>
        <time>2009-07-09T13:19:21Z</time>
      </trkpt>
      <trkpt lat="44.30264" lon="3.54746">
        <ele>1006</ele>
        <time>2009-07-09T13:19:31Z</time>
      </trkpt>
      <trkpt lat="44.30266" lon="3.54752">
        <ele>1005</ele>
        <time>2009-07-09T13:19:35Z</time>
      </trkpt>
      <trkpt lat="44.30307" lon="3.54779">
        <ele>1004</ele>
        <time>2009-07-09T13:19:51Z</time>
      </trkpt>
      <trkpt lat="44.30332" lon="3.54784">
        <ele>1007</ele>
        <time>2009-07-09T13:20:01Z</time>
      </trkpt>
      <trkpt lat="44.3037" lon="3.54796">
        <ele>1008</ele>
        <time>2009-07-09T13:20:14Z</time>
      </trkpt>
      <trkpt lat="44.30411" lon="3.54776">
        <ele>1007</ele>
        <time>2009-07-09T13:20:27Z</time>
      </trkpt>
      <trkpt lat="44.30424" lon="3.54772">
        <ele>1009</ele>
        <time>2009-07-09T13:20:31Z</time>
      </trkpt>
      <trkpt lat="44.30479" lon="3.54759">
        <ele>1010</ele>
        <time>2009-07-09T13:20:47Z</time>
      </trkpt>
      <trkpt lat="44.30487" lon="3.54762">
        <ele>1010</ele>
        <time>2009-07-09T13:20:49Z</time>
      </trkpt>
      <trkpt lat="44.30503" lon="3.54771">
        <ele>1009</ele>
        <time>2009-07-09T13:20:53Z</time>
      </trkpt>
      <trkpt lat="44.30534" lon="3.54798">
        <ele>1008</ele>
        <time>2009-07-09T13:21:04Z</time>
      </trkpt>
      <trkpt lat="44.30541" lon="3.54827">
        <ele>1007</ele>
        <time>2009-07-09T13:21:09Z</time>
      </trkpt>
      <trkpt lat="44.30544" lon="3.54849">
        <ele>1005</ele>
        <time>2009-07-09T13:21:12Z</time>
      </trkpt>
      <trkpt lat="44.30558" lon="3.54885">
        <ele>1003</ele>
        <time>2009-07-09T13:21:17Z</time>
      </trkpt>
      <trkpt lat="44.30593" lon="3.54924">
        <ele>1001</ele>
        <time>2009-07-09T13:21:25Z</time>
      </trkpt>
      <trkpt lat="44.30612" lon="3.54966">
        <ele>1000</ele>
        <time>2009-07-09T13:21:31Z</time>
      </trkpt>
      <trkpt lat="44.30624" lon="3.54985">
        <ele>998</ele>
        <time>2009-07-09T13:21:34Z</time>
      </trkpt>
      <trkpt lat="44.30652" lon="3.54998">
        <ele>998</ele>
        <time>2009-07-09T13:21:40Z</time>
      </trkpt>
      <trkpt lat="44.30672" lon="3.54997">
        <ele>997</ele>
        <time>2009-07-09T13:21:44Z</time>
      </trkpt>
      <trkpt lat="44.30691" lon="3.55005">
        <ele>996</ele>
        <time>2009-07-09T13:21:48Z</time>
      </trkpt>
      <trkpt lat="44.30704" lon="3.55025">
        <ele>994</ele>
        <time>2009-07-09T13:21:51Z</time>
      </trkpt>
      <trkpt lat="44.30736" lon="3.55041">
        <ele>993</ele>
        <time>2009-07-09T13:21:56Z</time>
      </trkpt>
      <trkpt lat="44.30793" lon="3.55054">
        <ele>989</ele>
        <time>2009-07-09T13:22:05Z</time>
      </trkpt>
      <trkpt lat="44.308" lon="3.55057">
        <ele>988</ele>
        <time>2009-07-09T13:22:06Z</time>
      </trkpt>
      <trkpt lat="44.30821" lon="3.55072">
        <ele>985</ele>
        <time>2009-07-09T13:22:09Z</time>
      </trkpt>
      <trkpt lat="44.3084" lon="3.55086">
        <ele>985</ele>
        <time>2009-07-09T13:22:16Z</time>
      </trkpt>
      <trkpt lat="44.3084" lon="3.55088">
        <ele>984</ele>
        <time>2009-07-09T13:22:25Z</time>
      </trkpt>
      <trkpt lat="44.30843" lon="3.55086">
        <ele>983</ele>
        <time>2009-07-09T13:22:36Z</time>
      </trkpt>
      <trkpt lat="44.30842" lon="3.55085">
        <ele>984</ele>
        <time>2009-07-09T13:23:52Z</time>
      </trkpt>
      <trkpt lat="44.30873" lon="3.55125">
        <ele>982</ele>
        <time>2009-07-09T13:24:08Z</time>
      </trkpt>
      <trkpt lat="44.30922" lon="3.55158">
        <ele>981</ele>
        <time>2009-07-09T13:24:22Z</time>
      </trkpt>
      <trkpt lat="44.30974" lon="3.55193">
        <ele>981</ele>
        <time>2009-07-09T13:24:37Z</time>
      </trkpt>
      <trkpt lat="44.30987" lon="3.552">
        <ele>983</ele>
        <time>2009-07-09T13:24:41Z</time>
      </trkpt>
      <trkpt lat="44.3102" lon="3.55257">
        <ele>982</ele>
        <time>2009-07-09T13:24:56Z</time>
      </trkpt>
      <trkpt lat="44.31068" lon="3.55314">
        <ele>984</ele>
        <time>2009-07-09T13:25:15Z</time>
      </trkpt>
      <trkpt lat="44.31085" lon="3.55329">
        <ele>987</ele>
        <time>2009-07-09T13:25:22Z</time>
      </trkpt>
      <trkpt lat="44.31106" lon="3.5535">
        <ele>990</ele>
        <time>2009-07-09T13:25:34Z</time>
      </trkpt>
      <trkpt lat="44.31128" lon="3.55382">
        <ele>992</ele>
        <time>2009-07-09T13:25:48Z</time>
      </trkpt>
      <trkpt lat="44.31158" lon="3.55415">
        <ele>991</ele>
        <time>2009-07-09T13:26:02Z</time>
      </trkpt>
      <trkpt lat="44.31193" lon="3.55469">
        <ele>991</ele>
        <time>2009-07-09T13:26:18Z</time>
      </trkpt>
      <trkpt lat="44.31233" lon="3.55495">
        <ele>992</ele>
        <time>2009-07-09T13:26:31Z</time>
      </trkpt>
      <trkpt lat="44.31252" lon="3.55527">
        <ele>994</ele>
        <time>2009-07-09T13:26:43Z</time>
      </trkpt>
      <trkpt lat="44.31276" lon="3.55579">
        <ele>995</ele>
        <time>2009-07-09T13:26:58Z</time>
      </trkpt>
      <trkpt lat="44.31316" lon="3.55648">
        <ele>996</ele>
        <time>2009-07-09T13:27:17Z</time>
      </trkpt>
      <trkpt lat="44.31349" lon="3.55716">
        <ele>996</ele>
        <time>2009-07-09T13:27:33Z</time>
      </trkpt>
      <trkpt lat="44.31398" lon="3.5576">
        <ele>997</ele>
        <time>2009-07-09T13:27:48Z</time>
      </trkpt>
      <trkpt lat="44.31446" lon="3.55819">
        <ele>997</ele>
        <time>2009-07-09T13:28:04Z</time>
      </trkpt>
      <trkpt lat="44.31482" lon="3.55876">
        <ele>998</ele>
        <time>2009-07-09T13:28:18Z</time>
      </trkpt>
      <trkpt lat="44.31494" lon="3.55901">
        <ele>998</ele>
        <time>2009-07-09T13:28:23Z</time>
      </trkpt>
      <trkpt lat="44.31528" lon="3.55952">
        <ele>1000</ele>
        <time>2009-07-09T13:28:37Z</time>
      </trkpt>
      <trkpt lat="44.31563" lon="3.55996">
        <ele>1001</ele>
        <time>2009-07-09T13:28:49Z</time>
      </trkpt>
      <trkpt lat="44.31629" lon="3.56031">
        <ele>1005</ele>
        <time>2009-07-09T13:29:06Z</time>
      </trkpt>
      <trkpt lat="44.3168" lon="3.56056">
        <ele>1005</ele>
        <time>2009-07-09T13:29:19Z</time>
      </trkpt>
      <trkpt lat="44.31759" lon="3.56125">
        <ele>1006</ele>
        <time>2009-07-09T13:29:40Z</time>
      </trkpt>
      <trkpt lat="44.31827" lon="3.56157">
        <ele>1008</ele>
        <time>2009-07-09T13:29:55Z</time>
      </trkpt>
      <trkpt lat="44.31895" lon="3.56189">
        <ele>1008</ele>
        <time>2009-07-09T13:30:12Z</time>
      </trkpt>
      <trkpt lat="44.31899" lon="3.5619">
        <ele>1008</ele>
        <time>2009-07-09T13:30:13Z</time>
      </trkpt>
      <trkpt lat="44.31915" lon="3.56196">
        <ele>1008</ele>
        <time>2009-07-09T13:30:17Z</time>
      </trkpt>
      <trkpt lat="44.31938" lon="3.56198">
        <ele>1007</ele>
        <time>2009-07-09T13:30:22Z</time>
      </trkpt>
      <trkpt lat="44.32032" lon="3.56223">
        <ele>1008</ele>
        <time>2009-07-09T13:30:42Z</time>
      </trkpt>
      <trkpt lat="44.32117" lon="3.56251">
        <ele>1010</ele>
        <time>2009-07-09T13:31:00Z</time>
      </trkpt>
      <trkpt lat="44.32162" lon="3.56272">
        <ele>1010</ele>
        <time>2009-07-09T13:31:10Z</time>
      </trkpt>
      <trkpt lat="44.32226" lon="3.56346">
        <ele>1009</ele>
        <time>2009-07-09T13:31:28Z</time>
      </trkpt>
      <trkpt lat="44.32282" lon="3.5641">
        <ele>1013</ele>
        <time>2009-07-09T13:31:44Z</time>
      </trkpt>
      <trkpt lat="44.323" lon="3.56456">
        <ele>1016</ele>
        <time>2009-07-09T13:31:57Z</time>
      </trkpt>
      <trkpt lat="44.32306" lon="3.56503">
        <ele>1018</ele>
        <time>2009-07-09T13:32:11Z</time>
      </trkpt>
      <trkpt lat="44.32307" lon="3.56577">
        <ele>1021</ele>
        <time>2009-07-09T13:32:30Z</time>
      </trkpt>
      <trkpt lat="44.32305" lon="3.56575">
        <ele>1021</ele>
        <time>2009-07-09T13:32:42Z</time>
      </trkpt>
      <trkpt lat="44.32304" lon="3.56562">
        <ele>1022</ele>
        <time>2009-07-09T13:32:54Z</time>
      </trkpt>
      <trkpt lat="44.32306" lon="3.56559">
        <ele>1019</ele>
        <time>2009-07-09T13:33:12Z</time>
      </trkpt>
      <trkpt lat="44.32305" lon="3.56557">
        <ele>1020</ele>
        <time>2009-07-09T13:33:43Z</time>
      </trkpt>
      <trkpt lat="44.32306" lon="3.5656">
        <ele>1020</ele>
        <time>2009-07-09T13:34:03Z</time>
      </trkpt>
      <trkpt lat="44.32306" lon="3.56561">
        <ele>1021</ele>
        <time>2009-07-09T13:34:24Z</time>
      </trkpt>
      <trkpt lat="44.32309" lon="3.56601">
        <ele>1021</ele>
        <time>2009-07-09T13:34:34Z</time>
      </trkpt>
      <trkpt lat="44.32331" lon="3.56681">
        <ele>1022</ele>
        <time>2009-07-09T13:34:51Z</time>
      </trkpt>
      <trkpt lat="44.32356" lon="3.56719">
        <ele>1025</ele>
        <time>2009-07-09T13:35:04Z</time>
      </trkpt>
      <trkpt lat="44.32373" lon="3.56763">
        <ele>1024</ele>
        <time>2009-07-09T13:35:17Z</time>
      </trkpt>
      <trkpt lat="44.32387" lon="3.56828">
        <ele>1024</ele>
        <time>2009-07-09T13:35:33Z</time>
      </trkpt>
      <trkpt lat="44.32409" lon="3.56903">
        <ele>1025</ele>
        <time>2009-07-09T13:35:50Z</time>
      </trkpt>
      <trkpt lat="44.32433" lon="3.56989">
        <ele>1026</ele>
        <time>2009-07-09T13:36:09Z</time>
      </trkpt>
      <trkpt lat="44.32458" lon="3.57026">
        <ele>1028</ele>
        <time>2009-07-09T13:36:22Z</time>
      </trkpt>
      <trkpt lat="44.32504" lon="3.57042">
        <ele>1030</ele>
        <time>2009-07-09T13:36:40Z</time>
      </trkpt>
      <trkpt lat="44.32542" lon="3.57017">
        <ele>1030</ele>
        <time>2009-07-09T13:36:54Z</time>
      </trkpt>
      <trkpt lat="44.32608" lon="3.56947">
        <ele>1031</ele>
        <time>2009-07-09T13:37:16Z</time>
      </trkpt>
      <trkpt lat="44.32679" lon="3.56875">
        <ele>1031</ele>
        <time>2009-07-09T13:37:38Z</time>
      </trkpt>
      <trkpt lat="44.32735" lon="3.56817">
        <ele>1032</ele>
        <time>2009-07-09T13:37:59Z</time>
      </trkpt>
      <trkpt lat="44.32743" lon="3.56816">
        <ele>1033</ele>
        <time>2009-07-09T13:38:09Z</time>
      </trkpt>
      <trkpt lat="44.32748" lon="3.56816">
        <ele>1033</ele>
        <time>2009-07-09T13:38:19Z</time>
      </trkpt>
      <trkpt lat="44.32747" lon="3.56816">
        <ele>1033</ele>
        <time>2009-07-09T13:38:39Z</time>
      </trkpt>
      <trkpt lat="44.32753" lon="3.56812">
        <ele>1032</ele>
        <time>2009-07-09T13:38:55Z</time>
      </trkpt>
      <trkpt lat="44.32754" lon="3.56811">
        <ele>1033</ele>
        <time>2009-07-09T13:39:34Z</time>
      </trkpt>
      <trkpt lat="44.32751" lon="3.56815">
        <ele>1034</ele>
        <time>2009-07-09T13:39:40Z</time>
      </trkpt>
      <trkpt lat="44.3275" lon="3.56825">
        <ele>1034</ele>
        <time>2009-07-09T13:39:44Z</time>
      </trkpt>
      <trkpt lat="44.32754" lon="3.56875">
        <ele>1037</ele>
        <time>2009-07-09T13:40:02Z</time>
      </trkpt>
      <trkpt lat="44.32755" lon="3.56882">
        <ele>1039</ele>
        <time>2009-07-09T13:40:05Z</time>
      </trkpt>
      <trkpt lat="44.32757" lon="3.56903">
        <ele>1042</ele>
        <time>2009-07-09T13:40:14Z</time>
      </trkpt>
      <trkpt lat="44.32757" lon="3.56912">
        <ele>1044</ele>
        <time>2009-07-09T13:40:18Z</time>
      </trkpt>
      <trkpt lat="44.32756" lon="3.56948">
        <ele>1047</ele>
        <time>2009-07-09T13:40:33Z</time>
      </trkpt>
      <trkpt lat="44.32756" lon="3.56984">
        <ele>1050</ele>
        <time>2009-07-09T13:40:49Z</time>
      </trkpt>
      <trkpt lat="44.32756" lon="3.57002">
        <ele>1054</ele>
        <time>2009-07-09T13:40:57Z</time>
      </trkpt>
      <trkpt lat="44.32756" lon="3.57009">
        <ele>1055</ele>
        <time>2009-07-09T13:41:00Z</time>
      </trkpt>
      <trkpt lat="44.32755" lon="3.5704">
        <ele>1058</ele>
        <time>2009-07-09T13:41:13Z</time>
      </trkpt>
      <trkpt lat="44.32755" lon="3.57052">
        <ele>1060</ele>
        <time>2009-07-09T13:41:18Z</time>
      </trkpt>
      <trkpt lat="44.32752" lon="3.5709">
        <ele>1064</ele>
        <time>2009-07-09T13:41:34Z</time>
      </trkpt>
      <trkpt lat="44.32746" lon="3.57115">
        <ele>1067</ele>
        <time>2009-07-09T13:41:44Z</time>
      </trkpt>
      <trkpt lat="44.32739" lon="3.57138">
        <ele>1070</ele>
        <time>2009-07-09T13:41:53Z</time>
      </trkpt>
      <trkpt lat="44.32727" lon="3.57162">
        <ele>1072</ele>
        <time>2009-07-09T13:42:03Z</time>
      </trkpt>
      <trkpt lat="44.32708" lon="3.57192">
        <ele>1072</ele>
        <time>2009-07-09T13:42:18Z</time>
      </trkpt>
      <trkpt lat="44.32708" lon="3.57192">
        <ele>1070</ele>
        <time>2009-07-09T13:42:21Z</time>
      </trkpt>
      <trkpt lat="44.32708" lon="3.57189">
        <ele>1073</ele>
        <time>2009-07-09T13:45:54Z</time>
      </trkpt>
      <trkpt lat="44.32708" lon="3.57189">
        <ele>1074</ele>
        <time>2009-07-09T13:45:56Z</time>
      </trkpt>
      <trkpt lat="44.32706" lon="3.57188">
        <ele>1072</ele>
        <time>2009-07-09T13:45:59Z</time>
      </trkpt>
      <trkpt lat="44.32701" lon="3.5719">
        <ele>1074</ele>
        <time>2009-07-09T13:46:13Z</time>
      </trkpt>
      <trkpt lat="44.32699" lon="3.57191">
        <ele>1075</ele>
        <time>2009-07-09T13:46:27Z</time>
      </trkpt>
      <trkpt lat="44.32693" lon="3.57194">
        <ele>1075</ele>
        <time>2009-07-09T13:46:31Z</time>
      </trkpt>
      <trkpt lat="44.3268" lon="3.57195">
        <ele>1071</ele>
        <time>2009-07-09T13:46:36Z</time>
      </trkpt>
      <trkpt lat="44.32677" lon="3.57196">
        <ele>1071</ele>
        <time>2009-07-09T13:46:49Z</time>
      </trkpt>
      <trkpt lat="44.32677" lon="3.57195">
        <ele>1073</ele>
        <time>2009-07-09T13:47:22Z</time>
      </trkpt>
      <trkpt lat="44.32675" lon="3.57196">
        <ele>1072</ele>
        <time>2009-07-09T13:47:50Z</time>
      </trkpt>
      <trkpt lat="44.32674" lon="3.57196">
        <ele>1071</ele>
        <time>2009-07-09T13:48:22Z</time>
      </trkpt>
      <trkpt lat="44.32668" lon="3.57209">
        <ele>1074</ele>
        <time>2009-07-09T13:48:35Z</time>
      </trkpt>
      <trkpt lat="44.32661" lon="3.57219">
        <ele>1072</ele>
        <time>2009-07-09T13:48:39Z</time>
      </trkpt>
      <trkpt lat="44.32653" lon="3.5723">
        <ele>1070</ele>
        <time>2009-07-09T13:48:43Z</time>
      </trkpt>
      <trkpt lat="44.32629" lon="3.57253">
        <ele>1071</ele>
        <time>2009-07-09T13:48:55Z</time>
      </trkpt>
      <trkpt lat="44.32594" lon="3.57285">
        <ele>1071</ele>
        <time>2009-07-09T13:49:11Z</time>
      </trkpt>
      <trkpt lat="44.32589" lon="3.57288">
        <ele>1070</ele>
        <time>2009-07-09T13:49:13Z</time>
      </trkpt>
      <trkpt lat="44.32584" lon="3.57291">
        <ele>1069</ele>
        <time>2009-07-09T13:49:15Z</time>
      </trkpt>
      <trkpt lat="44.3258" lon="3.57289">
        <ele>1067</ele>
        <time>2009-07-09T13:49:18Z</time>
      </trkpt>
      <trkpt lat="44.32578" lon="3.5729">
        <ele>1067</ele>
        <time>2009-07-09T13:49:19Z</time>
      </trkpt>
      <trkpt lat="44.3257" lon="3.57291">
        <ele>1068</ele>
        <time>2009-07-09T13:49:24Z</time>
      </trkpt>
      <trkpt lat="44.32566" lon="3.57293">
        <ele>1066</ele>
        <time>2009-07-09T13:49:26Z</time>
      </trkpt>
      <trkpt lat="44.32541" lon="3.57319">
        <ele>1066</ele>
        <time>2009-07-09T13:49:39Z</time>
      </trkpt>
      <trkpt lat="44.32514" lon="3.57344">
        <ele>1066</ele>
        <time>2009-07-09T13:49:53Z</time>
      </trkpt>
      <trkpt lat="44.325" lon="3.57369">
        <ele>1067</ele>
        <time>2009-07-09T13:50:04Z</time>
      </trkpt>
      <trkpt lat="44.32491" lon="3.57378">
        <ele>1066</ele>
        <time>2009-07-09T13:50:09Z</time>
      </trkpt>
      <trkpt lat="44.32478" lon="3.57403">
        <ele>1067</ele>
        <time>2009-07-09T13:50:20Z</time>
      </trkpt>
      <trkpt lat="44.32477" lon="3.57405">
        <ele>1066</ele>
        <time>2009-07-09T13:50:21Z</time>
      </trkpt>
      <trkpt lat="44.32452" lon="3.5744">
        <ele>1069</ele>
        <time>2009-07-09T13:50:38Z</time>
      </trkpt>
      <trkpt lat="44.32419" lon="3.57468">
        <ele>1068</ele>
        <time>2009-07-09T13:50:54Z</time>
      </trkpt>
      <trkpt lat="44.32412" lon="3.57469">
        <ele>1068</ele>
        <time>2009-07-09T13:50:57Z</time>
      </trkpt>
      <trkpt lat="44.32389" lon="3.57488">
        <ele>1064</ele>
        <time>2009-07-09T13:51:06Z</time>
      </trkpt>
      <trkpt lat="44.32385" lon="3.5749">
        <ele>1065</ele>
        <time>2009-07-09T13:51:07Z</time>
      </trkpt>
      <trkpt lat="44.32381" lon="3.57492">
        <ele>1064</ele>
        <time>2009-07-09T13:51:08Z</time>
      </trkpt>
      <trkpt lat="44.32366" lon="3.57502">
        <ele>1063</ele>
        <time>2009-07-09T13:51:12Z</time>
      </trkpt>
      <trkpt lat="44.32338" lon="3.57517">
        <ele>1061</ele>
        <time>2009-07-09T13:51:18Z</time>
      </trkpt>
      <trkpt lat="44.32299" lon="3.57577">
        <ele>1059</ele>
        <time>2009-07-09T13:51:32Z</time>
      </trkpt>
      <trkpt lat="44.32291" lon="3.57593">
        <ele>1057</ele>
        <time>2009-07-09T13:51:35Z</time>
      </trkpt>
      <trkpt lat="44.32285" lon="3.57605">
        <ele>1057</ele>
        <time>2009-07-09T13:51:37Z</time>
      </trkpt>
      <trkpt lat="44.32276" lon="3.57632">
        <ele>1054</ele>
        <time>2009-07-09T13:51:41Z</time>
      </trkpt>
      <trkpt lat="44.32266" lon="3.57655">
        <ele>1052</ele>
        <time>2009-07-09T13:51:45Z</time>
      </trkpt>
      <trkpt lat="44.32253" lon="3.57678">
        <ele>1049</ele>
        <time>2009-07-09T13:51:49Z</time>
      </trkpt>
      <trkpt lat="44.32231" lon="3.57707">
        <ele>1050</ele>
        <time>2009-07-09T13:51:54Z</time>
      </trkpt>
      <trkpt lat="44.32214" lon="3.57721">
        <ele>1050</ele>
        <time>2009-07-09T13:51:59Z</time>
      </trkpt>
      <trkpt lat="44.32177" lon="3.57766">
        <ele>1053</ele>
        <time>2009-07-09T13:52:16Z</time>
      </trkpt>
      <trkpt lat="44.32151" lon="3.57803">
        <ele>1052</ele>
        <time>2009-07-09T13:52:29Z</time>
      </trkpt>
      <trkpt lat="44.32126" lon="3.57825">
        <ele>1050</ele>
        <time>2009-07-09T13:52:38Z</time>
      </trkpt>
      <trkpt lat="44.32087" lon="3.57862">
        <ele>1049</ele>
        <time>2009-07-09T13:52:52Z</time>
      </trkpt>
      <trkpt lat="44.32063" lon="3.57865">
        <ele>1053</ele>
        <time>2009-07-09T13:53:03Z</time>
      </trkpt>
      <trkpt lat="44.32061" lon="3.57866">
        <ele>1053</ele>
        <time>2009-07-09T13:53:04Z</time>
      </trkpt>
      <trkpt lat="44.32042" lon="3.57888">
        <ele>1055</ele>
        <time>2009-07-09T13:53:17Z</time>
      </trkpt>
      <trkpt lat="44.32033" lon="3.57897">
        <ele>1055</ele>
        <time>2009-07-09T13:53:22Z</time>
      </trkpt>
      <trkpt lat="44.32008" lon="3.57917">
        <ele>1057</ele>
        <time>2009-07-09T13:53:36Z</time>
      </trkpt>
      <trkpt lat="44.32003" lon="3.57921">
        <ele>1057</ele>
        <time>2009-07-09T13:53:39Z</time>
      </trkpt>
      <trkpt lat="44.31992" lon="3.57933">
        <ele>1058</ele>
        <time>2009-07-09T13:53:46Z</time>
      </trkpt>
      <trkpt lat="44.31973" lon="3.5796">
        <ele>1059</ele>
        <time>2009-07-09T13:54:00Z</time>
      </trkpt>
      <trkpt lat="44.31972" lon="3.57962">
        <ele>1059</ele>
        <time>2009-07-09T13:54:03Z</time>
      </trkpt>
      <trkpt lat="44.31959" lon="3.57976">
        <ele>1059</ele>
        <time>2009-07-09T13:54:13Z</time>
      </trkpt>
      <trkpt lat="44.31952" lon="3.57978">
        <ele>1060</ele>
        <time>2009-07-09T13:54:17Z</time>
      </trkpt>
      <trkpt lat="44.31939" lon="3.57995">
        <ele>1060</ele>
        <time>2009-07-09T13:54:29Z</time>
      </trkpt>
      <trkpt lat="44.31928" lon="3.58025">
        <ele>1059</ele>
        <time>2009-07-09T13:54:41Z</time>
      </trkpt>
      <trkpt lat="44.31908" lon="3.58059">
        <ele>1058</ele>
        <time>2009-07-09T13:54:54Z</time>
      </trkpt>
      <trkpt lat="44.31883" lon="3.58101">
        <ele>1057</ele>
        <time>2009-07-09T13:55:06Z</time>
      </trkpt>
      <trkpt lat="44.31882" lon="3.58101">
        <ele>1057</ele>
        <time>2009-07-09T13:55:15Z</time>
      </trkpt>
      <trkpt lat="44.31882" lon="3.58101">
        <ele>1057</ele>
        <time>2009-07-09T13:55:32Z</time>
      </trkpt>
      <trkpt lat="44.31881" lon="3.58099">
        <ele>1058</ele>
        <time>2009-07-09T13:56:29Z</time>
      </trkpt>
      <trkpt lat="44.31879" lon="3.58098">
        <ele>1058</ele>
        <time>2009-07-09T13:56:34Z</time>
      </trkpt>
      <trkpt lat="44.31876" lon="3.58097">
        <ele>1059</ele>
        <time>2009-07-09T13:56:37Z</time>
      </trkpt>
      <trkpt lat="44.31876" lon="3.58097">
        <ele>1059</ele>
        <time>2009-07-09T13:57:06Z</time>
      </trkpt>
      <trkpt lat="44.31874" lon="3.58099">
        <ele>1060</ele>
        <time>2009-07-09T13:57:29Z</time>
      </trkpt>
      <trkpt lat="44.31873" lon="3.581">
        <ele>1060</ele>
        <time>2009-07-09T13:57:39Z</time>
      </trkpt>
      <trkpt lat="44.31849" lon="3.58139">
        <ele>1059</ele>
        <time>2009-07-09T13:57:53Z</time>
      </trkpt>
      <trkpt lat="44.31828" lon="3.58173">
        <ele>1055</ele>
        <time>2009-07-09T13:58:03Z</time>
      </trkpt>
      <trkpt lat="44.31824" lon="3.58187">
        <ele>1053</ele>
        <time>2009-07-09T13:58:07Z</time>
      </trkpt>
      <trkpt lat="44.31804" lon="3.58219">
        <ele>1056</ele>
        <time>2009-07-09T13:58:17Z</time>
      </trkpt>
      <trkpt lat="44.31799" lon="3.58226">
        <ele>1058</ele>
        <time>2009-07-09T13:58:20Z</time>
      </trkpt>
      <trkpt lat="44.3179" lon="3.58243">
        <ele>1058</ele>
        <time>2009-07-09T13:58:27Z</time>
      </trkpt>
      <trkpt lat="44.31784" lon="3.58247">
        <ele>1061</ele>
        <time>2009-07-09T13:58:35Z</time>
      </trkpt>
      <trkpt lat="44.31782" lon="3.58248">
        <ele>1060</ele>
        <time>2009-07-09T13:58:51Z</time>
      </trkpt>
      <trkpt lat="44.3178" lon="3.58254">
        <ele>1060</ele>
        <time>2009-07-09T13:58:55Z</time>
      </trkpt>
      <trkpt lat="44.31767" lon="3.58279">
        <ele>1063</ele>
        <time>2009-07-09T13:59:07Z</time>
      </trkpt>
      <trkpt lat="44.31752" lon="3.58308">
        <ele>1064</ele>
        <time>2009-07-09T13:59:21Z</time>
      </trkpt>
      <trkpt lat="44.3175" lon="3.58313">
        <ele>1064</ele>
        <time>2009-07-09T13:59:32Z</time>
      </trkpt>
      <trkpt lat="44.31743" lon="3.58331">
        <ele>1065</ele>
        <time>2009-07-09T13:59:47Z</time>
      </trkpt>
      <trkpt lat="44.3174" lon="3.58338">
        <ele>1065</ele>
        <time>2009-07-09T13:59:58Z</time>
      </trkpt>
      <trkpt lat="44.31733" lon="3.58355">
        <ele>1067</ele>
        <time>2009-07-09T14:00:09Z</time>
      </trkpt>
      <trkpt lat="44.31711" lon="3.58389">
        <ele>1070</ele>
        <time>2009-07-09T14:00:24Z</time>
      </trkpt>
      <trkpt lat="44.31685" lon="3.58416">
        <ele>1073</ele>
        <time>2009-07-09T14:00:39Z</time>
      </trkpt>
      <trkpt lat="44.31673" lon="3.58427">
        <ele>1074</ele>
        <time>2009-07-09T14:00:53Z</time>
      </trkpt>
      <trkpt lat="44.31667" lon="3.58433">
        <ele>1074</ele>
        <time>2009-07-09T14:02:01Z</time>
      </trkpt>
      <trkpt lat="44.31665" lon="3.58435">
        <ele>1074</ele>
        <time>2009-07-09T14:02:02Z</time>
      </trkpt>
      <trkpt lat="44.31647" lon="3.58453">
        <ele>1077</ele>
        <time>2009-07-09T14:02:11Z</time>
      </trkpt>
      <trkpt lat="44.31617" lon="3.58481">
        <ele>1080</ele>
        <time>2009-07-09T14:02:28Z</time>
      </trkpt>
      <trkpt lat="44.31599" lon="3.58501">
        <ele>1083</ele>
        <time>2009-07-09T14:02:40Z</time>
      </trkpt>
      <trkpt lat="44.31583" lon="3.58526">
        <ele>1085</ele>
        <time>2009-07-09T14:02:57Z</time>
      </trkpt>
      <trkpt lat="44.31583" lon="3.58525">
        <ele>1084</ele>
        <time>2009-07-09T14:03:20Z</time>
      </trkpt>
      <trkpt lat="44.31583" lon="3.58525">
        <ele>1087</ele>
        <time>2009-07-09T14:03:21Z</time>
      </trkpt>
      <trkpt lat="44.31583" lon="3.58525">
        <ele>1084</ele>
        <time>2009-07-09T14:03:25Z</time>
      </trkpt>
      <trkpt lat="44.31583" lon="3.58525">
        <ele>1088</ele>
        <time>2009-07-09T14:03:30Z</time>
      </trkpt>
      <trkpt lat="44.31583" lon="3.58525">
        <ele>1083</ele>
        <time>2009-07-09T14:03:31Z</time>
      </trkpt>
      <trkpt lat="44.31583" lon="3.58525">
        <ele>1086</ele>
        <time>2009-07-09T14:03:33Z</time>
      </trkpt>
      <trkpt lat="44.31583" lon="3.58526">
        <ele>1086</ele>
        <time>2009-07-09T14:04:30Z</time>
      </trkpt>
      <trkpt lat="44.31581" lon="3.58527">
        <ele>1085</ele>
        <time>2009-07-09T14:04:57Z</time>
      </trkpt>
      <trkpt lat="44.31581" lon="3.58525">
        <ele>1083</ele>
        <time>2009-07-09T14:05:09Z</time>
      </trkpt>
      <trkpt lat="44.31581" lon="3.58524">
        <ele>1085</ele>
        <time>2009-07-09T14:05:11Z</time>
      </trkpt>
      <trkpt lat="44.31574" lon="3.58517">
        <ele>1083</ele>
        <time>2009-07-09T14:05:15Z</time>
      </trkpt>
      <trkpt lat="44.31552" lon="3.58502">
        <ele>1082</ele>
        <time>2009-07-09T14:05:21Z</time>
      </trkpt>
      <trkpt lat="44.31539" lon="3.58498">
        <ele>1079</ele>
        <time>2009-07-09T14:05:24Z</time>
      </trkpt>
      <trkpt lat="44.315" lon="3.58476">
        <ele>1072</ele>
        <time>2009-07-09T14:05:31Z</time>
      </trkpt>
      <trkpt lat="44.3147" lon="3.5846">
        <ele>1068</ele>
        <time>2009-07-09T14:05:36Z</time>
      </trkpt>
      <trkpt lat="44.31464" lon="3.58457">
        <ele>1066</ele>
        <time>2009-07-09T14:05:37Z</time>
      </trkpt>
      <trkpt lat="44.31416" lon="3.58433">
        <ele>1065</ele>
        <time>2009-07-09T14:05:44Z</time>
      </trkpt>
      <trkpt lat="44.31398" lon="3.58421">
        <ele>1063</ele>
        <time>2009-07-09T14:05:47Z</time>
      </trkpt>
      <trkpt lat="44.31355" lon="3.58407">
        <ele>1060</ele>
        <time>2009-07-09T14:05:54Z</time>
      </trkpt>
      <trkpt lat="44.31349" lon="3.58405">
        <ele>1060</ele>
        <time>2009-07-09T14:05:55Z</time>
      </trkpt>
      <trkpt lat="44.31333" lon="3.58395">
        <ele>1058</ele>
        <time>2009-07-09T14:05:58Z</time>
      </trkpt>
      <trkpt lat="44.3129" lon="3.58376">
        <ele>1059</ele>
        <time>2009-07-09T14:06:08Z</time>
      </trkpt>
      <trkpt lat="44.31241" lon="3.58381">
        <ele>1058</ele>
        <time>2009-07-09T14:06:22Z</time>
      </trkpt>
      <trkpt lat="44.3122" lon="3.58377">
        <ele>1058</ele>
        <time>2009-07-09T14:06:28Z</time>
      </trkpt>
      <trkpt lat="44.31165" lon="3.58364">
        <ele>1057</ele>
        <time>2009-07-09T14:06:43Z</time>
      </trkpt>
      <trkpt lat="44.3113" lon="3.58379">
        <ele>1057</ele>
        <time>2009-07-09T14:06:55Z</time>
      </trkpt>
      <trkpt lat="44.31092" lon="3.58406">
        <ele>1059</ele>
        <time>2009-07-09T14:07:09Z</time>
      </trkpt>
      <trkpt lat="44.31047" lon="3.58416">
        <ele>1060</ele>
        <time>2009-07-09T14:07:24Z</time>
      </trkpt>
      <trkpt lat="44.31031" lon="3.58419">
        <ele>1059</ele>
        <time>2009-07-09T14:07:29Z</time>
      </trkpt>
      <trkpt lat="44.30985" lon="3.58432">
        <ele>1057</ele>
        <time>2009-07-09T14:07:43Z</time>
      </trkpt>
      <trkpt lat="44.30942" lon="3.58423">
        <ele>1057</ele>
        <time>2009-07-09T14:07:56Z</time>
      </trkpt>
      <trkpt lat="44.30914" lon="3.58415">
        <ele>1055</ele>
        <time>2009-07-09T14:08:06Z</time>
      </trkpt>
      <trkpt lat="44.30885" lon="3.58412">
        <ele>1056</ele>
        <time>2009-07-09T14:08:18Z</time>
      </trkpt>
      <trkpt lat="44.30877" lon="3.5841">
        <ele>1059</ele>
        <time>2009-07-09T14:08:23Z</time>
      </trkpt>
      <trkpt lat="44.30874" lon="3.58411">
        <ele>1060</ele>
        <time>2009-07-09T14:08:25Z</time>
      </trkpt>
      <trkpt lat="44.30853" lon="3.58409">
        <ele>1063</ele>
        <time>2009-07-09T14:08:38Z</time>
      </trkpt>
      <trkpt lat="44.30828" lon="3.58398">
        <ele>1066</ele>
        <time>2009-07-09T14:08:54Z</time>
      </trkpt>
      <trkpt lat="44.30793" lon="3.5841">
        <ele>1066</ele>
        <time>2009-07-09T14:09:09Z</time>
      </trkpt>
      <trkpt lat="44.30758" lon="3.58424">
        <ele>1067</ele>
        <time>2009-07-09T14:09:22Z</time>
      </trkpt>
      <trkpt lat="44.30744" lon="3.58421">
        <ele>1066</ele>
        <time>2009-07-09T14:09:27Z</time>
      </trkpt>
      <trkpt lat="44.3071" lon="3.58407">
        <ele>1066</ele>
        <time>2009-07-09T14:09:39Z</time>
      </trkpt>
      <trkpt lat="44.30695" lon="3.58391">
        <ele>1063</ele>
        <time>2009-07-09T14:09:45Z</time>
      </trkpt>
      <trkpt lat="44.30693" lon="3.58389">
        <ele>1062</ele>
        <time>2009-07-09T14:09:46Z</time>
      </trkpt>
      <trkpt lat="44.30661" lon="3.58399">
        <ele>1065</ele>
        <time>2009-07-09T14:09:56Z</time>
      </trkpt>
      <trkpt lat="44.30627" lon="3.58406">
        <ele>1064</ele>
        <time>2009-07-09T14:10:07Z</time>
      </trkpt>
      <trkpt lat="44.30581" lon="3.58415">
        <ele>1063</ele>
        <time>2009-07-09T14:10:22Z</time>
      </trkpt>
      <trkpt lat="44.30552" lon="3.5842">
        <ele>1060</ele>
        <time>2009-07-09T14:10:31Z</time>
      </trkpt>
      <trkpt lat="44.30539" lon="3.58421">
        <ele>1059</ele>
        <time>2009-07-09T14:10:36Z</time>
      </trkpt>
      <trkpt lat="44.30513" lon="3.58437">
        <ele>1058</ele>
        <time>2009-07-09T14:10:47Z</time>
      </trkpt>
      <trkpt lat="44.30511" lon="3.58438">
        <ele>1058</ele>
        <time>2009-07-09T14:10:48Z</time>
      </trkpt>
      <trkpt lat="44.30493" lon="3.58446">
        <ele>1059</ele>
        <time>2009-07-09T14:10:57Z</time>
      </trkpt>
      <trkpt lat="44.30487" lon="3.58451">
        <ele>1063</ele>
        <time>2009-07-09T14:11:01Z</time>
      </trkpt>
      <trkpt lat="44.30485" lon="3.58451">
        <ele>1063</ele>
        <time>2009-07-09T14:11:02Z</time>
      </trkpt>
      <trkpt lat="44.30475" lon="3.58449">
        <ele>1065</ele>
        <time>2009-07-09T14:11:09Z</time>
      </trkpt>
      <trkpt lat="44.30454" lon="3.58441">
        <ele>1068</ele>
        <time>2009-07-09T14:11:23Z</time>
      </trkpt>
      <trkpt lat="44.30446" lon="3.58436">
        <ele>1070</ele>
        <time>2009-07-09T14:11:29Z</time>
      </trkpt>
      <trkpt lat="44.30431" lon="3.58429">
        <ele>1073</ele>
        <time>2009-07-09T14:11:41Z</time>
      </trkpt>
      <trkpt lat="44.30427" lon="3.58427">
        <ele>1075</ele>
        <time>2009-07-09T14:11:44Z</time>
      </trkpt>
      <trkpt lat="44.30421" lon="3.58425">
        <ele>1078</ele>
        <time>2009-07-09T14:11:49Z</time>
      </trkpt>
      <trkpt lat="44.30415" lon="3.58423">
        <ele>1079</ele>
        <time>2009-07-09T14:11:54Z</time>
      </trkpt>
      <trkpt lat="44.30392" lon="3.58428">
        <ele>1079</ele>
        <time>2009-07-09T14:12:10Z</time>
      </trkpt>
      <trkpt lat="44.30379" lon="3.58428">
        <ele>1081</ele>
        <time>2009-07-09T14:12:25Z</time>
      </trkpt>
      <trkpt lat="44.30379" lon="3.58428">
        <ele>1081</ele>
        <time>2009-07-09T14:12:28Z</time>
      </trkpt>
      <trkpt lat="44.30366" lon="3.58429">
        <ele>1082</ele>
        <time>2009-07-09T14:12:43Z</time>
      </trkpt>
      <trkpt lat="44.3036" lon="3.58427">
        <ele>1083</ele>
        <time>2009-07-09T14:12:54Z</time>
      </trkpt>
      <trkpt lat="44.30353" lon="3.58425">
        <ele>1084</ele>
        <time>2009-07-09T14:13:01Z</time>
      </trkpt>
      <trkpt lat="44.30343" lon="3.58421">
        <ele>1084</ele>
        <time>2009-07-09T14:13:15Z</time>
      </trkpt>
      <trkpt lat="44.30333" lon="3.58417">
        <ele>1087</ele>
        <time>2009-07-09T14:13:29Z</time>
      </trkpt>
      <trkpt lat="44.30326" lon="3.58418">
        <ele>1086</ele>
        <time>2009-07-09T14:13:44Z</time>
      </trkpt>
      <trkpt lat="44.3032" lon="3.58415">
        <ele>1088</ele>
        <time>2009-07-09T14:13:55Z</time>
      </trkpt>
      <trkpt lat="44.30313" lon="3.58415">
        <ele>1087</ele>
        <time>2009-07-09T14:14:08Z</time>
      </trkpt>
      <trkpt lat="44.30307" lon="3.58412">
        <ele>1089</ele>
        <time>2009-07-09T14:14:52Z</time>
      </trkpt>
      <trkpt lat="44.30305" lon="3.58409">
        <ele>1092</ele>
        <time>2009-07-09T14:15:02Z</time>
      </trkpt>
      <trkpt lat="44.30304" lon="3.58407">
        <ele>1093</ele>
        <time>2009-07-09T14:15:16Z</time>
      </trkpt>
      <trkpt lat="44.30307" lon="3.58406">
        <ele>1093</ele>
        <time>2009-07-09T14:15:20Z</time>
      </trkpt>
      <trkpt lat="44.30316" lon="3.58405">
        <ele>1094</ele>
        <time>2009-07-09T14:15:36Z</time>
      </trkpt>
      <trkpt lat="44.30316" lon="3.58402">
        <ele>1097</ele>
        <time>2009-07-09T14:15:45Z</time>
      </trkpt>
      <trkpt lat="44.30311" lon="3.584">
        <ele>1098</ele>
        <time>2009-07-09T14:15:49Z</time>
      </trkpt>
      <trkpt lat="44.303" lon="3.58398">
        <ele>1097</ele>
        <time>2009-07-09T14:16:00Z</time>
      </trkpt>
      <trkpt lat="44.30291" lon="3.58387">
        <ele>1100</ele>
        <time>2009-07-09T14:16:13Z</time>
      </trkpt>
      <trkpt lat="44.30289" lon="3.58387">
        <ele>1101</ele>
        <time>2009-07-09T14:16:15Z</time>
      </trkpt>
      <trkpt lat="44.30288" lon="3.58387">
        <ele>1101</ele>
        <time>2009-07-09T14:16:21Z</time>
      </trkpt>
      <trkpt lat="44.30268" lon="3.58384">
        <ele>1105</ele>
        <time>2009-07-09T14:16:34Z</time>
      </trkpt>
      <trkpt lat="44.30266" lon="3.58383">
        <ele>1105</ele>
        <time>2009-07-09T14:16:35Z</time>
      </trkpt>
      <trkpt lat="44.30262" lon="3.58381">
        <ele>1107</ele>
        <time>2009-07-09T14:16:38Z</time>
      </trkpt>
      <trkpt lat="44.30239" lon="3.5838">
        <ele>1107</ele>
        <time>2009-07-09T14:16:51Z</time>
      </trkpt>
      <trkpt lat="44.30226" lon="3.58379">
        <ele>1108</ele>
        <time>2009-07-09T14:16:59Z</time>
      </trkpt>
      <trkpt lat="44.30205" lon="3.58384">
        <ele>1108</ele>
        <time>2009-07-09T14:17:11Z</time>
      </trkpt>
      <trkpt lat="44.30176" lon="3.58402">
        <ele>1105</ele>
        <time>2009-07-09T14:17:25Z</time>
      </trkpt>
      <trkpt lat="44.30159" lon="3.58417">
        <ele>1102</ele>
        <time>2009-07-09T14:17:34Z</time>
      </trkpt>
      <trkpt lat="44.30156" lon="3.58422">
        <ele>1100</ele>
        <time>2009-07-09T14:17:36Z</time>
      </trkpt>
      <trkpt lat="44.30147" lon="3.58436">
        <ele>1096</ele>
        <time>2009-07-09T14:17:42Z</time>
      </trkpt>
      <trkpt lat="44.30143" lon="3.58442">
        <ele>1093</ele>
        <time>2009-07-09T14:17:44Z</time>
      </trkpt>
      <trkpt lat="44.30102" lon="3.58484">
        <ele>1091</ele>
        <time>2009-07-09T14:17:58Z</time>
      </trkpt>
      <trkpt lat="44.30072" lon="3.58541">
        <ele>1090</ele>
        <time>2009-07-09T14:18:12Z</time>
      </trkpt>
      <trkpt lat="44.30039" lon="3.58593">
        <ele>1089</ele>
        <time>2009-07-09T14:18:28Z</time>
      </trkpt>
      <trkpt lat="44.30029" lon="3.58613">
        <ele>1088</ele>
        <time>2009-07-09T14:18:33Z</time>
      </trkpt>
      <trkpt lat="44.30029" lon="3.5866">
        <ele>1087</ele>
        <time>2009-07-09T14:18:45Z</time>
      </trkpt>
      <trkpt lat="44.3003" lon="3.58667">
        <ele>1087</ele>
        <time>2009-07-09T14:18:57Z</time>
      </trkpt>
      <trkpt lat="44.30031" lon="3.58667">
        <ele>1087</ele>
        <time>2009-07-09T14:19:37Z</time>
      </trkpt>
      <trkpt lat="44.3003" lon="3.58667">
        <ele>1087</ele>
        <time>2009-07-09T14:19:41Z</time>
      </trkpt>
      <trkpt lat="44.30029" lon="3.58669">
        <ele>1084</ele>
        <time>2009-07-09T14:19:58Z</time>
      </trkpt>
      <trkpt lat="44.30028" lon="3.58669">
        <ele>1087</ele>
        <time>2009-07-09T14:22:09Z</time>
      </trkpt>
      <trkpt lat="44.30028" lon="3.58669">
        <ele>1084</ele>
        <time>2009-07-09T14:23:01Z</time>
      </trkpt>
      <trkpt lat="44.30029" lon="3.58667">
        <ele>1087</ele>
        <time>2009-07-09T14:29:19Z</time>
      </trkpt>
      <trkpt lat="44.30026" lon="3.58674">
        <ele>1087</ele>
        <time>2009-07-09T14:29:34Z</time>
      </trkpt>
      <trkpt lat="44.30011" lon="3.58711">
        <ele>1085</ele>
        <time>2009-07-09T14:29:48Z</time>
      </trkpt>
      <trkpt lat="44.29997" lon="3.58754">
        <ele>1085</ele>
        <time>2009-07-09T14:30:03Z</time>
      </trkpt>
      <trkpt lat="44.29962" lon="3.58768">
        <ele>1084</ele>
        <time>2009-07-09T14:30:18Z</time>
      </trkpt>
      <trkpt lat="44.29932" lon="3.58741">
        <ele>1083</ele>
        <time>2009-07-09T14:30:33Z</time>
      </trkpt>
      <trkpt lat="44.29905" lon="3.58704">
        <ele>1083</ele>
        <time>2009-07-09T14:30:48Z</time>
      </trkpt>
      <trkpt lat="44.29897" lon="3.58702">
        <ele>1082</ele>
        <time>2009-07-09T14:30:51Z</time>
      </trkpt>
      <trkpt lat="44.29885" lon="3.58693">
        <ele>1084</ele>
        <time>2009-07-09T14:30:58Z</time>
      </trkpt>
      <trkpt lat="44.29855" lon="3.58691">
        <ele>1087</ele>
        <time>2009-07-09T14:31:12Z</time>
      </trkpt>
      <trkpt lat="44.29833" lon="3.58676">
        <ele>1090</ele>
        <time>2009-07-09T14:31:24Z</time>
      </trkpt>
      <trkpt lat="44.29805" lon="3.58661">
        <ele>1089</ele>
        <time>2009-07-09T14:31:38Z</time>
      </trkpt>
      <trkpt lat="44.29775" lon="3.58664">
        <ele>1091</ele>
        <time>2009-07-09T14:31:52Z</time>
      </trkpt>
      <trkpt lat="44.29768" lon="3.58668">
        <ele>1090</ele>
        <time>2009-07-09T14:32:03Z</time>
      </trkpt>
      <trkpt lat="44.29768" lon="3.5867">
        <ele>1091</ele>
        <time>2009-07-09T14:32:26Z</time>
      </trkpt>
      <trkpt lat="44.29767" lon="3.5867">
        <ele>1091</ele>
        <time>2009-07-09T14:32:27Z</time>
      </trkpt>
      <trkpt lat="44.29763" lon="3.58665">
        <ele>1091</ele>
        <time>2009-07-09T14:32:33Z</time>
      </trkpt>
      <trkpt lat="44.29762" lon="3.58666">
        <ele>1090</ele>
        <time>2009-07-09T14:33:55Z</time>
      </trkpt>
      <trkpt lat="44.29757" lon="3.58666">
        <ele>1089</ele>
        <time>2009-07-09T14:33:58Z</time>
      </trkpt>
      <trkpt lat="44.29746" lon="3.58673">
        <ele>1088</ele>
        <time>2009-07-09T14:34:02Z</time>
      </trkpt>
      <trkpt lat="44.29724" lon="3.58687">
        <ele>1085</ele>
        <time>2009-07-09T14:34:08Z</time>
      </trkpt>
      <trkpt lat="44.29711" lon="3.58698">
        <ele>1083</ele>
        <time>2009-07-09T14:34:11Z</time>
      </trkpt>
      <trkpt lat="44.29704" lon="3.58708">
        <ele>1082</ele>
        <time>2009-07-09T14:34:13Z</time>
      </trkpt>
      <trkpt lat="44.29691" lon="3.58724">
        <ele>1078</ele>
        <time>2009-07-09T14:34:17Z</time>
      </trkpt>
      <trkpt lat="44.29687" lon="3.58728">
        <ele>1078</ele>
        <time>2009-07-09T14:34:18Z</time>
      </trkpt>
      <trkpt lat="44.29677" lon="3.5874">
        <ele>1074</ele>
        <time>2009-07-09T14:34:21Z</time>
      </trkpt>
      <trkpt lat="44.29669" lon="3.58747">
        <ele>1072</ele>
        <time>2009-07-09T14:34:23Z</time>
      </trkpt>
      <trkpt lat="44.29666" lon="3.58756">
        <ele>1072</ele>
        <time>2009-07-09T14:34:31Z</time>
      </trkpt>
      <trkpt lat="44.29664" lon="3.58761">
        <ele>1073</ele>
        <time>2009-07-09T14:34:49Z</time>
      </trkpt>
      <trkpt lat="44.29664" lon="3.58762">
        <ele>1074</ele>
        <time>2009-07-09T14:35:27Z</time>
      </trkpt>
      <trkpt lat="44.29678" lon="3.58764">
        <ele>1070</ele>
        <time>2009-07-09T14:35:37Z</time>
      </trkpt>
      <trkpt lat="44.29694" lon="3.5876">
        <ele>1066</ele>
        <time>2009-07-09T14:35:46Z</time>
      </trkpt>
      <trkpt lat="44.297" lon="3.58757">
        <ele>1065</ele>
        <time>2009-07-09T14:35:48Z</time>
      </trkpt>
      <trkpt lat="44.29711" lon="3.58755">
        <ele>1062</ele>
        <time>2009-07-09T14:35:52Z</time>
      </trkpt>
      <trkpt lat="44.29714" lon="3.58754">
        <ele>1062</ele>
        <time>2009-07-09T14:35:53Z</time>
      </trkpt>
      <trkpt lat="44.29737" lon="3.58748">
        <ele>1059</ele>
        <time>2009-07-09T14:35:59Z</time>
      </trkpt>
      <trkpt lat="44.29772" lon="3.5874">
        <ele>1055</ele>
        <time>2009-07-09T14:36:09Z</time>
      </trkpt>
      <trkpt lat="44.29796" lon="3.5874">
        <ele>1053</ele>
        <time>2009-07-09T14:36:16Z</time>
      </trkpt>
      <trkpt lat="44.29808" lon="3.58743">
        <ele>1051</ele>
        <time>2009-07-09T14:36:19Z</time>
      </trkpt>
      <trkpt lat="44.2984" lon="3.58767">
        <ele>1048</ele>
        <time>2009-07-09T14:36:28Z</time>
      </trkpt>
      <trkpt lat="44.29846" lon="3.58773">
        <ele>1045</ele>
        <time>2009-07-09T14:36:30Z</time>
      </trkpt>
      <trkpt lat="44.29853" lon="3.5878">
        <ele>1043</ele>
        <time>2009-07-09T14:36:32Z</time>
      </trkpt>
      <trkpt lat="44.29866" lon="3.58788">
        <ele>1039</ele>
        <time>2009-07-09T14:36:35Z</time>
      </trkpt>
      <trkpt lat="44.2987" lon="3.58789">
        <ele>1039</ele>
        <time>2009-07-09T14:36:36Z</time>
      </trkpt>
      <trkpt lat="44.29894" lon="3.58811">
        <ele>1036</ele>
        <time>2009-07-09T14:36:42Z</time>
      </trkpt>
      <trkpt lat="44.29902" lon="3.58836">
        <ele>1034</ele>
        <time>2009-07-09T14:36:47Z</time>
      </trkpt>
      <trkpt lat="44.29903" lon="3.58845">
        <ele>1034</ele>
        <time>2009-07-09T14:36:57Z</time>
      </trkpt>
      <trkpt lat="44.29904" lon="3.58846">
        <ele>1034</ele>
        <time>2009-07-09T14:37:12Z</time>
      </trkpt>
      <trkpt lat="44.29904" lon="3.58846">
        <ele>1033</ele>
        <time>2009-07-09T14:37:23Z</time>
      </trkpt>
      <trkpt lat="44.29901" lon="3.58846">
        <ele>1034</ele>
        <time>2009-07-09T14:37:32Z</time>
      </trkpt>
      <trkpt lat="44.299" lon="3.58845">
        <ele>1033</ele>
        <time>2009-07-09T14:37:34Z</time>
      </trkpt>
      <trkpt lat="44.29884" lon="3.58827">
        <ele>1029</ele>
        <time>2009-07-09T14:37:42Z</time>
      </trkpt>
      <trkpt lat="44.29877" lon="3.58821">
        <ele>1027</ele>
        <time>2009-07-09T14:37:45Z</time>
      </trkpt>
      <trkpt lat="44.29869" lon="3.58819">
        <ele>1026</ele>
        <time>2009-07-09T14:37:49Z</time>
      </trkpt>
      <trkpt lat="44.29873" lon="3.58832">
        <ele>1022</ele>
        <time>2009-07-09T14:37:54Z</time>
      </trkpt>
      <trkpt lat="44.29874" lon="3.58847">
        <ele>1019</ele>
        <time>2009-07-09T14:38:00Z</time>
      </trkpt>
      <trkpt lat="44.29865" lon="3.58838">
        <ele>1017</ele>
        <time>2009-07-09T14:38:05Z</time>
      </trkpt>
      <trkpt lat="44.2986" lon="3.58836">
        <ele>1015</ele>
        <time>2009-07-09T14:38:07Z</time>
      </trkpt>
      <trkpt lat="44.29848" lon="3.58837">
        <ele>1011</ele>
        <time>2009-07-09T14:38:12Z</time>
      </trkpt>
      <trkpt lat="44.29823" lon="3.58834">
        <ele>1008</ele>
        <time>2009-07-09T14:38:20Z</time>
      </trkpt>
      <trkpt lat="44.29809" lon="3.58836">
        <ele>1004</ele>
        <time>2009-07-09T14:38:25Z</time>
      </trkpt>
      <trkpt lat="44.29806" lon="3.58837">
        <ele>1004</ele>
        <time>2009-07-09T14:38:26Z</time>
      </trkpt>
      <trkpt lat="44.29799" lon="3.58837">
        <ele>1004</ele>
        <time>2009-07-09T14:38:29Z</time>
      </trkpt>
      <trkpt lat="44.29797" lon="3.5884">
        <ele>1002</ele>
        <time>2009-07-09T14:38:31Z</time>
      </trkpt>
      <trkpt lat="44.29804" lon="3.58842">
        <ele>1001</ele>
        <time>2009-07-09T14:38:34Z</time>
      </trkpt>
      <trkpt lat="44.29814" lon="3.58847">
        <ele>999</ele>
        <time>2009-07-09T14:38:37Z</time>
      </trkpt>
      <trkpt lat="44.29828" lon="3.58863">
        <ele>995</ele>
        <time>2009-07-09T14:38:43Z</time>
      </trkpt>
      <trkpt lat="44.29832" lon="3.58867">
        <ele>994</ele>
        <time>2009-07-09T14:38:45Z</time>
      </trkpt>
      <trkpt lat="44.29837" lon="3.58873">
        <ele>992</ele>
        <time>2009-07-09T14:38:48Z</time>
      </trkpt>
      <trkpt lat="44.29839" lon="3.58875">
        <ele>991</ele>
        <time>2009-07-09T14:38:49Z</time>
      </trkpt>
      <trkpt lat="44.2983" lon="3.58878">
        <ele>989</ele>
        <time>2009-07-09T14:38:56Z</time>
      </trkpt>
      <trkpt lat="44.29826" lon="3.58878">
        <ele>987</ele>
        <time>2009-07-09T14:38:58Z</time>
      </trkpt>
      <trkpt lat="44.29816" lon="3.58877">
        <ele>984</ele>
        <time>2009-07-09T14:39:02Z</time>
      </trkpt>
      <trkpt lat="44.29814" lon="3.58878">
        <ele>985</ele>
        <time>2009-07-09T14:39:03Z</time>
      </trkpt>
      <trkpt lat="44.29796" lon="3.58882">
        <ele>980</ele>
        <time>2009-07-09T14:39:10Z</time>
      </trkpt>
      <trkpt lat="44.29785" lon="3.58887">
        <ele>977</ele>
        <time>2009-07-09T14:39:14Z</time>
      </trkpt>
      <trkpt lat="44.29782" lon="3.58888">
        <ele>977</ele>
        <time>2009-07-09T14:39:15Z</time>
      </trkpt>
      <trkpt lat="44.2977" lon="3.5889">
        <ele>974</ele>
        <time>2009-07-09T14:39:18Z</time>
      </trkpt>
      <trkpt lat="44.29755" lon="3.58893">
        <ele>972</ele>
        <time>2009-07-09T14:39:22Z</time>
      </trkpt>
      <trkpt lat="44.29747" lon="3.58891">
        <ele>970</ele>
        <time>2009-07-09T14:39:24Z</time>
      </trkpt>
      <trkpt lat="44.29729" lon="3.58893">
        <ele>968</ele>
        <time>2009-07-09T14:39:29Z</time>
      </trkpt>
      <trkpt lat="44.29721" lon="3.58901">
        <ele>968</ele>
        <time>2009-07-09T14:39:32Z</time>
      </trkpt>
      <trkpt lat="44.29714" lon="3.58924">
        <ele>964</ele>
        <time>2009-07-09T14:39:37Z</time>
      </trkpt>
      <trkpt lat="44.29705" lon="3.58937">
        <ele>963</ele>
        <time>2009-07-09T14:39:45Z</time>
      </trkpt>
      <trkpt lat="44.29704" lon="3.58939">
        <ele>962</ele>
        <time>2009-07-09T14:39:57Z</time>
      </trkpt>
      <trkpt lat="44.29704" lon="3.58939">
        <ele>963</ele>
        <time>2009-07-09T14:40:27Z</time>
      </trkpt>
      <trkpt lat="44.29692" lon="3.58943">
        <ele>962</ele>
        <time>2009-07-09T14:41:01Z</time>
      </trkpt>
      <trkpt lat="44.29678" lon="3.58946">
        <ele>957</ele>
        <time>2009-07-09T14:41:05Z</time>
      </trkpt>
      <trkpt lat="44.29664" lon="3.58948">
        <ele>953</ele>
        <time>2009-07-09T14:41:09Z</time>
      </trkpt>
      <trkpt lat="44.29653" lon="3.58952">
        <ele>951</ele>
        <time>2009-07-09T14:41:13Z</time>
      </trkpt>
      <trkpt lat="44.29649" lon="3.58955">
        <ele>949</ele>
        <time>2009-07-09T14:41:15Z</time>
      </trkpt>
      <trkpt lat="44.29635" lon="3.58951">
        <ele>946</ele>
        <time>2009-07-09T14:41:22Z</time>
      </trkpt>
      <trkpt lat="44.29632" lon="3.58948">
        <ele>944</ele>
        <time>2009-07-09T14:41:29Z</time>
      </trkpt>
      <trkpt lat="44.29632" lon="3.58953">
        <ele>943</ele>
        <time>2009-07-09T14:41:36Z</time>
      </trkpt>
      <trkpt lat="44.2963" lon="3.58959">
        <ele>942</ele>
        <time>2009-07-09T14:41:40Z</time>
      </trkpt>
      <trkpt lat="44.29629" lon="3.5896">
        <ele>942</ele>
        <time>2009-07-09T14:41:41Z</time>
      </trkpt>
      <trkpt lat="44.29621" lon="3.58959">
        <ele>940</ele>
        <time>2009-07-09T14:41:55Z</time>
      </trkpt>
      <trkpt lat="44.29621" lon="3.58958">
        <ele>940</ele>
        <time>2009-07-09T14:41:59Z</time>
      </trkpt>
      <trkpt lat="44.29614" lon="3.5895">
        <ele>937</ele>
        <time>2009-07-09T14:42:04Z</time>
      </trkpt>
      <trkpt lat="44.29603" lon="3.58949">
        <ele>932</ele>
        <time>2009-07-09T14:42:10Z</time>
      </trkpt>
      <trkpt lat="44.29601" lon="3.58949">
        <ele>925</ele>
        <time>2009-07-09T14:42:11Z</time>
      </trkpt>
      <trkpt lat="44.29601" lon="3.5895">
        <ele>932</ele>
        <time>2009-07-09T14:42:12Z</time>
      </trkpt>
      <trkpt lat="44.29601" lon="3.5895">
        <ele>933</ele>
        <time>2009-07-09T14:42:14Z</time>
      </trkpt>
      <trkpt lat="44.29602" lon="3.5895">
        <ele>932</ele>
        <time>2009-07-09T14:42:17Z</time>
      </trkpt>
      <trkpt lat="44.29598" lon="3.5895">
        <ele>931</ele>
        <time>2009-07-09T14:42:23Z</time>
      </trkpt>
      <trkpt lat="44.29597" lon="3.58952">
        <ele>929</ele>
        <time>2009-07-09T14:42:25Z</time>
      </trkpt>
      <trkpt lat="44.29598" lon="3.58954">
        <ele>929</ele>
        <time>2009-07-09T14:42:28Z</time>
      </trkpt>
      <trkpt lat="44.29609" lon="3.58964">
        <ele>925</ele>
        <time>2009-07-09T14:42:34Z</time>
      </trkpt>
      <trkpt lat="44.29614" lon="3.5897">
        <ele>925</ele>
        <time>2009-07-09T14:42:37Z</time>
      </trkpt>
      <trkpt lat="44.29621" lon="3.58991">
        <ele>921</ele>
        <time>2009-07-09T14:42:45Z</time>
      </trkpt>
      <trkpt lat="44.29621" lon="3.58998">
        <ele>920</ele>
        <time>2009-07-09T14:42:47Z</time>
      </trkpt>
      <trkpt lat="44.29621" lon="3.59004">
        <ele>920</ele>
        <time>2009-07-09T14:42:49Z</time>
      </trkpt>
      <trkpt lat="44.29617" lon="3.59008">
        <ele>918</ele>
        <time>2009-07-09T14:42:52Z</time>
      </trkpt>
      <trkpt lat="44.29614" lon="3.59004">
        <ele>917</ele>
        <time>2009-07-09T14:42:54Z</time>
      </trkpt>
      <trkpt lat="44.29596" lon="3.58986">
        <ele>914</ele>
        <time>2009-07-09T14:43:03Z</time>
      </trkpt>
      <trkpt lat="44.2958" lon="3.58982">
        <ele>911</ele>
        <time>2009-07-09T14:43:09Z</time>
      </trkpt>
      <trkpt lat="44.29573" lon="3.58981">
        <ele>909</ele>
        <time>2009-07-09T14:43:12Z</time>
      </trkpt>
      <trkpt lat="44.29558" lon="3.5898">
        <ele>907</ele>
        <time>2009-07-09T14:43:18Z</time>
      </trkpt>
      <trkpt lat="44.29546" lon="3.58979">
        <ele>905</ele>
        <time>2009-07-09T14:43:24Z</time>
      </trkpt>
      <trkpt lat="44.29535" lon="3.5898">
        <ele>904</ele>
        <time>2009-07-09T14:43:29Z</time>
      </trkpt>
      <trkpt lat="44.29534" lon="3.58983">
        <ele>903</ele>
        <time>2009-07-09T14:43:31Z</time>
      </trkpt>
      <trkpt lat="44.29537" lon="3.58985">
        <ele>901</ele>
        <time>2009-07-09T14:43:33Z</time>
      </trkpt>
      <trkpt lat="44.29545" lon="3.5899">
        <ele>900</ele>
        <time>2009-07-09T14:43:37Z</time>
      </trkpt>
      <trkpt lat="44.29555" lon="3.59">
        <ele>897</ele>
        <time>2009-07-09T14:43:43Z</time>
      </trkpt>
      <trkpt lat="44.29557" lon="3.59001">
        <ele>897</ele>
        <time>2009-07-09T14:43:44Z</time>
      </trkpt>
      <trkpt lat="44.29562" lon="3.59004">
        <ele>895</ele>
        <time>2009-07-09T14:43:46Z</time>
      </trkpt>
      <trkpt lat="44.29577" lon="3.59011">
        <ele>894</ele>
        <time>2009-07-09T14:43:53Z</time>
      </trkpt>
      <trkpt lat="44.29578" lon="3.59017">
        <ele>890</ele>
        <time>2009-07-09T14:43:57Z</time>
      </trkpt>
      <trkpt lat="44.29574" lon="3.59019">
        <ele>889</ele>
        <time>2009-07-09T14:43:59Z</time>
      </trkpt>
      <trkpt lat="44.29562" lon="3.59021">
        <ele>888</ele>
        <time>2009-07-09T14:44:10Z</time>
      </trkpt>
      <trkpt lat="44.29562" lon="3.59021">
        <ele>887</ele>
        <time>2009-07-09T14:44:41Z</time>
      </trkpt>
      <trkpt lat="44.29561" lon="3.59022">
        <ele>886</ele>
        <time>2009-07-09T14:46:49Z</time>
      </trkpt>
      <trkpt lat="44.29561" lon="3.5902">
        <ele>885</ele>
        <time>2009-07-09T14:47:59Z</time>
      </trkpt>
      <trkpt lat="44.2955" lon="3.59022">
        <ele>884</ele>
        <time>2009-07-09T14:48:14Z</time>
      </trkpt>
      <trkpt lat="44.29548" lon="3.59023">
        <ele>884</ele>
        <time>2009-07-09T14:48:15Z</time>
      </trkpt>
      <trkpt lat="44.29542" lon="3.5902">
        <ele>883</ele>
        <time>2009-07-09T14:48:18Z</time>
      </trkpt>
      <trkpt lat="44.29536" lon="3.59021">
        <ele>880</ele>
        <time>2009-07-09T14:48:21Z</time>
      </trkpt>
      <trkpt lat="44.29527" lon="3.59024">
        <ele>878</ele>
        <time>2009-07-09T14:48:25Z</time>
      </trkpt>
      <trkpt lat="44.29514" lon="3.59031">
        <ele>874</ele>
        <time>2009-07-09T14:48:30Z</time>
      </trkpt>
      <trkpt lat="44.29504" lon="3.59036">
        <ele>872</ele>
        <time>2009-07-09T14:48:34Z</time>
      </trkpt>
      <trkpt lat="44.29483" lon="3.59041">
        <ele>868</ele>
        <time>2009-07-09T14:48:42Z</time>
      </trkpt>
      <trkpt lat="44.29473" lon="3.59041">
        <ele>867</ele>
        <time>2009-07-09T14:48:45Z</time>
      </trkpt>
      <trkpt lat="44.29449" lon="3.59045">
        <ele>864</ele>
        <time>2009-07-09T14:48:53Z</time>
      </trkpt>
      <trkpt lat="44.2944" lon="3.59046">
        <ele>860</ele>
        <time>2009-07-09T14:48:57Z</time>
      </trkpt>
      <trkpt lat="44.29437" lon="3.59047">
        <ele>860</ele>
        <time>2009-07-09T14:48:58Z</time>
      </trkpt>
      <trkpt lat="44.29423" lon="3.59051">
        <ele>857</ele>
        <time>2009-07-09T14:49:04Z</time>
      </trkpt>
      <trkpt lat="44.29421" lon="3.59052">
        <ele>857</ele>
        <time>2009-07-09T14:49:05Z</time>
      </trkpt>
      <trkpt lat="44.29413" lon="3.59052">
        <ele>854</ele>
        <time>2009-07-09T14:49:08Z</time>
      </trkpt>
      <trkpt lat="44.29407" lon="3.59056">
        <ele>853</ele>
        <time>2009-07-09T14:49:11Z</time>
      </trkpt>
      <trkpt lat="44.29398" lon="3.59058">
        <ele>850</ele>
        <time>2009-07-09T14:49:15Z</time>
      </trkpt>
      <trkpt lat="44.29392" lon="3.59058">
        <ele>849</ele>
        <time>2009-07-09T14:49:17Z</time>
      </trkpt>
      <trkpt lat="44.29388" lon="3.59058">
        <ele>847</ele>
        <time>2009-07-09T14:49:19Z</time>
      </trkpt>
      <trkpt lat="44.29386" lon="3.5906">
        <ele>846</ele>
        <time>2009-07-09T14:49:21Z</time>
      </trkpt>
      <trkpt lat="44.29388" lon="3.59067">
        <ele>843</ele>
        <time>2009-07-09T14:49:24Z</time>
      </trkpt>
      <trkpt lat="44.29389" lon="3.59071">
        <ele>843</ele>
        <time>2009-07-09T14:49:25Z</time>
      </trkpt>
      <trkpt lat="44.29404" lon="3.5908">
        <ele>841</ele>
        <time>2009-07-09T14:49:31Z</time>
      </trkpt>
      <trkpt lat="44.29409" lon="3.59081">
        <ele>840</ele>
        <time>2009-07-09T14:49:33Z</time>
      </trkpt>
      <trkpt lat="44.29411" lon="3.59086">
        <ele>838</ele>
        <time>2009-07-09T14:49:35Z</time>
      </trkpt>
      <trkpt lat="44.29398" lon="3.59096">
        <ele>835</ele>
        <time>2009-07-09T14:49:40Z</time>
      </trkpt>
      <trkpt lat="44.29394" lon="3.59097">
        <ele>833</ele>
        <time>2009-07-09T14:49:41Z</time>
      </trkpt>
      <trkpt lat="44.29385" lon="3.59099">
        <ele>831</ele>
        <time>2009-07-09T14:49:44Z</time>
      </trkpt>
      <trkpt lat="44.29385" lon="3.59094">
        <ele>832</ele>
        <time>2009-07-09T14:49:57Z</time>
      </trkpt>
      <trkpt lat="44.29386" lon="3.59095">
        <ele>831</ele>
        <time>2009-07-09T14:50:10Z</time>
      </trkpt>
      <trkpt lat="44.29386" lon="3.59096">
        <ele>830</ele>
        <time>2009-07-09T14:50:57Z</time>
      </trkpt>
      <trkpt lat="44.29387" lon="3.59098">
        <ele>831</ele>
        <time>2009-07-09T14:51:19Z</time>
      </trkpt>
      <trkpt lat="44.29387" lon="3.59102">
        <ele>831</ele>
        <time>2009-07-09T14:51:26Z</time>
      </trkpt>
      <trkpt lat="44.29389" lon="3.59105">
        <ele>830</ele>
        <time>2009-07-09T14:51:29Z</time>
      </trkpt>
      <trkpt lat="44.2939" lon="3.59104">
        <ele>828</ele>
        <time>2009-07-09T14:51:54Z</time>
      </trkpt>
      <trkpt lat="44.29394" lon="3.59102">
        <ele>830</ele>
        <time>2009-07-09T14:53:30Z</time>
      </trkpt>
      <trkpt lat="44.29415" lon="3.59119">
        <ele>825</ele>
        <time>2009-07-09T14:53:38Z</time>
      </trkpt>
      <trkpt lat="44.29424" lon="3.59129">
        <ele>822</ele>
        <time>2009-07-09T14:53:40Z</time>
      </trkpt>
      <trkpt lat="44.29447" lon="3.5916">
        <ele>819</ele>
        <time>2009-07-09T14:53:45Z</time>
      </trkpt>
      <trkpt lat="44.29467" lon="3.59188">
        <ele>815</ele>
        <time>2009-07-09T14:53:52Z</time>
      </trkpt>
      <trkpt lat="44.29473" lon="3.5919">
        <ele>813</ele>
        <time>2009-07-09T14:53:54Z</time>
      </trkpt>
      <trkpt lat="44.29495" lon="3.59187">
        <ele>808</ele>
        <time>2009-07-09T14:53:58Z</time>
      </trkpt>
      <trkpt lat="44.29502" lon="3.59184">
        <ele>808</ele>
        <time>2009-07-09T14:53:59Z</time>
      </trkpt>
      <trkpt lat="44.29514" lon="3.59174">
        <ele>805</ele>
        <time>2009-07-09T14:54:01Z</time>
      </trkpt>
      <trkpt lat="44.29549" lon="3.59179">
        <ele>802</ele>
        <time>2009-07-09T14:54:07Z</time>
      </trkpt>
      <trkpt lat="44.2956" lon="3.59188">
        <ele>801</ele>
        <time>2009-07-09T14:54:09Z</time>
      </trkpt>
      <trkpt lat="44.29576" lon="3.59206">
        <ele>800</ele>
        <time>2009-07-09T14:54:12Z</time>
      </trkpt>
      <trkpt lat="44.29605" lon="3.59249">
        <ele>798</ele>
        <time>2009-07-09T14:54:18Z</time>
      </trkpt>
      <trkpt lat="44.29629" lon="3.59267">
        <ele>794</ele>
        <time>2009-07-09T14:54:22Z</time>
      </trkpt>
      <trkpt lat="44.29649" lon="3.59275">
        <ele>790</ele>
        <time>2009-07-09T14:54:25Z</time>
      </trkpt>
      <trkpt lat="44.29662" lon="3.59279">
        <ele>788</ele>
        <time>2009-07-09T14:54:27Z</time>
      </trkpt>
      <trkpt lat="44.29692" lon="3.59274">
        <ele>784</ele>
        <time>2009-07-09T14:54:32Z</time>
      </trkpt>
      <trkpt lat="44.29723" lon="3.59273">
        <ele>782</ele>
        <time>2009-07-09T14:54:37Z</time>
      </trkpt>
      <trkpt lat="44.29738" lon="3.5929">
        <ele>781</ele>
        <time>2009-07-09T14:54:40Z</time>
      </trkpt>
      <trkpt lat="44.2975" lon="3.59297">
        <ele>780</ele>
        <time>2009-07-09T14:54:42Z</time>
      </trkpt>
      <trkpt lat="44.29782" lon="3.59329">
        <ele>782</ele>
        <time>2009-07-09T14:54:51Z</time>
      </trkpt>
      <trkpt lat="44.29804" lon="3.5936">
        <ele>786</ele>
        <time>2009-07-09T14:55:04Z</time>
      </trkpt>
      <trkpt lat="44.29818" lon="3.59377">
        <ele>788</ele>
        <time>2009-07-09T14:55:16Z</time>
      </trkpt>
      <trkpt lat="44.29815" lon="3.59379">
        <ele>787</ele>
        <time>2009-07-09T14:55:29Z</time>
      </trkpt>
      <trkpt lat="44.29815" lon="3.59379">
        <ele>791</ele>
        <time>2009-07-09T14:55:40Z</time>
      </trkpt>
      <trkpt lat="44.29815" lon="3.59379">
        <ele>791</ele>
        <time>2009-07-09T14:55:41Z</time>
      </trkpt>
      <trkpt lat="44.29815" lon="3.59379">
        <ele>788</ele>
        <time>2009-07-09T14:55:42Z</time>
      </trkpt>
      <trkpt lat="44.29815" lon="3.59379">
        <ele>791</ele>
        <time>2009-07-09T14:55:45Z</time>
      </trkpt>
      <trkpt lat="44.29815" lon="3.59379">
        <ele>788</ele>
        <time>2009-07-09T14:55:46Z</time>
      </trkpt>
      <trkpt lat="44.29813" lon="3.59378">
        <ele>787</ele>
        <time>2009-07-09T14:56:20Z</time>
      </trkpt>
      <trkpt lat="44.29821" lon="3.59387">
        <ele>788</ele>
        <time>2009-07-09T14:56:32Z</time>
      </trkpt>
      <trkpt lat="44.2983" lon="3.59397">
        <ele>789</ele>
        <time>2009-07-09T14:56:37Z</time>
      </trkpt>
      <trkpt lat="44.29849" lon="3.59418">
        <ele>793</ele>
        <time>2009-07-09T14:56:48Z</time>
      </trkpt>
      <trkpt lat="44.29886" lon="3.5944">
        <ele>794</ele>
        <time>2009-07-09T14:57:05Z</time>
      </trkpt>
      <trkpt lat="44.29923" lon="3.59433">
        <ele>791</ele>
        <time>2009-07-09T14:57:17Z</time>
      </trkpt>
      <trkpt lat="44.29942" lon="3.59427">
        <ele>790</ele>
        <time>2009-07-09T14:57:21Z</time>
      </trkpt>
      <trkpt lat="44.29963" lon="3.59428">
        <ele>789</ele>
        <time>2009-07-09T14:57:25Z</time>
      </trkpt>
      <trkpt lat="44.29998" lon="3.59441">
        <ele>786</ele>
        <time>2009-07-09T14:57:31Z</time>
      </trkpt>
      <trkpt lat="44.30028" lon="3.59431">
        <ele>785</ele>
        <time>2009-07-09T14:57:36Z</time>
      </trkpt>
      <trkpt lat="44.30092" lon="3.59378">
        <ele>782</ele>
        <time>2009-07-09T14:57:48Z</time>
      </trkpt>
      <trkpt lat="44.30112" lon="3.59353">
        <ele>780</ele>
        <time>2009-07-09T14:57:52Z</time>
      </trkpt>
      <trkpt lat="44.30123" lon="3.59328">
        <ele>778</ele>
        <time>2009-07-09T14:57:55Z</time>
      </trkpt>
      <trkpt lat="44.30125" lon="3.59318">
        <ele>778</ele>
        <time>2009-07-09T14:57:56Z</time>
      </trkpt>
      <trkpt lat="44.30144" lon="3.59234">
        <ele>777</ele>
        <time>2009-07-09T14:58:06Z</time>
      </trkpt>
      <trkpt lat="44.30173" lon="3.59195">
        <ele>776</ele>
        <time>2009-07-09T14:58:13Z</time>
      </trkpt>
      <trkpt lat="44.30177" lon="3.59191">
        <ele>777</ele>
        <time>2009-07-09T14:58:21Z</time>
      </trkpt>
      <trkpt lat="44.30175" lon="3.59191">
        <ele>774</ele>
        <time>2009-07-09T14:58:42Z</time>
      </trkpt>
      <trkpt lat="44.30176" lon="3.59187">
        <ele>774</ele>
        <time>2009-07-09T14:58:51Z</time>
      </trkpt>
      <trkpt lat="44.30179" lon="3.59185">
        <ele>774</ele>
        <time>2009-07-09T14:59:06Z</time>
      </trkpt>
      <trkpt lat="44.3019" lon="3.59177">
        <ele>774</ele>
        <time>2009-07-09T15:00:39Z</time>
      </trkpt>
      <trkpt lat="44.30195" lon="3.59172">
        <ele>773</ele>
        <time>2009-07-09T15:00:41Z</time>
      </trkpt>
      <trkpt lat="44.3023" lon="3.59157">
        <ele>772</ele>
        <time>2009-07-09T15:00:52Z</time>
      </trkpt>
      <trkpt lat="44.30266" lon="3.59157">
        <ele>770</ele>
        <time>2009-07-09T15:00:59Z</time>
      </trkpt>
      <trkpt lat="44.30301" lon="3.59128">
        <ele>768</ele>
        <time>2009-07-09T15:01:07Z</time>
      </trkpt>
      <trkpt lat="44.30325" lon="3.59105">
        <ele>766</ele>
        <time>2009-07-09T15:01:12Z</time>
      </trkpt>
      <trkpt lat="44.30347" lon="3.59082">
        <ele>763</ele>
        <time>2009-07-09T15:01:16Z</time>
      </trkpt>
      <trkpt lat="44.30366" lon="3.59064">
        <ele>760</ele>
        <time>2009-07-09T15:01:19Z</time>
      </trkpt>
      <trkpt lat="44.30385" lon="3.59047">
        <ele>758</ele>
        <time>2009-07-09T15:01:22Z</time>
      </trkpt>
      <trkpt lat="44.30403" lon="3.59028">
        <ele>756</ele>
        <time>2009-07-09T15:01:25Z</time>
      </trkpt>
      <trkpt lat="44.30418" lon="3.59023">
        <ele>756</ele>
        <time>2009-07-09T15:01:27Z</time>
      </trkpt>
      <trkpt lat="44.30456" lon="3.59032">
        <ele>755</ele>
        <time>2009-07-09T15:01:32Z</time>
      </trkpt>
      <trkpt lat="44.30469" lon="3.59039">
        <ele>755</ele>
        <time>2009-07-09T15:01:40Z</time>
      </trkpt>
      <trkpt lat="44.30467" lon="3.59039">
        <ele>755</ele>
        <time>2009-07-09T15:01:52Z</time>
      </trkpt>
      <trkpt lat="44.30476" lon="3.59054">
        <ele>755</ele>
        <time>2009-07-09T15:01:59Z</time>
      </trkpt>
      <trkpt lat="44.30482" lon="3.59058">
        <ele>754</ele>
        <time>2009-07-09T15:02:02Z</time>
      </trkpt>
      <trkpt lat="44.30485" lon="3.59062">
        <ele>756</ele>
        <time>2009-07-09T15:02:04Z</time>
      </trkpt>
      <trkpt lat="44.30498" lon="3.59091">
        <ele>756</ele>
        <time>2009-07-09T15:02:13Z</time>
      </trkpt>
      <trkpt lat="44.30502" lon="3.59096">
        <ele>757</ele>
        <time>2009-07-09T15:02:15Z</time>
      </trkpt>
      <trkpt lat="44.30529" lon="3.59131">
        <ele>759</ele>
        <time>2009-07-09T15:02:28Z</time>
      </trkpt>
      <trkpt lat="44.30534" lon="3.59147">
        <ele>758</ele>
        <time>2009-07-09T15:02:33Z</time>
      </trkpt>
      <trkpt lat="44.30543" lon="3.59167">
        <ele>757</ele>
        <time>2009-07-09T15:02:39Z</time>
      </trkpt>
      <trkpt lat="44.30577" lon="3.5922">
        <ele>756</ele>
        <time>2009-07-09T15:02:53Z</time>
      </trkpt>
      <trkpt lat="44.30603" lon="3.59257">
        <ele>758</ele>
        <time>2009-07-09T15:03:03Z</time>
      </trkpt>
      <trkpt lat="44.30609" lon="3.5927">
        <ele>759</ele>
        <time>2009-07-09T15:03:07Z</time>
      </trkpt>
      <trkpt lat="44.30627" lon="3.593">
        <ele>759</ele>
        <time>2009-07-09T15:03:15Z</time>
      </trkpt>
      <trkpt lat="44.30639" lon="3.5932">
        <ele>758</ele>
        <time>2009-07-09T15:03:20Z</time>
      </trkpt>
      <trkpt lat="44.30659" lon="3.59326">
        <ele>757</ele>
        <time>2009-07-09T15:03:25Z</time>
      </trkpt>
      <trkpt lat="44.30673" lon="3.59322">
        <ele>757</ele>
        <time>2009-07-09T15:03:28Z</time>
      </trkpt>
      <trkpt lat="44.30697" lon="3.59314">
        <ele>755</ele>
        <time>2009-07-09T15:03:32Z</time>
      </trkpt>
      <trkpt lat="44.30718" lon="3.59312">
        <ele>752</ele>
        <time>2009-07-09T15:03:35Z</time>
      </trkpt>
      <trkpt lat="44.30737" lon="3.59314">
        <ele>750</ele>
        <time>2009-07-09T15:03:38Z</time>
      </trkpt>
      <trkpt lat="44.30767" lon="3.59315">
        <ele>748</ele>
        <time>2009-07-09T15:03:46Z</time>
      </trkpt>
      <trkpt lat="44.30776" lon="3.59317">
        <ele>747</ele>
        <time>2009-07-09T15:03:48Z</time>
      </trkpt>
      <trkpt lat="44.308" lon="3.5932">
        <ele>743</ele>
        <time>2009-07-09T15:03:53Z</time>
      </trkpt>
      <trkpt lat="44.3081" lon="3.59322">
        <ele>742</ele>
        <time>2009-07-09T15:03:55Z</time>
      </trkpt>
      <trkpt lat="44.30824" lon="3.59323">
        <ele>737</ele>
        <time>2009-07-09T15:04:00Z</time>
      </trkpt>
      <trkpt lat="44.30817" lon="3.59333">
        <ele>736</ele>
        <time>2009-07-09T15:04:03Z</time>
      </trkpt>
      <trkpt lat="44.30804" lon="3.59343">
        <ele>734</ele>
        <time>2009-07-09T15:04:07Z</time>
      </trkpt>
      <trkpt lat="44.30801" lon="3.59345">
        <ele>734</ele>
        <time>2009-07-09T15:04:08Z</time>
      </trkpt>
      <trkpt lat="44.30807" lon="3.59349">
        <ele>732</ele>
        <time>2009-07-09T15:04:12Z</time>
      </trkpt>
      <trkpt lat="44.30825" lon="3.59346">
        <ele>731</ele>
        <time>2009-07-09T15:04:16Z</time>
      </trkpt>
      <trkpt lat="44.30838" lon="3.59342">
        <ele>729</ele>
        <time>2009-07-09T15:04:19Z</time>
      </trkpt>
      <trkpt lat="44.30849" lon="3.59357">
        <ele>726</ele>
        <time>2009-07-09T15:04:27Z</time>
      </trkpt>
      <trkpt lat="44.30844" lon="3.59373">
        <ele>725</ele>
        <time>2009-07-09T15:04:30Z</time>
      </trkpt>
      <trkpt lat="44.30841" lon="3.59377">
        <ele>722</ele>
        <time>2009-07-09T15:04:31Z</time>
      </trkpt>
      <trkpt lat="44.30815" lon="3.59394">
        <ele>719</ele>
        <time>2009-07-09T15:04:37Z</time>
      </trkpt>
      <trkpt lat="44.30797" lon="3.59403">
        <ele>717</ele>
        <time>2009-07-09T15:04:41Z</time>
      </trkpt>
      <trkpt lat="44.30805" lon="3.59411">
        <ele>714</ele>
        <time>2009-07-09T15:04:47Z</time>
      </trkpt>
      <trkpt lat="44.30817" lon="3.59413">
        <ele>712</ele>
        <time>2009-07-09T15:04:50Z</time>
      </trkpt>
      <trkpt lat="44.30846" lon="3.5941">
        <ele>710</ele>
        <time>2009-07-09T15:04:55Z</time>
      </trkpt>
      <trkpt lat="44.30882" lon="3.59393">
        <ele>707</ele>
        <time>2009-07-09T15:05:04Z</time>
      </trkpt>
      <trkpt lat="44.30889" lon="3.59389">
        <ele>706</ele>
        <time>2009-07-09T15:05:06Z</time>
      </trkpt>
      <trkpt lat="44.30889" lon="3.59398">
        <ele>703</ele>
        <time>2009-07-09T15:05:11Z</time>
      </trkpt>
      <trkpt lat="44.30885" lon="3.59405">
        <ele>702</ele>
        <time>2009-07-09T15:05:13Z</time>
      </trkpt>
      <trkpt lat="44.30882" lon="3.59409">
        <ele>702</ele>
        <time>2009-07-09T15:05:14Z</time>
      </trkpt>
      <trkpt lat="44.30867" lon="3.59424">
        <ele>699</ele>
        <time>2009-07-09T15:05:18Z</time>
      </trkpt>
      <trkpt lat="44.30872" lon="3.59427">
        <ele>699</ele>
        <time>2009-07-09T15:05:27Z</time>
      </trkpt>
      <trkpt lat="44.30883" lon="3.59421">
        <ele>698</ele>
        <time>2009-07-09T15:05:31Z</time>
      </trkpt>
      <trkpt lat="44.30899" lon="3.59411">
        <ele>695</ele>
        <time>2009-07-09T15:05:35Z</time>
      </trkpt>
      <trkpt lat="44.30906" lon="3.59403">
        <ele>695</ele>
        <time>2009-07-09T15:05:37Z</time>
      </trkpt>
      <trkpt lat="44.3091" lon="3.59395">
        <ele>693</ele>
        <time>2009-07-09T15:05:39Z</time>
      </trkpt>
      <trkpt lat="44.30918" lon="3.59375">
        <ele>690</ele>
        <time>2009-07-09T15:05:45Z</time>
      </trkpt>
      <trkpt lat="44.30919" lon="3.5939">
        <ele>687</ele>
        <time>2009-07-09T15:05:49Z</time>
      </trkpt>
      <trkpt lat="44.30919" lon="3.59396">
        <ele>686</ele>
        <time>2009-07-09T15:05:50Z</time>
      </trkpt>
      <trkpt lat="44.30917" lon="3.59425">
        <ele>683</ele>
        <time>2009-07-09T15:05:56Z</time>
      </trkpt>
      <trkpt lat="44.30916" lon="3.5943">
        <ele>682</ele>
        <time>2009-07-09T15:05:57Z</time>
      </trkpt>
      <trkpt lat="44.30915" lon="3.59446">
        <ele>677</ele>
        <time>2009-07-09T15:06:04Z</time>
      </trkpt>
      <trkpt lat="44.30918" lon="3.59444">
        <ele>677</ele>
        <time>2009-07-09T15:06:05Z</time>
      </trkpt>
      <trkpt lat="44.30928" lon="3.59436">
        <ele>674</ele>
        <time>2009-07-09T15:06:08Z</time>
      </trkpt>
      <trkpt lat="44.30934" lon="3.59428">
        <ele>673</ele>
        <time>2009-07-09T15:06:10Z</time>
      </trkpt>
      <trkpt lat="44.30945" lon="3.59409">
        <ele>668</ele>
        <time>2009-07-09T15:06:14Z</time>
      </trkpt>
      <trkpt lat="44.30953" lon="3.59392">
        <ele>665</ele>
        <time>2009-07-09T15:06:17Z</time>
      </trkpt>
      <trkpt lat="44.30958" lon="3.59379">
        <ele>663</ele>
        <time>2009-07-09T15:06:19Z</time>
      </trkpt>
      <trkpt lat="44.30962" lon="3.59365">
        <ele>662</ele>
        <time>2009-07-09T15:06:21Z</time>
      </trkpt>
      <trkpt lat="44.30967" lon="3.59337">
        <ele>659</ele>
        <time>2009-07-09T15:06:25Z</time>
      </trkpt>
      <trkpt lat="44.30971" lon="3.59324">
        <ele>657</ele>
        <time>2009-07-09T15:06:28Z</time>
      </trkpt>
      <trkpt lat="44.30977" lon="3.59321">
        <ele>656</ele>
        <time>2009-07-09T15:06:38Z</time>
      </trkpt>
      <trkpt lat="44.30979" lon="3.59322">
        <ele>655</ele>
        <time>2009-07-09T15:06:54Z</time>
      </trkpt>
      <trkpt lat="44.30979" lon="3.59326">
        <ele>656</ele>
        <time>2009-07-09T15:07:13Z</time>
      </trkpt>
      <trkpt lat="44.30978" lon="3.59329">
        <ele>656</ele>
        <time>2009-07-09T15:07:29Z</time>
      </trkpt>
      <trkpt lat="44.30978" lon="3.5933">
        <ele>655</ele>
        <time>2009-07-09T15:08:22Z</time>
      </trkpt>
      <trkpt lat="44.30978" lon="3.5933">
        <ele>654</ele>
        <time>2009-07-09T15:08:37Z</time>
      </trkpt>
      <trkpt lat="44.30978" lon="3.59335">
        <ele>654</ele>
        <time>2009-07-09T15:08:53Z</time>
      </trkpt>
      <trkpt lat="44.30979" lon="3.59342">
        <ele>652</ele>
        <time>2009-07-09T15:08:55Z</time>
      </trkpt>
      <trkpt lat="44.30979" lon="3.59368">
        <ele>649</ele>
        <time>2009-07-09T15:09:02Z</time>
      </trkpt>
      <trkpt lat="44.30983" lon="3.59412">
        <ele>644</ele>
        <time>2009-07-09T15:09:09Z</time>
      </trkpt>
      <trkpt lat="44.3098" lon="3.59442">
        <ele>641</ele>
        <time>2009-07-09T15:09:13Z</time>
      </trkpt>
      <trkpt lat="44.30977" lon="3.59458">
        <ele>640</ele>
        <time>2009-07-09T15:09:15Z</time>
      </trkpt>
      <trkpt lat="44.3097" lon="3.59481">
        <ele>638</ele>
        <time>2009-07-09T15:09:18Z</time>
      </trkpt>
      <trkpt lat="44.30963" lon="3.59503">
        <ele>637</ele>
        <time>2009-07-09T15:09:22Z</time>
      </trkpt>
      <trkpt lat="44.30975" lon="3.5949">
        <ele>637</ele>
        <time>2009-07-09T15:09:28Z</time>
      </trkpt>
      <trkpt lat="44.31009" lon="3.59426">
        <ele>634</ele>
        <time>2009-07-09T15:09:42Z</time>
      </trkpt>
      <trkpt lat="44.31035" lon="3.59413">
        <ele>636</ele>
        <time>2009-07-09T15:09:54Z</time>
      </trkpt>
      <trkpt lat="44.31035" lon="3.59413">
        <ele>636</ele>
        <time>2009-07-09T15:10:08Z</time>
      </trkpt>
      <trkpt lat="44.31035" lon="3.59413">
        <ele>636</ele>
        <time>2009-07-09T15:10:11Z</time>
      </trkpt>
      <trkpt lat="44.31023" lon="3.59416">
        <ele>635</ele>
        <time>2009-07-09T15:10:16Z</time>
      </trkpt>
      <trkpt lat="44.31017" lon="3.59441">
        <ele>632</ele>
        <time>2009-07-09T15:10:26Z</time>
      </trkpt>
      <trkpt lat="44.31012" lon="3.59481">
        <ele>630</ele>
        <time>2009-07-09T15:10:39Z</time>
      </trkpt>
      <trkpt lat="44.31013" lon="3.59481">
        <ele>630</ele>
        <time>2009-07-09T15:10:55Z</time>
      </trkpt>
      <trkpt lat="44.31013" lon="3.59481">
        <ele>627</ele>
        <time>2009-07-09T15:11:01Z</time>
      </trkpt>
      <trkpt lat="44.31013" lon="3.59481">
        <ele>631</ele>
        <time>2009-07-09T15:11:02Z</time>
      </trkpt>
      <trkpt lat="44.31013" lon="3.59481">
        <ele>629</ele>
        <time>2009-07-09T15:11:06Z</time>
      </trkpt>
      <trkpt lat="44.31013" lon="3.5948">
        <ele>630</ele>
        <time>2009-07-09T15:11:08Z</time>
      </trkpt>
      <trkpt lat="44.31013" lon="3.5948">
        <ele>630</ele>
        <time>2009-07-09T15:11:12Z</time>
      </trkpt>
      <trkpt lat="44.31013" lon="3.59478">
        <ele>629</ele>
        <time>2009-07-09T15:11:48Z</time>
      </trkpt>
      <trkpt lat="44.31014" lon="3.59475">
        <ele>629</ele>
        <time>2009-07-09T15:11:55Z</time>
      </trkpt>
      <trkpt lat="44.31014" lon="3.59467">
        <ele>630</ele>
        <time>2009-07-09T15:11:59Z</time>
      </trkpt>
      <trkpt lat="44.31016" lon="3.59421">
        <ele>634</ele>
        <time>2009-07-09T15:12:14Z</time>
      </trkpt>
      <trkpt lat="44.31036" lon="3.59409">
        <ele>636</ele>
        <time>2009-07-09T15:12:26Z</time>
      </trkpt>
      <trkpt lat="44.31045" lon="3.5941">
        <ele>639</ele>
        <time>2009-07-09T15:12:32Z</time>
      </trkpt>
      <trkpt lat="44.31057" lon="3.59414">
        <ele>641</ele>
        <time>2009-07-09T15:12:40Z</time>
      </trkpt>
      <trkpt lat="44.31082" lon="3.5943">
        <ele>642</ele>
        <time>2009-07-09T15:12:57Z</time>
      </trkpt>
      <trkpt lat="44.31104" lon="3.59446">
        <ele>646</ele>
        <time>2009-07-09T15:13:12Z</time>
      </trkpt>
      <trkpt lat="44.31105" lon="3.59447">
        <ele>646</ele>
        <time>2009-07-09T15:13:13Z</time>
      </trkpt>
      <trkpt lat="44.3112" lon="3.59461">
        <ele>646</ele>
        <time>2009-07-09T15:13:29Z</time>
      </trkpt>
      <trkpt lat="44.3112" lon="3.59461">
        <ele>647</ele>
        <time>2009-07-09T15:13:53Z</time>
      </trkpt>
      <trkpt lat="44.31121" lon="3.59462">
        <ele>647</ele>
        <time>2009-07-09T15:14:29Z</time>
      </trkpt>
      <trkpt lat="44.31128" lon="3.59464">
        <ele>648</ele>
        <time>2009-07-09T15:14:34Z</time>
      </trkpt>
      <trkpt lat="44.31151" lon="3.59439">
        <ele>649</ele>
        <time>2009-07-09T15:14:49Z</time>
      </trkpt>
      <trkpt lat="44.31168" lon="3.59403">
        <ele>650</ele>
        <time>2009-07-09T15:15:04Z</time>
      </trkpt>
      <trkpt lat="44.31169" lon="3.59401">
        <ele>651</ele>
        <time>2009-07-09T15:15:05Z</time>
      </trkpt>
      <trkpt lat="44.31178" lon="3.59377">
        <ele>654</ele>
        <time>2009-07-09T15:15:16Z</time>
      </trkpt>
      <trkpt lat="44.31192" lon="3.59337">
        <ele>655</ele>
        <time>2009-07-09T15:15:31Z</time>
      </trkpt>
      <trkpt lat="44.31194" lon="3.59333">
        <ele>654</ele>
        <time>2009-07-09T15:15:32Z</time>
      </trkpt>
      <trkpt lat="44.31212" lon="3.59311">
        <ele>656</ele>
        <time>2009-07-09T15:15:42Z</time>
      </trkpt>
      <trkpt lat="44.31213" lon="3.59315">
        <ele>656</ele>
        <time>2009-07-09T15:16:02Z</time>
      </trkpt>
      <trkpt lat="44.31211" lon="3.59317">
        <ele>655</ele>
        <time>2009-07-09T15:16:09Z</time>
      </trkpt>
      <trkpt lat="44.31193" lon="3.59336">
        <ele>655</ele>
        <time>2009-07-09T15:16:21Z</time>
      </trkpt>
      <trkpt lat="44.31179" lon="3.59365">
        <ele>656</ele>
        <time>2009-07-09T15:16:37Z</time>
      </trkpt>
      <trkpt lat="44.31176" lon="3.5937">
        <ele>656</ele>
        <time>2009-07-09T15:16:48Z</time>
      </trkpt>
      <trkpt lat="44.31171" lon="3.5939">
        <ele>652</ele>
        <time>2009-07-09T15:16:53Z</time>
      </trkpt>
      <trkpt lat="44.31169" lon="3.59398">
        <ele>652</ele>
        <time>2009-07-09T15:16:54Z</time>
      </trkpt>
      <trkpt lat="44.31159" lon="3.59417">
        <ele>650</ele>
        <time>2009-07-09T15:17:02Z</time>
      </trkpt>
      <trkpt lat="44.31161" lon="3.59417">
        <ele>649</ele>
        <time>2009-07-09T15:17:07Z</time>
      </trkpt>
      <trkpt lat="44.31164" lon="3.59416">
        <ele>648</ele>
        <time>2009-07-09T15:17:10Z</time>
      </trkpt>
      <trkpt lat="44.31172" lon="3.5941">
        <ele>647</ele>
        <time>2009-07-09T15:17:27Z</time>
      </trkpt>
      <trkpt lat="44.31182" lon="3.59399">
        <ele>644</ele>
        <time>2009-07-09T15:17:31Z</time>
      </trkpt>
      <trkpt lat="44.31189" lon="3.59393">
        <ele>643</ele>
        <time>2009-07-09T15:17:33Z</time>
      </trkpt>
      <trkpt lat="44.312" lon="3.59382">
        <ele>642</ele>
        <time>2009-07-09T15:17:38Z</time>
      </trkpt>
      <trkpt lat="44.31206" lon="3.59379">
        <ele>639</ele>
        <time>2009-07-09T15:17:41Z</time>
      </trkpt>
      <trkpt lat="44.31208" lon="3.59379">
        <ele>639</ele>
        <time>2009-07-09T15:17:42Z</time>
      </trkpt>
      <trkpt lat="44.31209" lon="3.59375">
        <ele>638</ele>
        <time>2009-07-09T15:17:46Z</time>
      </trkpt>
      <trkpt lat="44.31225" lon="3.59405">
        <ele>638</ele>
        <time>2009-07-09T15:17:58Z</time>
      </trkpt>
      <trkpt lat="44.31247" lon="3.59447">
        <ele>639</ele>
        <time>2009-07-09T15:18:11Z</time>
      </trkpt>
      <trkpt lat="44.31271" lon="3.59473">
        <ele>639</ele>
        <time>2009-07-09T15:18:23Z</time>
      </trkpt>
      <trkpt lat="44.3128" lon="3.59486">
        <ele>638</ele>
        <time>2009-07-09T15:18:29Z</time>
      </trkpt>
      <trkpt lat="44.31288" lon="3.59497">
        <ele>634</ele>
        <time>2009-07-09T15:18:34Z</time>
      </trkpt>
      <trkpt lat="44.31293" lon="3.59507">
        <ele>632</ele>
        <time>2009-07-09T15:18:37Z</time>
      </trkpt>
      <trkpt lat="44.31296" lon="3.59511">
        <ele>631</ele>
        <time>2009-07-09T15:18:39Z</time>
      </trkpt>
      <trkpt lat="44.31301" lon="3.59515">
        <ele>630</ele>
        <time>2009-07-09T15:18:41Z</time>
      </trkpt>
      <trkpt lat="44.31336" lon="3.59544">
        <ele>630</ele>
        <time>2009-07-09T15:18:54Z</time>
      </trkpt>
      <trkpt lat="44.31342" lon="3.59551">
        <ele>630</ele>
        <time>2009-07-09T15:18:57Z</time>
      </trkpt>
      <trkpt lat="44.31367" lon="3.5956">
        <ele>629</ele>
        <time>2009-07-09T15:19:08Z</time>
      </trkpt>
      <trkpt lat="44.31382" lon="3.59568">
        <ele>626</ele>
        <time>2009-07-09T15:19:13Z</time>
      </trkpt>
      <trkpt lat="44.31401" lon="3.59579">
        <ele>625</ele>
        <time>2009-07-09T15:19:22Z</time>
      </trkpt>
      <trkpt lat="44.31409" lon="3.59583">
        <ele>623</ele>
        <time>2009-07-09T15:19:29Z</time>
      </trkpt>
      <trkpt lat="44.31417" lon="3.59589">
        <ele>620</ele>
        <time>2009-07-09T15:19:42Z</time>
      </trkpt>
      <trkpt lat="44.31418" lon="3.5959">
        <ele>619</ele>
        <time>2009-07-09T15:19:43Z</time>
      </trkpt>
      <trkpt lat="44.31421" lon="3.59596">
        <ele>618</ele>
        <time>2009-07-09T15:19:45Z</time>
      </trkpt>
      <trkpt lat="44.31431" lon="3.59606">
        <ele>616</ele>
        <time>2009-07-09T15:19:49Z</time>
      </trkpt>
      <trkpt lat="44.31441" lon="3.59615">
        <ele>612</ele>
        <time>2009-07-09T15:19:53Z</time>
      </trkpt>
      <trkpt lat="44.31451" lon="3.59624">
        <ele>609</ele>
        <time>2009-07-09T15:19:57Z</time>
      </trkpt>
      <trkpt lat="44.31459" lon="3.59627">
        <ele>607</ele>
        <time>2009-07-09T15:19:59Z</time>
      </trkpt>
      <trkpt lat="44.31474" lon="3.59627">
        <ele>606</ele>
        <time>2009-07-09T15:20:04Z</time>
      </trkpt>
      <trkpt lat="44.31483" lon="3.59626">
        <ele>604</ele>
        <time>2009-07-09T15:20:14Z</time>
      </trkpt>
      <trkpt lat="44.31488" lon="3.59641">
        <ele>603</ele>
        <time>2009-07-09T15:20:25Z</time>
      </trkpt>
      <trkpt lat="44.3149" lon="3.59645">
        <ele>603</ele>
        <time>2009-07-09T15:20:27Z</time>
      </trkpt>
      <trkpt lat="44.31502" lon="3.59667">
        <ele>602</ele>
        <time>2009-07-09T15:20:37Z</time>
      </trkpt>
      <trkpt lat="44.31509" lon="3.597">
        <ele>602</ele>
        <time>2009-07-09T15:20:49Z</time>
      </trkpt>
      <trkpt lat="44.3151" lon="3.59704">
        <ele>602</ele>
        <time>2009-07-09T15:20:50Z</time>
      </trkpt>
      <trkpt lat="44.31536" lon="3.59712">
        <ele>598</ele>
        <time>2009-07-09T15:21:00Z</time>
      </trkpt>
      <trkpt lat="44.31544" lon="3.59712">
        <ele>595</ele>
        <time>2009-07-09T15:21:03Z</time>
      </trkpt>
      <trkpt lat="44.31554" lon="3.59714">
        <ele>593</ele>
        <time>2009-07-09T15:21:06Z</time>
      </trkpt>
      <trkpt lat="44.31574" lon="3.59732">
        <ele>590</ele>
        <time>2009-07-09T15:21:14Z</time>
      </trkpt>
      <trkpt lat="44.31584" lon="3.59754">
        <ele>587</ele>
        <time>2009-07-09T15:21:20Z</time>
      </trkpt>
      <trkpt lat="44.31585" lon="3.59757">
        <ele>586</ele>
        <time>2009-07-09T15:21:21Z</time>
      </trkpt>
      <trkpt lat="44.31587" lon="3.59762">
        <ele>585</ele>
        <time>2009-07-09T15:21:23Z</time>
      </trkpt>
      <trkpt lat="44.31592" lon="3.59771">
        <ele>582</ele>
        <time>2009-07-09T15:21:29Z</time>
      </trkpt>
      <trkpt lat="44.31601" lon="3.59774">
        <ele>578</ele>
        <time>2009-07-09T15:21:32Z</time>
      </trkpt>
      <trkpt lat="44.31615" lon="3.59781">
        <ele>575</ele>
        <time>2009-07-09T15:21:36Z</time>
      </trkpt>
      <trkpt lat="44.3163" lon="3.59788">
        <ele>572</ele>
        <time>2009-07-09T15:21:40Z</time>
      </trkpt>
      <trkpt lat="44.31639" lon="3.59794">
        <ele>569</ele>
        <time>2009-07-09T15:21:44Z</time>
      </trkpt>
      <trkpt lat="44.31647" lon="3.59799">
        <ele>566</ele>
        <time>2009-07-09T15:21:47Z</time>
      </trkpt>
      <trkpt lat="44.31656" lon="3.59804">
        <ele>563</ele>
        <time>2009-07-09T15:21:50Z</time>
      </trkpt>
      <trkpt lat="44.31658" lon="3.59805">
        <ele>563</ele>
        <time>2009-07-09T15:21:51Z</time>
      </trkpt>
      <trkpt lat="44.3167" lon="3.59804">
        <ele>563</ele>
        <time>2009-07-09T15:22:01Z</time>
      </trkpt>
      <trkpt lat="44.31669" lon="3.59804">
        <ele>563</ele>
        <time>2009-07-09T15:22:16Z</time>
      </trkpt>
      <trkpt lat="44.3167" lon="3.59805">
        <ele>561</ele>
        <time>2009-07-09T15:22:44Z</time>
      </trkpt>
      <trkpt lat="44.3167" lon="3.59805">
        <ele>562</ele>
        <time>2009-07-09T15:23:32Z</time>
      </trkpt>
      <trkpt lat="44.31689" lon="3.5981">
        <ele>559</ele>
        <time>2009-07-09T15:24:39Z</time>
      </trkpt>
      <trkpt lat="44.31732" lon="3.59811">
        <ele>561</ele>
        <time>2009-07-09T15:24:52Z</time>
      </trkpt>
      <trkpt lat="44.31816" lon="3.598">
        <ele>560</ele>
        <time>2009-07-09T15:25:11Z</time>
      </trkpt>
      <trkpt lat="44.31865" lon="3.59786">
        <ele>560</ele>
        <time>2009-07-09T15:25:22Z</time>
      </trkpt>
      <trkpt lat="44.319" lon="3.59793">
        <ele>561</ele>
        <time>2009-07-09T15:25:31Z</time>
      </trkpt>
      <trkpt lat="44.31907" lon="3.59784">
        <ele>561</ele>
        <time>2009-07-09T15:25:33Z</time>
      </trkpt>
      <trkpt lat="44.31929" lon="3.59768">
        <ele>560</ele>
        <time>2009-07-09T15:25:38Z</time>
      </trkpt>
      <trkpt lat="44.31974" lon="3.59753">
        <ele>559</ele>
        <time>2009-07-09T15:25:47Z</time>
      </trkpt>
      <trkpt lat="44.32039" lon="3.59715">
        <ele>560</ele>
        <time>2009-07-09T15:26:03Z</time>
      </trkpt>
      <trkpt lat="44.32108" lon="3.5967">
        <ele>558</ele>
        <time>2009-07-09T15:26:20Z</time>
      </trkpt>
      <trkpt lat="44.32119" lon="3.59662">
        <ele>559</ele>
        <time>2009-07-09T15:26:23Z</time>
      </trkpt>
      <trkpt lat="44.32191" lon="3.59601">
        <ele>561</ele>
        <time>2009-07-09T15:26:42Z</time>
      </trkpt>
      <trkpt lat="44.32243" lon="3.5955">
        <ele>559</ele>
        <time>2009-07-09T15:26:56Z</time>
      </trkpt>
      <trkpt lat="44.32295" lon="3.59496">
        <ele>559</ele>
        <time>2009-07-09T15:27:12Z</time>
      </trkpt>
      <trkpt lat="44.32327" lon="3.59474">
        <ele>561</ele>
        <time>2009-07-09T15:27:22Z</time>
      </trkpt>
      <trkpt lat="44.32334" lon="3.59472">
        <ele>562</ele>
        <time>2009-07-09T15:27:26Z</time>
      </trkpt>
      <trkpt lat="44.32339" lon="3.59468">
        <ele>562</ele>
        <time>2009-07-09T15:27:30Z</time>
      </trkpt>
      <trkpt lat="44.32351" lon="3.59465">
        <ele>561</ele>
        <time>2009-07-09T15:27:36Z</time>
      </trkpt>
      <trkpt lat="44.32355" lon="3.59464">
        <ele>562</ele>
        <time>2009-07-09T15:27:38Z</time>
      </trkpt>
      <trkpt lat="44.32367" lon="3.59457">
        <ele>561</ele>
        <time>2009-07-09T15:27:42Z</time>
      </trkpt>
      <trkpt lat="44.32395" lon="3.59438">
        <ele>561</ele>
        <time>2009-07-09T15:27:54Z</time>
      </trkpt>
      <trkpt lat="44.32406" lon="3.59417">
        <ele>561</ele>
        <time>2009-07-09T15:28:03Z</time>
      </trkpt>
      <trkpt lat="44.32404" lon="3.59406">
        <ele>561</ele>
        <time>2009-07-09T15:28:20Z</time>
      </trkpt>
      <trkpt lat="44.32405" lon="3.59406">
        <ele>562</ele>
        <time>2009-07-09T15:28:31Z</time>
      </trkpt>
      <trkpt lat="44.32409" lon="3.59401">
        <ele>561</ele>
        <time>2009-07-09T15:28:35Z</time>
      </trkpt>
      <trkpt lat="44.32414" lon="3.59395">
        <ele>562</ele>
        <time>2009-07-09T15:28:47Z</time>
      </trkpt>
      <trkpt lat="44.32413" lon="3.59396">
        <ele>561</ele>
        <time>2009-07-09T15:29:43Z</time>
      </trkpt>
      <trkpt lat="44.32421" lon="3.59385">
        <ele>560</ele>
        <time>2009-07-09T15:29:49Z</time>
      </trkpt>
      <trkpt lat="44.32427" lon="3.59382">
        <ele>561</ele>
        <time>2009-07-09T15:29:52Z</time>
      </trkpt>
      <trkpt lat="44.32452" lon="3.59365">
        <ele>561</ele>
        <time>2009-07-09T15:30:04Z</time>
      </trkpt>
      <trkpt lat="44.32474" lon="3.59346">
        <ele>560</ele>
        <time>2009-07-09T15:30:12Z</time>
      </trkpt>
      <trkpt lat="44.32505" lon="3.59308">
        <ele>560</ele>
        <time>2009-07-09T15:30:23Z</time>
      </trkpt>
      <trkpt lat="44.32526" lon="3.59278">
        <ele>561</ele>
        <time>2009-07-09T15:30:33Z</time>
      </trkpt>
      <trkpt lat="44.3255" lon="3.59257">
        <ele>561</ele>
        <time>2009-07-09T15:30:45Z</time>
      </trkpt>
      <trkpt lat="44.32553" lon="3.59255">
        <ele>562</ele>
        <time>2009-07-09T15:30:46Z</time>
      </trkpt>
      <trkpt lat="44.32544" lon="3.59252">
        <ele>561</ele>
        <time>2009-07-09T15:30:54Z</time>
      </trkpt>
      <trkpt lat="44.32543" lon="3.59294">
        <ele>561</ele>
        <time>2009-07-09T15:31:01Z</time>
      </trkpt>
      <trkpt lat="44.32529" lon="3.59322">
        <ele>560</ele>
        <time>2009-07-09T15:31:06Z</time>
      </trkpt>
      <trkpt lat="44.32523" lon="3.59332">
        <ele>559</ele>
        <time>2009-07-09T15:31:08Z</time>
      </trkpt>
      <trkpt lat="44.32513" lon="3.59348">
        <ele>559</ele>
        <time>2009-07-09T15:31:12Z</time>
      </trkpt>
      <trkpt lat="44.3248" lon="3.59388">
        <ele>559</ele>
        <time>2009-07-09T15:31:25Z</time>
      </trkpt>
      <trkpt lat="44.32473" lon="3.59397">
        <ele>560</ele>
        <time>2009-07-09T15:31:29Z</time>
      </trkpt>
      <trkpt lat="44.32471" lon="3.59404">
        <ele>559</ele>
        <time>2009-07-09T15:31:41Z</time>
      </trkpt>
      <trkpt lat="44.32472" lon="3.59408">
        <ele>560</ele>
        <time>2009-07-09T15:32:18Z</time>
      </trkpt>
      <trkpt lat="44.32482" lon="3.59415">
        <ele>559</ele>
        <time>2009-07-09T15:32:27Z</time>
      </trkpt>
      <trkpt lat="44.32514" lon="3.59372">
        <ele>560</ele>
        <time>2009-07-09T15:32:44Z</time>
      </trkpt>
      <trkpt lat="44.32548" lon="3.59313">
        <ele>558</ele>
        <time>2009-07-09T15:33:01Z</time>
      </trkpt>
      <trkpt lat="44.32555" lon="3.59254">
        <ele>560</ele>
        <time>2009-07-09T15:33:16Z</time>
      </trkpt>
      <trkpt lat="44.32586" lon="3.59237">
        <ele>558</ele>
        <time>2009-07-09T15:33:26Z</time>
      </trkpt>
      <trkpt lat="44.32615" lon="3.59224">
        <ele>557</ele>
        <time>2009-07-09T15:33:33Z</time>
      </trkpt>
      <trkpt lat="44.3264" lon="3.59225">
        <ele>555</ele>
        <time>2009-07-09T15:33:38Z</time>
      </trkpt>
      <trkpt lat="44.32649" lon="3.59228">
        <ele>555</ele>
        <time>2009-07-09T15:33:40Z</time>
      </trkpt>
      <trkpt lat="44.32671" lon="3.59229">
        <ele>554</ele>
        <time>2009-07-09T15:33:45Z</time>
      </trkpt>
      <trkpt lat="44.32728" lon="3.59211">
        <ele>554</ele>
        <time>2009-07-09T15:33:58Z</time>
      </trkpt>
      <trkpt lat="44.32744" lon="3.59197">
        <ele>554</ele>
        <time>2009-07-09T15:34:02Z</time>
      </trkpt>
      <trkpt lat="44.32826" lon="3.59137">
        <ele>551</ele>
        <time>2009-07-09T15:34:22Z</time>
      </trkpt>
      <trkpt lat="44.32845" lon="3.59128">
        <ele>550</ele>
        <time>2009-07-09T15:34:26Z</time>
      </trkpt>
      <trkpt lat="44.32875" lon="3.59161">
        <ele>550</ele>
        <time>2009-07-09T15:34:35Z</time>
      </trkpt>
      <trkpt lat="44.32879" lon="3.59177">
        <ele>550</ele>
        <time>2009-07-09T15:34:38Z</time>
      </trkpt>
      <trkpt lat="44.329" lon="3.59175">
        <ele>550</ele>
        <time>2009-07-09T15:34:43Z</time>
      </trkpt>
      <trkpt lat="44.32978" lon="3.59116">
        <ele>550</ele>
        <time>2009-07-09T15:35:02Z</time>
      </trkpt>
      <trkpt lat="44.33047" lon="3.59062">
        <ele>551</ele>
        <time>2009-07-09T15:35:19Z</time>
      </trkpt>
      <trkpt lat="44.33068" lon="3.59053">
        <ele>553</ele>
        <time>2009-07-09T15:35:24Z</time>
      </trkpt>
      <trkpt lat="44.33099" lon="3.59059">
        <ele>554</ele>
        <time>2009-07-09T15:35:32Z</time>
      </trkpt>
      <trkpt lat="44.33145" lon="3.59117">
        <ele>555</ele>
        <time>2009-07-09T15:35:48Z</time>
      </trkpt>
      <trkpt lat="44.33154" lon="3.5913">
        <ele>555</ele>
        <time>2009-07-09T15:35:54Z</time>
      </trkpt>
      <trkpt lat="44.33163" lon="3.59126">
        <ele>554</ele>
        <time>2009-07-09T15:35:57Z</time>
      </trkpt>
      <trkpt lat="44.33168" lon="3.5912">
        <ele>554</ele>
        <time>2009-07-09T15:35:59Z</time>
      </trkpt>
      <trkpt lat="44.33209" lon="3.59032">
        <ele>554</ele>
        <time>2009-07-09T15:36:17Z</time>
      </trkpt>
      <trkpt lat="44.33251" lon="3.58927">
        <ele>556</ele>
        <time>2009-07-09T15:36:35Z</time>
      </trkpt>
      <trkpt lat="44.33306" lon="3.58784">
        <ele>554</ele>
        <time>2009-07-09T15:36:58Z</time>
      </trkpt>
      <trkpt lat="44.3335" lon="3.58714">
        <ele>555</ele>
        <time>2009-07-09T15:37:11Z</time>
      </trkpt>
      <trkpt lat="44.3343" lon="3.58643">
        <ele>555</ele>
        <time>2009-07-09T15:37:29Z</time>
      </trkpt>
      <trkpt lat="44.33507" lon="3.58618">
        <ele>554</ele>
        <time>2009-07-09T15:37:44Z</time>
      </trkpt>
      <trkpt lat="44.33564" lon="3.58621">
        <ele>553</ele>
        <time>2009-07-09T15:37:55Z</time>
      </trkpt>
      <trkpt lat="44.33579" lon="3.58626">
        <ele>552</ele>
        <time>2009-07-09T15:37:58Z</time>
      </trkpt>
      <trkpt lat="44.33594" lon="3.58653">
        <ele>551</ele>
        <time>2009-07-09T15:38:03Z</time>
      </trkpt>
      <trkpt lat="44.33601" lon="3.58686">
        <ele>550</ele>
        <time>2009-07-09T15:38:07Z</time>
      </trkpt>
      <trkpt lat="44.33609" lon="3.58723">
        <ele>550</ele>
        <time>2009-07-09T15:38:14Z</time>
      </trkpt>
      <trkpt lat="44.33608" lon="3.58724">
        <ele>550</ele>
        <time>2009-07-09T15:38:25Z</time>
      </trkpt>
      <trkpt lat="44.33604" lon="3.58724">
        <ele>549</ele>
        <time>2009-07-09T15:39:00Z</time>
      </trkpt>
      <trkpt lat="44.33601" lon="3.58723">
        <ele>550</ele>
        <time>2009-07-09T15:39:32Z</time>
      </trkpt>
      <trkpt lat="44.33598" lon="3.58727">
        <ele>550</ele>
        <time>2009-07-09T15:40:16Z</time>
      </trkpt>
      <trkpt lat="44.33598" lon="3.58727">
        <ele>549</ele>
        <time>2009-07-09T15:40:38Z</time>
      </trkpt>
      <trkpt lat="44.33598" lon="3.58728">
        <ele>550</ele>
        <time>2009-07-09T15:41:00Z</time>
      </trkpt>
      <trkpt lat="44.33599" lon="3.58731">
        <ele>550</ele>
        <time>2009-07-09T15:41:24Z</time>
      </trkpt>
      <trkpt lat="44.3359" lon="3.58753">
        <ele>549</ele>
        <time>2009-07-09T15:41:40Z</time>
      </trkpt>
      <trkpt lat="44.33575" lon="3.58844">
        <ele>549</ele>
        <time>2009-07-09T15:41:58Z</time>
      </trkpt>
      <trkpt lat="44.33554" lon="3.58947">
        <ele>550</ele>
        <time>2009-07-09T15:42:17Z</time>
      </trkpt>
      <trkpt lat="44.3356" lon="3.59042">
        <ele>552</ele>
        <time>2009-07-09T15:42:36Z</time>
      </trkpt>
      <trkpt lat="44.33568" lon="3.59114">
        <ele>555</ele>
        <time>2009-07-09T15:42:53Z</time>
      </trkpt>
      <trkpt lat="44.33571" lon="3.59177">
        <ele>559</ele>
        <time>2009-07-09T15:43:09Z</time>
      </trkpt>
      <trkpt lat="44.33582" lon="3.5926">
        <ele>562</ele>
        <time>2009-07-09T15:43:32Z</time>
      </trkpt>
      <trkpt lat="44.33604" lon="3.59316">
        <ele>566</ele>
        <time>2009-07-09T15:43:49Z</time>
      </trkpt>
      <trkpt lat="44.3362" lon="3.59353">
        <ele>568</ele>
        <time>2009-07-09T15:44:00Z</time>
      </trkpt>
      <trkpt lat="44.33641" lon="3.59413">
        <ele>570</ele>
        <time>2009-07-09T15:44:18Z</time>
      </trkpt>
      <trkpt lat="44.3366" lon="3.59488">
        <ele>573</ele>
        <time>2009-07-09T15:44:39Z</time>
      </trkpt>
      <trkpt lat="44.33685" lon="3.59574">
        <ele>576</ele>
        <time>2009-07-09T15:45:03Z</time>
      </trkpt>
      <trkpt lat="44.33702" lon="3.59615">
        <ele>576</ele>
        <time>2009-07-09T15:45:17Z</time>
      </trkpt>
      <trkpt lat="44.33741" lon="3.59655">
        <ele>574</ele>
        <time>2009-07-09T15:45:34Z</time>
      </trkpt>
      <trkpt lat="44.33783" lon="3.59683">
        <ele>573</ele>
        <time>2009-07-09T15:45:48Z</time>
      </trkpt>
      <trkpt lat="44.33808" lon="3.59683">
        <ele>574</ele>
        <time>2009-07-09T15:45:55Z</time>
      </trkpt>
      <trkpt lat="44.33871" lon="3.59685">
        <ele>575</ele>
        <time>2009-07-09T15:46:15Z</time>
      </trkpt>
      <trkpt lat="44.33882" lon="3.59689">
        <ele>576</ele>
        <time>2009-07-09T15:46:19Z</time>
      </trkpt>
      <trkpt lat="44.33924" lon="3.59699">
        <ele>579</ele>
        <time>2009-07-09T15:46:35Z</time>
      </trkpt>
      <trkpt lat="44.33964" lon="3.59702">
        <ele>582</ele>
        <time>2009-07-09T15:46:52Z</time>
      </trkpt>
      <trkpt lat="44.34007" lon="3.597">
        <ele>584</ele>
        <time>2009-07-09T15:47:10Z</time>
      </trkpt>
      <trkpt lat="44.34052" lon="3.5969">
        <ele>587</ele>
        <time>2009-07-09T15:47:30Z</time>
      </trkpt>
      <trkpt lat="44.341" lon="3.59676">
        <ele>588</ele>
        <time>2009-07-09T15:47:50Z</time>
      </trkpt>
      <trkpt lat="44.34142" lon="3.5966">
        <ele>591</ele>
        <time>2009-07-09T15:48:08Z</time>
      </trkpt>
      <trkpt lat="44.34192" lon="3.59628">
        <ele>594</ele>
        <time>2009-07-09T15:48:31Z</time>
      </trkpt>
      <trkpt lat="44.34225" lon="3.59604">
        <ele>597</ele>
        <time>2009-07-09T15:48:46Z</time>
      </trkpt>
      <trkpt lat="44.34249" lon="3.59584">
        <ele>597</ele>
        <time>2009-07-09T15:48:58Z</time>
      </trkpt>
      <trkpt lat="44.34287" lon="3.59564">
        <ele>601</ele>
        <time>2009-07-09T15:49:15Z</time>
      </trkpt>
      <trkpt lat="44.34319" lon="3.59587">
        <ele>600</ele>
        <time>2009-07-09T15:49:29Z</time>
      </trkpt>
      <trkpt lat="44.3433" lon="3.59655">
        <ele>599</ele>
        <time>2009-07-09T15:49:44Z</time>
      </trkpt>
      <trkpt lat="44.34345" lon="3.5975">
        <ele>596</ele>
        <time>2009-07-09T15:49:59Z</time>
      </trkpt>
      <trkpt lat="44.34354" lon="3.59829">
        <ele>593</ele>
        <time>2009-07-09T15:50:07Z</time>
      </trkpt>
      <trkpt lat="44.34361" lon="3.59903">
        <ele>590</ele>
        <time>2009-07-09T15:50:13Z</time>
      </trkpt>
      <trkpt lat="44.34368" lon="3.59929">
        <ele>590</ele>
        <time>2009-07-09T15:50:15Z</time>
      </trkpt>
      <trkpt lat="44.34372" lon="3.6002">
        <ele>586</ele>
        <time>2009-07-09T15:50:21Z</time>
      </trkpt>
      <trkpt lat="44.34372" lon="3.60036">
        <ele>586</ele>
        <time>2009-07-09T15:50:22Z</time>
      </trkpt>
      <trkpt lat="44.34355" lon="3.60095">
        <ele>579</ele>
        <time>2009-07-09T15:50:26Z</time>
      </trkpt>
      <trkpt lat="44.34342" lon="3.60121">
        <ele>578</ele>
        <time>2009-07-09T15:50:28Z</time>
      </trkpt>
      <trkpt lat="44.34325" lon="3.60195">
        <ele>575</ele>
        <time>2009-07-09T15:50:33Z</time>
      </trkpt>
      <trkpt lat="44.34319" lon="3.60242">
        <ele>573</ele>
        <time>2009-07-09T15:50:36Z</time>
      </trkpt>
      <trkpt lat="44.34322" lon="3.60289">
        <ele>572</ele>
        <time>2009-07-09T15:50:39Z</time>
      </trkpt>
      <trkpt lat="44.34325" lon="3.60304">
        <ele>572</ele>
        <time>2009-07-09T15:50:40Z</time>
      </trkpt>
      <trkpt lat="44.34359" lon="3.60441">
        <ele>572</ele>
        <time>2009-07-09T15:50:50Z</time>
      </trkpt>
      <trkpt lat="44.34395" lon="3.6054">
        <ele>575</ele>
        <time>2009-07-09T15:51:01Z</time>
      </trkpt>
      <trkpt lat="44.34424" lon="3.60605">
        <ele>577</ele>
        <time>2009-07-09T15:51:14Z</time>
      </trkpt>
      <trkpt lat="44.34425" lon="3.60668">
        <ele>580</ele>
        <time>2009-07-09T15:51:28Z</time>
      </trkpt>
      <trkpt lat="44.34439" lon="3.60745">
        <ele>583</ele>
        <time>2009-07-09T15:51:45Z</time>
      </trkpt>
      <trkpt lat="44.34456" lon="3.60832">
        <ele>585</ele>
        <time>2009-07-09T15:52:04Z</time>
      </trkpt>
      <trkpt lat="44.3445" lon="3.60857">
        <ele>583</ele>
        <time>2009-07-09T15:52:09Z</time>
      </trkpt>
      <trkpt lat="44.34444" lon="3.60921">
        <ele>580</ele>
        <time>2009-07-09T15:52:17Z</time>
      </trkpt>
      <trkpt lat="44.34444" lon="3.60977">
        <ele>578</ele>
        <time>2009-07-09T15:52:22Z</time>
      </trkpt>
      <trkpt lat="44.34461" lon="3.61022">
        <ele>578</ele>
        <time>2009-07-09T15:52:27Z</time>
      </trkpt>
      <trkpt lat="44.34494" lon="3.6106">
        <ele>576</ele>
        <time>2009-07-09T15:52:33Z</time>
      </trkpt>
      <trkpt lat="44.34508" lon="3.61105">
        <ele>576</ele>
        <time>2009-07-09T15:52:39Z</time>
      </trkpt>
      <trkpt lat="44.34506" lon="3.61127">
        <ele>578</ele>
        <time>2009-07-09T15:52:42Z</time>
      </trkpt>
      <trkpt lat="44.3449" lon="3.61243">
        <ele>577</ele>
        <time>2009-07-09T15:53:00Z</time>
      </trkpt>
      <trkpt lat="44.34484" lon="3.61286">
        <ele>579</ele>
        <time>2009-07-09T15:53:07Z</time>
      </trkpt>
      <trkpt lat="44.3448" lon="3.6132">
        <ele>580</ele>
        <time>2009-07-09T15:53:18Z</time>
      </trkpt>
      <trkpt lat="44.34481" lon="3.61318">
        <ele>580</ele>
        <time>2009-07-09T15:54:19Z</time>
      </trkpt>
      <trkpt lat="44.34481" lon="3.6132">
        <ele>578</ele>
        <time>2009-07-09T15:56:11Z</time>
      </trkpt>
      <trkpt lat="44.34482" lon="3.6133">
        <ele>578</ele>
        <time>2009-07-09T15:56:28Z</time>
      </trkpt>
      <trkpt lat="44.34489" lon="3.61372">
        <ele>579</ele>
        <time>2009-07-09T15:56:40Z</time>
      </trkpt>
      <trkpt lat="44.34508" lon="3.61426">
        <ele>583</ele>
        <time>2009-07-09T15:56:57Z</time>
      </trkpt>
      <trkpt lat="44.34509" lon="3.61429">
        <ele>583</ele>
        <time>2009-07-09T15:56:58Z</time>
      </trkpt>
      <trkpt lat="44.3452" lon="3.61476">
        <ele>586</ele>
        <time>2009-07-09T15:57:13Z</time>
      </trkpt>
      <trkpt lat="44.34534" lon="3.61535">
        <ele>588</ele>
        <time>2009-07-09T15:57:33Z</time>
      </trkpt>
      <trkpt lat="44.34546" lon="3.61578">
        <ele>592</ele>
        <time>2009-07-09T15:57:48Z</time>
      </trkpt>
      <trkpt lat="44.34574" lon="3.61651">
        <ele>595</ele>
        <time>2009-07-09T15:58:12Z</time>
      </trkpt>
      <trkpt lat="44.34592" lon="3.61693">
        <ele>598</ele>
        <time>2009-07-09T15:58:25Z</time>
      </trkpt>
      <trkpt lat="44.3461" lon="3.61737">
        <ele>602</ele>
        <time>2009-07-09T15:58:39Z</time>
      </trkpt>
      <trkpt lat="44.34634" lon="3.61794">
        <ele>605</ele>
        <time>2009-07-09T15:58:57Z</time>
      </trkpt>
      <trkpt lat="44.3467" lon="3.61858">
        <ele>608</ele>
        <time>2009-07-09T15:59:17Z</time>
      </trkpt>
      <trkpt lat="44.34686" lon="3.61874">
        <ele>610</ele>
        <time>2009-07-09T15:59:23Z</time>
      </trkpt>
      <trkpt lat="44.34716" lon="3.61917">
        <ele>613</ele>
        <time>2009-07-09T15:59:37Z</time>
      </trkpt>
      <trkpt lat="44.34742" lon="3.61983">
        <ele>617</ele>
        <time>2009-07-09T15:59:53Z</time>
      </trkpt>
      <trkpt lat="44.34772" lon="3.62043">
        <ele>619</ele>
        <time>2009-07-09T16:00:09Z</time>
      </trkpt>
      <trkpt lat="44.34811" lon="3.62115">
        <ele>622</ele>
        <time>2009-07-09T16:00:29Z</time>
      </trkpt>
      <trkpt lat="44.3484" lon="3.62182">
        <ele>625</ele>
        <time>2009-07-09T16:00:47Z</time>
      </trkpt>
      <trkpt lat="44.34861" lon="3.62254">
        <ele>627</ele>
        <time>2009-07-09T16:01:05Z</time>
      </trkpt>
      <trkpt lat="44.34878" lon="3.62351">
        <ele>630</ele>
        <time>2009-07-09T16:01:28Z</time>
      </trkpt>
      <trkpt lat="44.34878" lon="3.62454">
        <ele>631</ele>
        <time>2009-07-09T16:01:49Z</time>
      </trkpt>
      <trkpt lat="44.34876" lon="3.62546">
        <ele>634</ele>
        <time>2009-07-09T16:02:07Z</time>
      </trkpt>
      <trkpt lat="44.34882" lon="3.62562">
        <ele>634</ele>
        <time>2009-07-09T16:02:10Z</time>
      </trkpt>
      <trkpt lat="44.34888" lon="3.62593">
        <ele>633</ele>
        <time>2009-07-09T16:02:15Z</time>
      </trkpt>
      <trkpt lat="44.34892" lon="3.62653">
        <ele>634</ele>
        <time>2009-07-09T16:02:24Z</time>
      </trkpt>
      <trkpt lat="44.34895" lon="3.62658">
        <ele>633</ele>
        <time>2009-07-09T16:02:25Z</time>
      </trkpt>
      <trkpt lat="44.34901" lon="3.62716">
        <ele>633</ele>
        <time>2009-07-09T16:02:34Z</time>
      </trkpt>
      <trkpt lat="44.34897" lon="3.62728">
        <ele>633</ele>
        <time>2009-07-09T16:02:36Z</time>
      </trkpt>
      <trkpt lat="44.34893" lon="3.62786">
        <ele>633</ele>
        <time>2009-07-09T16:02:44Z</time>
      </trkpt>
      <trkpt lat="44.34904" lon="3.62817">
        <ele>633</ele>
        <time>2009-07-09T16:02:49Z</time>
      </trkpt>
      <trkpt lat="44.34918" lon="3.62841">
        <ele>633</ele>
        <time>2009-07-09T16:02:53Z</time>
      </trkpt>
      <trkpt lat="44.34925" lon="3.6287">
        <ele>632</ele>
        <time>2009-07-09T16:02:57Z</time>
      </trkpt>
      <trkpt lat="44.34928" lon="3.63008">
        <ele>630</ele>
        <time>2009-07-09T16:03:15Z</time>
      </trkpt>
      <trkpt lat="44.34933" lon="3.631">
        <ele>632</ele>
        <time>2009-07-09T16:03:28Z</time>
      </trkpt>
      <trkpt lat="44.34947" lon="3.63121">
        <ele>632</ele>
        <time>2009-07-09T16:03:32Z</time>
      </trkpt>
      <trkpt lat="44.34972" lon="3.63137">
        <ele>631</ele>
        <time>2009-07-09T16:03:37Z</time>
      </trkpt>
      <trkpt lat="44.35042" lon="3.63129">
        <ele>631</ele>
        <time>2009-07-09T16:03:50Z</time>
      </trkpt>
      <trkpt lat="44.35065" lon="3.63112">
        <ele>630</ele>
        <time>2009-07-09T16:03:55Z</time>
      </trkpt>
      <trkpt lat="44.35139" lon="3.63025">
        <ele>630</ele>
        <time>2009-07-09T16:04:14Z</time>
      </trkpt>
      <trkpt lat="44.35156" lon="3.63007">
        <ele>630</ele>
        <time>2009-07-09T16:04:18Z</time>
      </trkpt>
      <trkpt lat="44.35232" lon="3.62981">
        <ele>628</ele>
        <time>2009-07-09T16:04:33Z</time>
      </trkpt>
      <trkpt lat="44.35277" lon="3.62981">
        <ele>628</ele>
        <time>2009-07-09T16:04:42Z</time>
      </trkpt>
      <trkpt lat="44.35291" lon="3.62986">
        <ele>629</ele>
        <time>2009-07-09T16:04:45Z</time>
      </trkpt>
      <trkpt lat="44.35326" lon="3.63005">
        <ele>628</ele>
        <time>2009-07-09T16:04:53Z</time>
      </trkpt>
      <trkpt lat="44.35345" lon="3.63003">
        <ele>627</ele>
        <time>2009-07-09T16:04:57Z</time>
      </trkpt>
      <trkpt lat="44.35378" lon="3.63005">
        <ele>623</ele>
        <time>2009-07-09T16:05:03Z</time>
      </trkpt>
      <trkpt lat="44.35382" lon="3.63012">
        <ele>623</ele>
        <time>2009-07-09T16:05:04Z</time>
      </trkpt>
      <trkpt lat="44.35387" lon="3.6302">
        <ele>622</ele>
        <time>2009-07-09T16:05:05Z</time>
      </trkpt>
      <trkpt lat="44.35405" lon="3.63052">
        <ele>620</ele>
        <time>2009-07-09T16:05:09Z</time>
      </trkpt>
      <trkpt lat="44.35416" lon="3.63093">
        <ele>617</ele>
        <time>2009-07-09T16:05:13Z</time>
      </trkpt>
      <trkpt lat="44.35412" lon="3.63142">
        <ele>618</ele>
        <time>2009-07-09T16:05:20Z</time>
      </trkpt>
      <trkpt lat="44.35409" lon="3.63148">
        <ele>618</ele>
        <time>2009-07-09T16:06:15Z</time>
      </trkpt>
      <trkpt lat="44.35409" lon="3.63188">
        <ele>616</ele>
        <time>2009-07-09T16:06:07Z</time>
      </trkpt>
      <trkpt lat="44.35412" lon="3.63211">
        <ele>614</ele>
        <time>2009-07-09T16:06:10Z</time>
      </trkpt>
      <trkpt lat="44.35414" lon="3.63219">
        <ele>614</ele>
        <time>2009-07-09T16:06:11Z</time>
      </trkpt>
      <trkpt lat="44.35416" lon="3.63235">
        <ele>612</ele>
        <time>2009-07-09T16:06:13Z</time>
      </trkpt>
      <trkpt lat="44.35407" lon="3.63316">
        <ele>613</ele>
        <time>2009-07-09T16:06:25Z</time>
      </trkpt>
      <trkpt lat="44.35408" lon="3.63414">
        <ele>616</ele>
        <time>2009-07-09T16:06:44Z</time>
      </trkpt>
      <trkpt lat="44.35413" lon="3.63448">
        <ele>619</ele>
        <time>2009-07-09T16:06:52Z</time>
      </trkpt>
      <trkpt lat="44.35424" lon="3.63528">
        <ele>622</ele>
        <time>2009-07-09T16:07:11Z</time>
      </trkpt>
      <trkpt lat="44.35427" lon="3.63548">
        <ele>623</ele>
        <time>2009-07-09T16:07:16Z</time>
      </trkpt>
      <trkpt lat="44.35436" lon="3.63643">
        <ele>626</ele>
        <time>2009-07-09T16:07:39Z</time>
      </trkpt>
      <trkpt lat="44.35456" lon="3.63741">
        <ele>628</ele>
        <time>2009-07-09T16:08:03Z</time>
      </trkpt>
      <trkpt lat="44.35478" lon="3.63762">
        <ele>628</ele>
        <time>2009-07-09T16:08:10Z</time>
      </trkpt>
      <trkpt lat="44.35539" lon="3.63833">
        <ele>626</ele>
        <time>2009-07-09T16:08:27Z</time>
      </trkpt>
      <trkpt lat="44.3557" lon="3.63859">
        <ele>624</ele>
        <time>2009-07-09T16:08:34Z</time>
      </trkpt>
      <trkpt lat="44.35604" lon="3.63901">
        <ele>623</ele>
        <time>2009-07-09T16:08:42Z</time>
      </trkpt>
      <trkpt lat="44.35611" lon="3.63915">
        <ele>622</ele>
        <time>2009-07-09T16:08:44Z</time>
      </trkpt>
      <trkpt lat="44.35617" lon="3.63931">
        <ele>622</ele>
        <time>2009-07-09T16:08:46Z</time>
      </trkpt>
      <trkpt lat="44.35628" lon="3.63966">
        <ele>619</ele>
        <time>2009-07-09T16:08:50Z</time>
      </trkpt>
      <trkpt lat="44.3564" lon="3.64">
        <ele>617</ele>
        <time>2009-07-09T16:08:54Z</time>
      </trkpt>
      <trkpt lat="44.35676" lon="3.64106">
        <ele>618</ele>
        <time>2009-07-09T16:09:07Z</time>
      </trkpt>
      <trkpt lat="44.35698" lon="3.64136">
        <ele>620</ele>
        <time>2009-07-09T16:09:15Z</time>
      </trkpt>
      <trkpt lat="44.35748" lon="3.6416">
        <ele>622</ele>
        <time>2009-07-09T16:09:29Z</time>
      </trkpt>
      <trkpt lat="44.35809" lon="3.6419">
        <ele>625</ele>
        <time>2009-07-09T16:09:47Z</time>
      </trkpt>
      <trkpt lat="44.35834" lon="3.64242">
        <ele>626</ele>
        <time>2009-07-09T16:10:01Z</time>
      </trkpt>
      <trkpt lat="44.35839" lon="3.64263">
        <ele>627</ele>
        <time>2009-07-09T16:10:07Z</time>
      </trkpt>
      <trkpt lat="44.3585" lon="3.64293">
        <ele>629</ele>
        <time>2009-07-09T16:10:16Z</time>
      </trkpt>
      <trkpt lat="44.35862" lon="3.64332">
        <ele>631</ele>
        <time>2009-07-09T16:10:30Z</time>
      </trkpt>
      <trkpt lat="44.35883" lon="3.64377">
        <ele>633</ele>
        <time>2009-07-09T16:10:46Z</time>
      </trkpt>
      <trkpt lat="44.35916" lon="3.64426">
        <ele>636</ele>
        <time>2009-07-09T16:11:04Z</time>
      </trkpt>
      <trkpt lat="44.35928" lon="3.64461">
        <ele>639</ele>
        <time>2009-07-09T16:11:15Z</time>
      </trkpt>
      <trkpt lat="44.35928" lon="3.64465">
        <ele>639</ele>
        <time>2009-07-09T16:11:16Z</time>
      </trkpt>
      <trkpt lat="44.35936" lon="3.64535">
        <ele>643</ele>
        <time>2009-07-09T16:11:36Z</time>
      </trkpt>
      <trkpt lat="44.35959" lon="3.64566">
        <ele>646</ele>
        <time>2009-07-09T16:11:49Z</time>
      </trkpt>
      <trkpt lat="44.35996" lon="3.64604">
        <ele>648</ele>
        <time>2009-07-09T16:12:07Z</time>
      </trkpt>
      <trkpt lat="44.36015" lon="3.64668">
        <ele>650</ele>
        <time>2009-07-09T16:12:26Z</time>
      </trkpt>
      <trkpt lat="44.36042" lon="3.64707">
        <ele>653</ele>
        <time>2009-07-09T16:12:42Z</time>
      </trkpt>
      <trkpt lat="44.36069" lon="3.64741">
        <ele>656</ele>
        <time>2009-07-09T16:12:57Z</time>
      </trkpt>
      <trkpt lat="44.36095" lon="3.64798">
        <ele>658</ele>
        <time>2009-07-09T16:13:16Z</time>
      </trkpt>
      <trkpt lat="44.36114" lon="3.64853">
        <ele>660</ele>
        <time>2009-07-09T16:13:34Z</time>
      </trkpt>
      <trkpt lat="44.36142" lon="3.64874">
        <ele>662</ele>
        <time>2009-07-09T16:13:48Z</time>
      </trkpt>
      <trkpt lat="44.36163" lon="3.64901">
        <ele>664</ele>
        <time>2009-07-09T16:14:00Z</time>
      </trkpt>
      <trkpt lat="44.3616" lon="3.64958">
        <ele>666</ele>
        <time>2009-07-09T16:14:17Z</time>
      </trkpt>
      <trkpt lat="44.36158" lon="3.65003">
        <ele>669</ele>
        <time>2009-07-09T16:14:30Z</time>
      </trkpt>
      <trkpt lat="44.36174" lon="3.65057">
        <ele>672</ele>
        <time>2009-07-09T16:14:48Z</time>
      </trkpt>
      <trkpt lat="44.36219" lon="3.6508">
        <ele>675</ele>
        <time>2009-07-09T16:15:06Z</time>
      </trkpt>
      <trkpt lat="44.36253" lon="3.6511">
        <ele>678</ele>
        <time>2009-07-09T16:15:22Z</time>
      </trkpt>
      <trkpt lat="44.36286" lon="3.65119">
        <ele>680</ele>
        <time>2009-07-09T16:15:36Z</time>
      </trkpt>
      <trkpt lat="44.36327" lon="3.65108">
        <ele>683</ele>
        <time>2009-07-09T16:15:53Z</time>
      </trkpt>
      <trkpt lat="44.36366" lon="3.65124">
        <ele>685</ele>
        <time>2009-07-09T16:16:11Z</time>
      </trkpt>
      <trkpt lat="44.36377" lon="3.65133">
        <ele>686</ele>
        <time>2009-07-09T16:16:16Z</time>
      </trkpt>
      <trkpt lat="44.36413" lon="3.65135">
        <ele>689</ele>
        <time>2009-07-09T16:16:31Z</time>
      </trkpt>
      <trkpt lat="44.3644" lon="3.65113">
        <ele>692</ele>
        <time>2009-07-09T16:16:44Z</time>
      </trkpt>
      <trkpt lat="44.36476" lon="3.65109">
        <ele>695</ele>
        <time>2009-07-09T16:16:59Z</time>
      </trkpt>
      <trkpt lat="44.36511" lon="3.65137">
        <ele>697</ele>
        <time>2009-07-09T16:17:15Z</time>
      </trkpt>
      <trkpt lat="44.3653" lon="3.65173">
        <ele>700</ele>
        <time>2009-07-09T16:17:29Z</time>
      </trkpt>
      <trkpt lat="44.36538" lon="3.65172">
        <ele>700</ele>
        <time>2009-07-09T16:17:39Z</time>
      </trkpt>
      <trkpt lat="44.3657" lon="3.65157">
        <ele>703</ele>
        <time>2009-07-09T16:17:54Z</time>
      </trkpt>
      <trkpt lat="44.36601" lon="3.65167">
        <ele>705</ele>
        <time>2009-07-09T16:18:08Z</time>
      </trkpt>
      <trkpt lat="44.36641" lon="3.65159">
        <ele>708</ele>
        <time>2009-07-09T16:18:25Z</time>
      </trkpt>
      <trkpt lat="44.3668" lon="3.65147">
        <ele>712</ele>
        <time>2009-07-09T16:18:42Z</time>
      </trkpt>
      <trkpt lat="44.36731" lon="3.65145">
        <ele>714</ele>
        <time>2009-07-09T16:19:03Z</time>
      </trkpt>
      <trkpt lat="44.36769" lon="3.65144">
        <ele>716</ele>
        <time>2009-07-09T16:19:19Z</time>
      </trkpt>
      <trkpt lat="44.36764" lon="3.65131">
        <ele>719</ele>
        <time>2009-07-09T16:19:27Z</time>
      </trkpt>
      <trkpt lat="44.36762" lon="3.65131">
        <ele>719</ele>
        <time>2009-07-09T16:19:28Z</time>
      </trkpt>
      <trkpt lat="44.36725" lon="3.65121">
        <ele>722</ele>
        <time>2009-07-09T16:19:45Z</time>
      </trkpt>
      <trkpt lat="44.36717" lon="3.65112">
        <ele>724</ele>
        <time>2009-07-09T16:19:57Z</time>
      </trkpt>
      <trkpt lat="44.36717" lon="3.65112">
        <ele>724</ele>
        <time>2009-07-09T16:20:00Z</time>
      </trkpt>
      <trkpt lat="44.36714" lon="3.65104">
        <ele>724</ele>
        <time>2009-07-09T16:20:04Z</time>
      </trkpt>
      <trkpt lat="44.36701" lon="3.65076">
        <ele>727</ele>
        <time>2009-07-09T16:20:14Z</time>
      </trkpt>
      <trkpt lat="44.36674" lon="3.65046">
        <ele>730</ele>
        <time>2009-07-09T16:20:30Z</time>
      </trkpt>
      <trkpt lat="44.36641" lon="3.65032">
        <ele>732</ele>
        <time>2009-07-09T16:20:47Z</time>
      </trkpt>
      <trkpt lat="44.36608" lon="3.65029">
        <ele>736</ele>
        <time>2009-07-09T16:21:03Z</time>
      </trkpt>
      <trkpt lat="44.36576" lon="3.65005">
        <ele>739</ele>
        <time>2009-07-09T16:21:20Z</time>
      </trkpt>
      <trkpt lat="44.36556" lon="3.64961">
        <ele>742</ele>
        <time>2009-07-09T16:21:37Z</time>
      </trkpt>
      <trkpt lat="44.36536" lon="3.64926">
        <ele>746</ele>
        <time>2009-07-09T16:21:53Z</time>
      </trkpt>
      <trkpt lat="44.36535" lon="3.64887">
        <ele>747</ele>
        <time>2009-07-09T16:22:07Z</time>
      </trkpt>
      <trkpt lat="44.36533" lon="3.64842">
        <ele>749</ele>
        <time>2009-07-09T16:22:23Z</time>
      </trkpt>
      <trkpt lat="44.36502" lon="3.64842">
        <ele>751</ele>
        <time>2009-07-09T16:22:37Z</time>
      </trkpt>
      <trkpt lat="44.36483" lon="3.64844">
        <ele>754</ele>
        <time>2009-07-09T16:22:46Z</time>
      </trkpt>
      <trkpt lat="44.36481" lon="3.64844">
        <ele>754</ele>
        <time>2009-07-09T16:22:47Z</time>
      </trkpt>
      <trkpt lat="44.36457" lon="3.6484">
        <ele>757</ele>
        <time>2009-07-09T16:22:58Z</time>
      </trkpt>
      <trkpt lat="44.36417" lon="3.64852">
        <ele>760</ele>
        <time>2009-07-09T16:23:17Z</time>
      </trkpt>
      <trkpt lat="44.36384" lon="3.6487">
        <ele>764</ele>
        <time>2009-07-09T16:23:33Z</time>
      </trkpt>
      <trkpt lat="44.3638" lon="3.64872">
        <ele>765</ele>
        <time>2009-07-09T16:23:35Z</time>
      </trkpt>
      <trkpt lat="44.36353" lon="3.64873">
        <ele>767</ele>
        <time>2009-07-09T16:23:50Z</time>
      </trkpt>
      <trkpt lat="44.36351" lon="3.6484">
        <ele>770</ele>
        <time>2009-07-09T16:24:03Z</time>
      </trkpt>
      <trkpt lat="44.36352" lon="3.64837">
        <ele>771</ele>
        <time>2009-07-09T16:24:14Z</time>
      </trkpt>
      <trkpt lat="44.36352" lon="3.64837">
        <ele>772</ele>
        <time>2009-07-09T16:24:34Z</time>
      </trkpt>
    </trkseg>
  </trk>
</gpx>